     2              OBSERVATION DATA    GPS                 RINEX VERSION / TYPE
teqc 2000Feb29 simon 20000628 03:20:29UTC                   PGM / RUN BY / DATE
                                                            COMMENT
L2: 1 -> 1; 150 -> 5; 250 -> 9                              COMMENT
L2: 1 -> 1; 150 -> 5; 250 -> 9                              COMMENT
L2: 1 -> 1; 150 -> 5; 250 -> 9                              COMMENT
L2: 1 -> 1; 150 -> 5; 250 -> 9                              COMMENT
L2: 1 -> 1; 150 -> 5; 250 -> 9                              COMMENT
Original Marker Name: GS42                                  COMMENT
Campaign Name: China Lake April 2000                        COMMENT
4-Character Station Name: GS42                              COMMENT
6-Character Antenna Code: ASHGD3                            COMMENT
Vertical Measurement Point: TGP                             COMMENT
Vertical Offset to Rinex Ref. Point: 0.0640                 COMMENT
Radial Measurement Point: OOH                               COMMENT
Radial Offset to Rinex Ref. Point: 0.1737                   COMMENT
Antenna Height from Field Measurement: 1.1430 m             COMMENT
Additional Antenna Identification Info.:                    COMMENT
The Whopper (700718AB)                                      COMMENT
Original XYZ: -2393253.0700 -4571558.5600 3738612.2700      COMMENT
New XYZ position is based on association with SCEC monument COMMENT
E1F4O2M0+0011. Position of that monument is believed to be  COMMENT
valid to within 1 m horizontally; vertical accuracy         COMMENT
should be no worse than 3-times this value.                 COMMENT
                                                            COMMENT
Revised Rinex header created by UCSD GPS archive for        COMMENT
GSAC on 03-Oct-2001 (2001:276) 16:13:24 GMT                 COMMENT
For assistance contact dagnew@ucsd.edu                      COMMENT
or anderson@python.ucsd.edu                                 COMMENT
                                                            COMMENT
NONE                                                        MARKER NAME
gs42                                                        MARKER NUMBER
DGW US NATIONAL IMAGERY MAPPING AGENCY                      OBSERVER / AGENCY
486 ASHTECH Z-XII3 4J30                                     REC # / TYPE / VERS
112 ASHTECH GEODETIC III                                    ANT # / TYPE
 -2393346.5273 -4571897.5281  3738835.5564                  APPROX POSITION XYZ
        1.0657        0.0000        0.0000                  ANTENNA: DELTA H/E/N
     1     1     0                                          WAVELENGTH FACT L1/2
     7    L1    L2    C1    P1    P2    S1    S2            # / TYPES OF OBSERV
    30                                                      INTERVAL
  2000     5    23    15    21   30.000000                  TIME OF FIRST OBS
  2000     5    23    21    29   60.000000                  TIME OF LAST OBS
                                                            END OF HEADER
 00  5 23 15 21 30.0000000  0  5G16G 2G24G 7G 9
                                  20066552.500
       209.000
                                  18543101.949
       222.000
    -23855.17957                  17020185.923                    17020198.552
       235.000         197.000
     18760.37859      8573.83257  17568643.255    17568644.623    17568654.422
       235.000         196.000
     -7122.39657                  16684043.179                    16684053.617
       241.000         210.000
 00  5 23 15 22  0.0000000  0  6G16G 2G 5G24G 7G 9
    -47236.12644                  20053171.809
       208.000          96.000
     23201.22646                  18549670.149
       223.000         176.000
   -134352.34859    -80215.05056  18410564.710    18410565.711    18410574.846
       226.000         178.000
   -165906.26459   -114302.01357  16998098.230    16998099.345    16998110.333
       234.000         195.000
     42532.08759     27097.11547  17573167.833    17573168.603    17573178.098
       235.000         195.000
    -53140.73859    -33887.35557  16677507.595    16677508.918    16677517.473
       241.000         210.000
 00  5 23 15 22 30.0010000  0  3G24G 7G 9
   -281543.40949   -204408.83947  21772772.865    21772773.585    21772784.622
       235.000         196.000
     66384.06649     45682.93747  22374386.516    22374386.804    22374396.433
       234.000         196.000
    -86907.33449    -60199.04447  21467762.028    21467762.802    21467771.274
       241.000         208.000
 00  5 23 15 23  0.0010000  0  6G16G 2G 5G24G 7G 9
   -235323.15949   -155823.93745  24823334.552    24823334.811    24823352.464
       211.000         145.000
    124178.65649     77529.71546  23359618.173    23359618.496    23359630.955
       221.000         173.000
   -372776.20349   -265999.82946  23161874.279    23161874.459    23161883.964
       223.000         176.000
   -396884.94049   -294285.30147  21750824.272    21750824.802    21750835.911
       235.000         196.000
     90312.19649     64328.12247  22378940.062    22378940.172    22378949.986
       235.000         195.000
   -120153.10649    -86104.87947  21461435.830    21461436.378    21461444.877
       241.000         208.000
 00  5 23 15 23 30.0010000  0  6G16G 2G 5G24G 7G 9
   -304438.77649   -209680.20855  24810182.849    24810183.690    24810199.566
       209.000         147.000
    159380.53149    104959.57146  23366317.073    23366317.144    23366329.709
       219.000         173.000
   -491966.98049   -358875.74246  23139193.139    23139193.144    23139202.820
       223.000         178.000
   -511881.49749   -383892.95447  21728941.338    21728941.694    21728952.838
       235.000         195.000
    114292.73649     83014.13047  22383503.578    22383503.551    22383513.437
       235.000         194.000
   -152871.82849   -111600.03447  21455209.860    21455210.268    21455218.729
       242.000         208.000
 00  5 23 15 24  0.0010000  0  6G16G 2G 5G24G 7G 9
   -373205.82459   -263264.87945  24797097.395    24797097.921    24797113.492
       212.000         147.000
    194763.07749    132530.18446  23373050.363    23373050.314    23373062.893
       219.000         173.000
   -611162.38749   -451755.24246  23116510.982    23116510.952    23116520.783
       223.000         179.000
   -626567.50149   -473258.61347  21707117.399    21707117.661    21707128.822
       234.000         195.000
    138288.10249    101711.70347  22388069.876    22388069.754    22388079.712
       234.000         195.000
   -185100.48749   -136713.31847  21449077.097    21449077.403    21449085.844
       242.000         208.000
 00  5 23 15 24 30.0010000  0  6G16G 2G 5G24G 7G 9
   -441640.71949   -316590.76145  24784074.600    24784074.970    24784090.374
       210.000         145.000
    230307.43349    160226.85646  23379814.506    23379814.336    23379826.956
       223.000         175.000
   -730379.42449   -544651.60646  23093824.830    23093824.710    23093834.640
       227.000         179.000
   -740959.40349   -562395.10747  21685349.418    21685349.641    21685360.824
       237.000         196.000
    162278.70249    120405.55347  22392635.298    22392635.092    22392645.075
       237.000         194.000
   -216857.67449   -161459.23347  21443033.973    21443034.234    21443042.703
       243.000         208.000
 00  5 23 15 25  0.0010000  0  6G16G 2G 5G24G 7G 9
   -509718.14049   -369638.07945  24771119.656    24771119.742    24771135.818
       211.000         145.000
    266036.34149    188067.35446  23386613.697    23386613.470    23386626.119
       221.000         173.000
   -849593.68549   -637545.82846  23071139.267    23071139.050    23071148.943
       226.000         178.000
   -855032.23149   -651282.96747  21663642.159    21663642.325    21663653.484
       235.000         196.000
    186286.89249    139113.10047  22397204.086    22397203.761    22397213.779
       235.000         194.000
   -248120.58649   -185819.98547  21437084.971    21437085.147    21437093.601
       242.000         208.000
 00  5 23 15 25 30.0010000  0  6G16G 2G 5G24G 7G 9
   -577433.47649   -422403.33845  24758234.043    24758234.008    24758249.925
       215.000         149.000
    301952.02449    216053.39146  23393448.392    23393448.119    23393460.744
       220.000         173.000
   -968801.00749   -730434.65246  23048454.925    23048454.665    23048464.529
       225.000         177.000
   -968780.88549   -739918.22447  21641996.584    21641996.690    21642007.828
       235.000         197.000
    210314.16849    157835.52847  22401776.532    22401776.095    22401786.098
       234.000         194.000
   -278886.73649   -209793.66447  21431230.445    21431230.582    21431239.027
       242.000         208.000
 00  5 23 15 26  0.0000000  0  6G16G 2G 5G24G 7G 9
   -644771.68149   -474874.63845  24745420.155    24745420.094    24745436.060
       215.000         152.000
    338063.68949    244192.12346  23400320.468    23400320.074    23400332.719
       220.000         172.000
  -1087985.21749   -823305.45446  23025774.837    23025774.651    23025784.565
       226.000         176.000
  -1082188.72849   -828287.91547  21620415.811    21620415.905    21620427.033
       236.000         196.000
    234369.75549    176580.01447  22406354.282    22406353.818    22406363.806
       235.000         193.000
   -309144.64149   -233371.29847  21425472.660    21425472.740    21425481.158
       243.000         207.000
 00  5 23 15 26 30.0000000  0  6G16G 2G 5G24G 7G 9
   -711737.56649   -527055.81245  24732677.028    24732676.957    24732692.945
       213.000         151.000
    374370.71249    272483.09646  23407229.746    23407229.222    23407241.863
       222.000         174.000
  -1207155.34749   -916165.28146  23003097.497    23003097.314    23003107.253
       226.000         176.000
  -1195263.85249   -916398.34147  21598898.235    21598898.395    21598909.530
       234.000         195.000
    258451.84049    195345.15247  22410937.011    22410936.552    22410946.570
       234.000         193.000
   -338899.23449   -256556.74547  21419810.587    21419810.655    21419819.064
       242.000         207.000
 00  5 23 15 27  0.0000000  0  6G16G 2G 5G24G 7G 9
   -778265.46549   -578895.74145  24720017.135    24720017.129    24720033.085
       211.000         151.000
    410932.83849    300972.85146  23414187.548    23414186.928    23414199.641
       221.000         173.000
  -1326244.63949  -1008962.13746  22980435.622    22980435.431    22980445.313
       227.000         176.000
  -1307939.02549  -1004197.11347  21577456.855    21577457.020    21577468.151
       235.000         196.000
    282620.17149    214177.49147  22415536.270    22415535.740    22415545.746
       235.000         192.000
   -368088.50749   -279301.68047  21414256.157    21414256.173    21414264.570
       242.000         207.000
 00  5 23 15 27 30.0000000  0  6G16G 2G 5G24G 7G 9
   -844317.64549   -630364.94145  24707447.891    24707447.766    24707463.791
       210.000         152.000
    447785.57349    329689.05346  23421200.583    23421199.916    23421212.687
       223.000         173.000
  -1445215.98549  -1101667.08846  22957796.165    22957795.952    22957805.804
       226.000         176.000
  -1420176.12349  -1091654.53647  21556098.899    21556099.023    21556110.105
       235.000         196.000
    306909.52749    233104.13747  22420158.582    22420157.967    22420167.951
       234.000         191.000
   -396677.08249   -301578.54447  21408815.999    21408815.999    21408824.365
       242.000         207.000
 00  5 23 15 28  0.0000000  0  6G16G 2G 5G24G 7G 9
   -909877.04749   -681450.13745  24694972.605    24694972.367    24694988.342
       210.000         151.000
    484943.42349    358643.01246  23428271.690    23428270.987    23428283.723
       219.000         170.000
  -1564052.52249  -1194267.00246  22935182.333    22935182.106    22935191.961
       225.000         177.000
  -1531958.02949  -1178757.26547  21534827.547    21534827.632    21534838.696
       236.000         197.000
    331334.42549    252136.39347  22424806.548    22424805.960    22424815.936
       233.000         193.000
   -424649.55649   -323375.33047  21403493.085    21403493.058    21403501.415
       242.000         207.000
 00  5 23 15 28 30.0000000  0  6G16G 2G 5G24G 7G 9
   -974966.91449   -732169.50845  24682586.717    24682586.204    24682602.057
       208.000         148.000
    522380.60349    387814.62646  23435395.943    23435395.228    23435407.925
       221.000         170.000
  -1682778.24749  -1286780.55646  22912589.589    22912589.366    22912599.255
       226.000         178.000
  -1643308.09449  -1265523.49747  21513638.384    21513638.431    21513649.465
       236.000         197.000
    355868.42849    271253.66847  22429475.320    22429474.724    22429484.728
       234.000         193.000
   -452032.07149   -344712.40547  21398282.413    21398282.379    21398290.738
       242.000         207.000
 00  5 23 15 29  0.0000000  0  6G16G 2G 5G24G 7G 9
  -1039604.11049   -782536.06645  24670286.517    24670286.102    24670302.070
       210.000         149.000
    560077.78349    417188.83846  23442569.681    23442568.894    23442581.654
       219.000         168.000
  -1801410.76849  -1379221.48946  22890014.568    22890014.350    22890024.281
       226.000         179.000
  -1754243.24849  -1351966.41247  21492528.082    21492528.148    21492539.163
       235.000         196.000
    380491.77149    290440.56547  22434161.153    22434160.505    22434170.533
       233.000         193.000
   -478844.10049   -365604.94947  21393180.326    21393180.272    21393188.650
       242.000         207.000
 00  5 23 15 29 30.0000000  0  6G16G 2G 5G24G 7G 9
  -1103766.17249   -832532.44045  24658076.626    24658076.407    24658092.519
       209.000         152.000
    598055.18949    446781.40246  23449796.801    23449795.921    23449808.682
       218.000         166.000
  -1919927.85749  -1471572.46646  22867461.534    22867461.319    22867471.302
       227.000         180.000
  -1864740.69749  -1438068.26047  21471501.077    21471501.166    21471512.152
       235.000         195.000
    405224.50549    309712.70347  22438867.765    22438867.100    22438877.156
       233.000         192.000
   -505065.18349   -386037.01147  21388190.714    21388190.640    21388199.003
       242.000         207.000
 00  5 23 15 30  0.0000000  0  6G16G 2G 5G24G 7G 9
  -1167446.26049   -882153.23745  24645958.699    24645958.437    24645974.578
       207.000         152.000
    636316.92849    476595.51846  23457077.817    23457077.001    23457089.831
       218.000         166.000
  -2038323.58049  -1563828.88246  22844931.648    22844931.409    22844941.396
       226.000         180.000
  -1974793.87749  -1523823.93447  21450558.644    21450558.718    21450569.684
       235.000         195.000
    430070.00449    329072.70047  22443595.834    22443595.150    22443605.265
       233.000         192.000
   -530691.45749   -406005.59047  21383314.214    21383314.159    21383322.552
       242.000         206.000
 00  5 23 15 30 30.0000000  0  6G16G 2G 5G24G 7G 9
  -1230642.55549   -931396.96845  24633932.889    24633932.511    24633948.802
       214.000         152.000
    674863.05849    506631.26546  23464413.020    23464412.211    23464425.076
       218.000         166.000
  -2156595.68549  -1655988.95146  22822425.224    22822424.963    22822435.011
       225.000         179.000
  -2084400.21549  -1609231.40947  21429701.109    21429701.270    21429712.240
       236.000         196.000
    455028.12949    348520.45847  22448345.278    22448344.635    22448354.789
       233.000         192.000
   -555722.76849   -425510.56547  21378550.956    21378550.903    21378559.297
       242.000         206.000
 00  5 23 15 31  0.0000000  0  6G16G 2G 5G24G 7G 9
  -1293361.15749   -980268.50545  24621998.003    24621997.587    24622014.054
       208.000         155.000
    713684.51049    536881.54346  23471800.708    23471799.857    23471812.751
       221.000         167.000
  -2274751.47949  -1748058.38746  22799940.840    22799940.642    22799950.755
       226.000         178.000
  -2193566.27049  -1694295.81747  21408927.434    21408927.623    21408938.604
       237.000         195.000
    480089.59249    368048.74847  22453114.438    22453113.776    22453123.989
       234.000         191.000
   -580168.08549   -444558.91947  21373899.262    21373899.176    21373907.579
       243.000         207.000
 00  5 23 15 31 30.0000000  0  6G16G 2G 5G24G 7G 9
  -1355564.86049  -1028738.77645  24610160.749    24610160.489    24610177.322
       204.000         155.000
    752816.30849    567373.65446  23479247.613    23479246.563    23479259.529
       220.000         168.000
  -2392753.90749  -1840008.33946  22777485.732    22777485.533    22777495.667
       227.000         179.000
  -2302254.59649  -1778987.96747  21388244.725    21388244.933    21388255.829
       236.000         196.000
    505288.87849    387684.43447  22457909.862    22457909.150    22457919.411
       233.000         191.000
   -603992.61549   -463123.54247  21369365.684    21369365.584    21369374.001
       242.000         207.000
 00  5 23 15 32  0.0000000  0  6G16G 2G 5G24G 7G 9
  -1417257.66649  -1076810.97945  24598420.716    24598420.663    24598437.645
       209.000         154.000
    792252.05649    598102.61346  23486752.248    23486751.141    23486764.112
       219.000         167.000
  -2510607.27649  -1931842.13646  22755059.050    22755058.812    22755068.905
       227.000         180.000
  -2410469.05849  -1863310.87747  21367652.223    21367652.396    21367663.227
       237.000         196.000
    530619.50449    407422.46147  22462730.178    22462729.493    22462739.800
       231.000         191.000
   -627202.60049   -481209.30347  21364949.014    21364948.926    21364957.369
       242.000         207.000
 00  5 23 15 32 30.0000000  0  6G16G 2G 5G24G 7G 9
  -1478447.45049  -1124491.22745  24586776.723    24586776.559    24586793.673
       210.000         153.000
    831981.39849    629060.31746  23494312.733    23494311.597    23494324.575
       221.000         167.000
  -2628319.79449  -2023566.17546  22732659.077    22732658.844    22732668.943
       226.000         181.000
  -2518217.53749  -1947270.68547  21347148.387    21347148.534    21347159.317
       237.000         197.000
    556070.89149    427254.58647  22467573.479    22467572.814    22467583.188
       233.000         192.000
   -649808.19249   -498824.10947  21360647.386    21360647.283    21360655.740
       243.000         207.000
 00  5 23 15 33  0.0000000  0  6G16G 2G 5G24G 7G 9
  -1539116.29449  -1171765.52645  24575231.714    24575231.508    24575248.673
       209.000         152.000
    872020.47649    660259.38346  23501932.136    23501930.993    23501943.975
       220.000         166.000
  -2745873.36649  -2115166.34946  22710289.398    22710289.155    22710299.243
       226.000         179.000
  -2625481.56449  -2030852.98247  21326736.728    21326736.873    21326747.621
       237.000         198.000
    581658.79649    447193.09647  22472442.858    22472442.142    22472452.578
       232.000         191.000
   -671793.77849   -515955.79347  21356463.742    21356463.629    21356472.101
       242.000         207.000
 00  5 23 15 33 30.0000000  0  6G16G 2G 5G24G 7G 9
  -1599313.01349  -1218671.94745  24563776.856    24563776.517    24563793.466
       211.000         154.000
    912317.45149    691659.42246  23509600.534    23509599.433    23509612.489
       219.000         168.000
  -2863317.49749  -2206681.25746  22687940.470    22687940.283    22687950.367
       224.000         177.000
  -2732310.39549  -2114096.18047  21306407.904    21306408.034    21306418.736
       237.000         198.000
    607331.11949    467197.37347  22477328.295    22477327.553    22477337.993
       233.000         191.000
   -693210.95949   -532644.56547  21352388.253    21352388.142    21352396.627
       243.000         207.000
 00  5 23 15 34  0.0000000  0  6G16G 2G 5G24G 7G 9
  -1659006.68349  -1265186.38645  24552417.259    24552417.200    24552434.338
       205.000         153.000
    952901.10249    723282.82146  23517323.439    23517322.405    23517335.537
       221.000         166.000
  -2980621.37249  -2298086.87246  22665618.233    22665618.099    22665628.140
       227.000         176.000
  -2838672.59049  -2196975.77247  21286167.836    21286167.961    21286178.658
       239.000         197.000
    633116.57949    487289.81347  22482235.237    22482234.498    22482244.889
       233.000         189.000
   -714030.98449   -548868.02047  21348426.380    21348426.278    21348434.780
       245.000         207.000
 00  5 23 15 34 30.0000000  0  6G16G 2G 5G24G 7G 9
  -1718182.05549  -1311296.95045  24541156.312    24541156.364    24541173.502
       212.000         150.000
    993784.56049    755139.84946  23525103.372    23525102.433    23525115.631
       216.000         164.000
  -3097769.96849  -2389371.50746  22643325.711    22643325.495    22643335.467
       227.000         179.000
  -2944552.93549  -2279479.88747  21266019.404    21266019.562    21266030.257
       237.000         198.000
    659028.02249    507480.43147  22487166.078    22487165.379    22487175.757
       231.000         190.000
   -734241.19949   -564616.30247  21344580.554    21344580.452    21344588.992
       242.000         207.000
 00  5 23 15 35  0.0000000  0  6G16G 2G 5G24G 7G 9
  -1776834.02349  -1356999.67145  24529995.542    24529995.349    24530012.409
       206.000         152.000
   1034970.22049    787232.35946  23532941.018    23532939.959    23532953.208
       215.000         164.000
  -3214758.43249  -2480531.33346  22621063.568    22621063.337    22621073.314
       226.000         179.000
  -3049946.07549  -2361604.36147  21245963.734    21245963.884    21245974.569
       238.000         199.000
    685067.82449    527771.07547  22492121.422    22492120.706    22492131.080
       231.000         189.000
   -753839.05449   -579887.41647  21340851.265    21340851.161    21340859.733
       242.000         207.000
 00  5 23 15 35 30.0000000  0  6G16G 2G 5G24G 7G 9
  -1834983.19549  -1402310.59545  24518930.159    24518929.845    24518946.798
       211.000         150.000
   1076435.27449    819542.53246  23540831.610    23540830.627    23540843.965
       220.000         163.000
  -3331607.28849  -2571582.39346  22598827.989    22598827.755    22598837.714
       229.000         179.000
  -3154872.58949  -2443365.23547  21225996.852    21225997.015    21226007.689
       239.000         199.000
    711212.94249    548143.76947  22497096.771    22497096.056    22497106.405
       233.000         188.000
   -772847.36049   -594699.14547  21337234.165    21337234.063    21337242.637
       243.000         207.000
 00  5 23 15 36  0.0000000  0  6G16G 2G 5G24G 7G 9
  -1892630.19949  -1447230.20945  24507960.106    24507959.901    24507976.923
       209.000         150.000
   1118176.89249    852068.24046  23548774.918    23548773.961    23548787.397
       220.000         163.000
  -3448317.42649  -2662525.35646  22576618.858    22576618.585    22576628.480
       227.000         180.000
  -3259332.97049  -2524762.87947  21206118.660    21206118.840    21206129.500
       238.000         199.000
    737460.20949    568596.07347  22502091.554    22502090.867    22502101.203
       231.000         189.000
   -791269.35849   -609054.00347  21333728.636    21333728.530    21333737.117
       243.000         207.000
 00  5 23 15 36 30.0000000  0  6G16G 2G 5G24G 7G 9
  -1949733.13549  -1491725.97945  24497093.604    24497093.515    24497110.208
       208.000         149.000
   1160234.81149    884840.41546  23556778.424    23556777.448    23556791.014
       218.000         164.000
  -3564846.93249  -2753327.56746  22554444.049    22554443.772    22554453.675
       227.000         182.000
  -3363285.12649  -2605764.52047  21186337.246    21186337.374    21186348.015
       238.000         200.000
    763849.33349    589158.90647  22507113.387    22507112.662    22507122.985
       231.000         189.000
   -809065.35149   -622921.07547  21330342.222    21330342.114    21330350.714
       242.000         206.000
 00  5 23 15 37  0.0000000  0  6G16G 2G 5G24G 7G 9
  -2006351.05749  -1535843.74945  24486319.442    24486319.347    24486336.112
       209.000         146.000
   1202547.59349    917811.16746  23564830.464    23564829.528    23564843.111
       220.000         164.000
  -3681255.19449  -2844035.29946  22532292.366    22532292.051    22532301.972
       229.000         184.000
  -3466788.22949  -2686416.23547  21166641.163    21166641.361    21166652.016
       238.000         200.000
    790318.72249    609784.28247  22512150.430    22512149.709    22512160.081
       230.000         188.000
   -826297.12149   -636348.49147  21327063.162    21327063.063    21327071.692
       242.000         206.000
 00  5 23 15 37 30.0000000  0  6G16G 2G 5G24G 7G 9
  -2062424.90649  -1579537.61945  24475648.962    24475648.773    24475665.437
       213.000         149.000
   1245172.15149    951024.87146  23572941.748    23572940.902    23572954.569
       217.000         163.000
  -3797483.01849  -2934602.42446  22510175.070    22510174.674    22510184.581
       229.000         184.000
  -3569782.67649  -2766671.59547  21147041.921    21147042.130    21147052.799
       238.000         200.000
    816925.02549    630516.34747  22517213.485    22517212.813    22517223.210
       230.000         188.000
   -842907.94549   -649292.05447  21323902.260    21323902.167    21323910.813
       242.000         206.000
 00  5 23 15 38  0.0000000  0  6G16G 2G 5G24G 7G 9
  -2117937.11649  -1622793.83145  24465085.398    24465085.127    24465101.729
       212.000         148.000
   1288123.93049    984493.55445  23581115.366    23581114.527    23581128.274
       217.000         161.000
  -3913512.83049  -3025015.26846  22488095.356    22488094.969    22488104.874
       227.000         183.000
  -3672250.67849  -2846516.74547  21127542.903    21127543.081    21127553.769
       238.000         200.000
    843683.72949    651367.15147  22522305.620    22522304.922    22522315.326
       230.000         188.000
   -858882.68949   -661739.97047  21320862.462    21320862.337    21320870.972
       242.000         206.000
 00  5 23 15 38 30.0000000  0  6G16G 2G 5G24G 7G 9
  -2172940.09649  -1665653.30845  24454618.551    24454618.384    24454634.980
       207.000         150.000
   1331347.84849   1018174.29345  23589340.824    23589339.957    23589353.729
       220.000         161.000
  -4029397.27449  -3115314.83246  22466043.271    22466042.889    22466052.838
       230.000         181.000
  -3774244.85949  -2925992.67947  21108134.039    21108134.222    21108144.889
       240.000         200.000
    870539.81349    672293.85547  22527416.277    22527415.573    22527426.019
       231.000         188.000
   -874276.31849   -673735.06747  21317933.228    21317933.091    21317941.732
       244.000         206.000
 00  5 23 15 39  0.0000000  0  6G16G 2G 5G24G 7G 9
  -2227443.65849  -1708123.62245  24444246.732    24444246.566    24444263.066
       212.000         150.000
   1374832.03349   1052057.83346  23597615.842    23597614.927    23597628.698
       220.000         163.000
  -4145145.64149  -3205508.35846  22444017.049    22444016.698    22444026.671
       228.000         181.000
  -3875774.75449  -3005106.82647  21088813.489    21088813.673    21088824.376
       238.000         200.000
    897481.30249    693287.10546  22532543.154    22532542.454    22532552.960
       231.000         187.000
   -889100.84749   -685286.70347  21315112.270    21315112.135    21315120.794
       242.000         206.000
 00  5 23 15 39 30.0000000  0  6G16G 2G 5G24G 7G 9
  -2281449.86649  -1750206.38145  24433969.705    24433969.488    24433986.056
       212.000         149.000
   1418572.07049   1086140.73545  23605939.469    23605938.537    23605952.387
       214.000         162.000
  -4260760.14849  -3295597.59646  22422016.343    22422016.006    22422025.953
       229.000         183.000
  -3976842.21749  -3083860.64547  21069580.998    21069581.160    21069591.840
       238.000         200.000
    924503.89049    714343.54047  22537685.477    22537684.788    22537695.321
       229.000         188.000
   -903360.79849   -696398.42347  21312398.715    21312398.590    21312407.285
       241.000         206.000
 00  5 23 15 40  0.0000000  0  6G16G 2G 5G24G 7G 9
  -2334935.66349  -1791883.69145  24423791.993    24423791.643    24423807.875
       212.000         149.000
   1462589.14249   1120439.49245  23614315.835    23614314.846    23614328.804
       215.000         161.000
  -4376217.40349  -3385564.29446  22400045.552    22400045.248    22400055.201
       229.000         184.000
  -4077423.80749  -3162235.86447  21050440.963    21050441.098    21050451.751
       238.000         201.000
    951628.62849    735479.57747  22542847.201    22542846.535    22542857.112
       231.000         188.000
   -917035.47549   -707054.08247  21309796.502    21309796.419    21309805.170
       241.000         206.000
 00  5 23 15 40 30.0000000  0  6G16G 2G 5G24G 7G 9
  -2387878.79549  -1833138.11945  24413717.073    24413716.846    24413733.210
       210.000         148.000
   1506902.92349   1154969.47345  23622748.650    23622747.680    23622761.701
       213.000         160.000
  -4491495.31749  -3475391.23746  22378108.902    22378108.604    22378118.595
       229.000         184.000
  -4177497.46749  -3240215.28947  21031397.567    21031397.706    21031408.340
       239.000         201.000
    978875.18649    756710.52947  22548032.171    22548031.496    22548042.120
       230.000         188.000
   -930105.83749   -717238.85147  21307309.284    21307309.234    21307318.062
       241.000         206.000
 00  5 23 15 41  0.0000000  0  6G16G 2G 5G24G 7G 9
  -2440345.48449  -1874021.29645  24403733.090    24403732.797    24403749.116
       215.000         150.000
   1551445.51249   1189677.73745  23631225.007    23631224.000    23631238.070
       217.000         160.000
  -4606659.77749  -3565129.76846  22356193.811    22356193.547    22356203.557
       229.000         183.000
  -4277128.87849  -3317850.10347  21012438.319    21012438.459    21012449.070
       238.000         201.000
   1006175.34149    777983.25547  22553227.293    22553226.641    22553237.325
       230.000         188.000
   -942639.86149   -727005.68547  21304924.191    21304924.123    21304933.001
       241.000         206.000
 00  5 23 15 41 30.0000000  0  6G16G 2G 5G24G 7G 9
  -2492297.23149  -1914503.19845  24393847.103    24393846.835    24393862.875
       213.000         144.000
   1596252.71449   1224592.20445  23639751.607    23639750.701    23639764.801
       214.000         161.000
  -4721672.59649  -3654750.15646  22334307.611    22334307.345    22334317.333
       231.000         182.000
  -4376279.85249  -3395110.55547  20993570.550    20993570.664    20993581.235
       240.000         201.000
   1033565.30649    799325.95246  22558439.468    22558438.882    22558449.608
       232.000         186.000
   -954602.00549   -736326.89747  21302647.921    21302647.866    21302656.757
       243.000         206.000
 00  5 23 15 42  0.0000000  0  6G16G 2G 5G24G 7G 9
  -2543671.47249  -1954535.10845  24384071.002    24384070.663    24384086.730
       213.000         149.000
   1641385.23449   1259760.13845  23648340.235    23648339.298    23648353.433
       213.000         161.000
  -4836470.50349  -3744203.08846  22312462.371    22312462.067    22312472.040
       230.000         184.000
  -4474887.41449  -3471947.57447  20974806.136    20974806.261    20974816.810
       239.000         201.000
   1061105.65149    820785.82347  22563680.437    22563679.749    22563690.496
       229.000         188.000
   -965932.05749   -745155.57347  21300491.952    21300491.873    21300500.800
       242.000         207.000
 00  5 23 15 42 30.0000000  0  6G16G 2G 5G24G 7G 9
  -2594567.01049  -1994194.03945  24374385.975    24374385.638    24374401.278
       211.000         147.000
   1686742.13649   1295102.94245  23656971.618    23656970.656    23656984.814
       215.000         161.000
  -4951152.06349  -3833565.33346  22290639.212    22290638.911    22290648.898
       230.000         183.000
  -4573049.92749  -3548437.79847  20956126.414    20956126.529    20956137.093
       240.000         202.000
   1088695.60249    842284.34746  22568930.706    22568930.024    22568940.844
       229.000         187.000
   -976731.08649   -753570.46247  21298437.071    21298436.967    21298445.868
       242.000         207.000
 00  5 23 15 43  0.0000000  0  6G16G 2G 5G24G 7G 9
  -2644962.98049  -2033463.60645  24364795.789    24364795.492    24364811.354
       211.000         150.000
   1732341.96649   1330635.03245  23665649.154    23665648.241    23665662.453
       214.000         162.000
  -5065696.06349  -3922820.40146  22268842.239    22268841.955    22268851.885
       230.000         184.000
  -4670746.53049  -3624564.97247  20937535.319    20937535.452    20937546.023
       239.000         201.000
   1116353.82149    863836.07446  22574193.952    22574193.325    22574204.143
       230.000         186.000
   -986980.70849   -761557.24347  21296486.738    21296486.612    21296495.487
       242.000         207.000
 00  5 23 15 43 30.0000000  0  6G16G 2G 5G24G 7G 9
  -2694836.55749  -2072326.12745  24355305.126    24355304.935    24355320.800
       211.000         150.000
   1778205.10849   1366372.25645  23674376.760    23674375.840    23674390.193
       212.000         159.000
  -5180079.48649  -4011950.33346  22247075.849    22247075.515    22247085.409
       229.000         182.000
  -4767954.40049  -3700311.31847  20919037.161    20919037.355    20919047.935
       239.000         202.000
   1144100.82049    885456.97746  22579474.199    22579473.527    22579484.324
       230.000         187.000
   -996661.06749   -769100.43947  21294644.692    21294644.567    21294653.463
       242.000         207.000
 00  5 23 15 44  0.0000000  0  6G16G 2G 5G24G 7G 9
  -2744180.52949  -2110775.92145  24345915.415    24345915.099    24345931.042
       214.000         154.000
   1824337.04349   1402318.94645  23683155.696    23683154.645    23683169.028
       215.000         160.000
  -5294294.80849  -4100949.26946  22225341.323    22225341.039    22225350.899
       230.000         183.000
  -4864665.93449  -3775670.90947  20900633.560    20900633.734    20900644.292
       239.000         202.000
   1171942.18549    907151.41446  22584772.312    22584771.666    22584782.522
       230.000         187.000
  -1005766.96249   -776196.00447  21292911.945    21292911.821    21292920.753
       242.000         207.000
 00  5 23 15 44 30.0000000  0  6G16G 2G 5G24G 7G 9
  -2793014.13649  -2148828.04545  24336622.703    24336622.353    24336638.252
       215.000         148.000
   1870716.61649   1438458.61545  23691981.675    23691980.595    23691995.058
       218.000         161.000
  -5408360.66949  -4189831.76546  22203635.306    22203635.033    22203644.843
       232.000         183.000
  -4960900.06049  -3850658.49647  20882320.810    20882320.951    20882331.493
       241.000         202.000
   1199856.79049    928902.91846  22590084.453    22590083.751    22590094.675
       231.000         186.000
  -1014320.14749   -782860.88947  21291284.391    21291284.271    21291293.202
       244.000         207.000
 00  5 23 15 45  0.0000000  0  6G16G 2G 5G24G 7G 9
  -2841300.44649  -2186453.70245  24327434.106    24327433.827    24327449.606
       212.000         147.000
   1917378.16449   1474817.99445  23700861.317    23700860.215    23700874.716
       217.000         161.000
  -5522240.10749  -4278568.99046  22181964.725    22181964.494    22181974.273
       229.000         183.000
  -5056619.71449  -3925245.19947  20864105.951    20864106.092    20864116.603
       240.000         202.000
   1227879.43049    950738.60546  22595417.126    22595416.380    22595427.372
       229.000         186.000
  -1022286.14449   -789068.22247  21289768.597    21289768.453    21289777.406
       242.000         208.000
 00  5 23 15 45 30.0000000  0  6G16G 2G 5G24G 7G 9
  -2889046.82249  -2223658.56645  24318347.967    24318347.868    24318363.921
       214.000         147.000
   1964312.77949   1511390.15845  23709792.895    23709791.789    23709806.372
       211.000         158.000
  -5635939.78349  -4367166.13046  22160328.319    22160328.129    22160337.937
       229.000         183.000
  -5151831.90549  -3999436.47547  20845987.645    20845987.781    20845998.286
       240.000         202.000
   1256001.05449    972651.41846  22600768.460    22600767.811    22600778.892
       228.000         186.000
  -1029674.65049   -794825.56147  21288362.653    21288362.528    21288371.499
       242.000         208.000
 00  5 23 15 46  0.0000000  0  6G16G 2G 5G24G 7G 9
  -2936259.50049  -2260447.61745  24309363.861    24309363.678    24309379.455
       212.000         146.000
   2011511.98049   1548168.46845  23718774.925    23718773.726    23718788.427
       218.000         160.000
  -5749465.60949  -4455627.82146  22138725.122    22138724.884    22138734.637
       231.000         184.000
  -5246542.79049  -4073237.12247  20827964.784    20827964.872    20827975.349
       241.000         202.000
   1284213.46349    994634.95746  22606137.172    22606136.539    22606147.702
       230.000         185.000
  -1036494.66949   -800139.92947  21287064.868    21287064.765    21287073.773
       243.000         208.000
 00  5 23 15 46 30.0000000  0  6G16G 2G 5G24G 7G 9
  -2982940.89949  -2296822.65645  24300480.554    24300480.324    24300496.342
       213.000         148.000
   2058971.09849   1585149.33545  23727806.347    23727805.159    23727819.919
       216.000         161.000
  -5862819.58049  -4543955.57746  22117154.541    22117154.330    22117164.124
       229.000         185.000
  -5340754.72949  -4146648.98347  20810036.783    20810036.925    20810047.359
       240.000         202.000
   1312512.13849   1016685.74046  22611522.331    22611521.701    22611532.902
       229.000         186.000
  -1042751.23749   -805015.23547  21285874.351    21285874.247    21285883.287
       244.000         208.000
 00  5 23 15 47  0.0000000  0  6G16G 2G 5G24G 7G 9
  -3029061.99749  -2332761.11445  24291703.981    24291703.697    24291719.761
       215.000         150.000
   2106717.23749   1622353.85245  23736892.306    23736891.138    23736905.942
       217.000         159.000
  -5975972.14149  -4632126.38246  22095622.232    22095622.091    22095631.943
       228.000         183.000
  -5434438.40649  -4219649.20547  20792209.341    20792209.479    20792219.916
       239.000         201.000
   1340924.37749   1038825.00746  22616929.063    22616928.475    22616939.695
       228.000         184.000
  -1048417.79949   -809430.79747  21284796.132    21284795.995    21284805.047
       243.000         208.000
 00  5 23 15 47 30.0000000  0  6G16G 2G 5G24G 7G 9
  -3074657.98849  -2368290.38745  24283027.175    24283027.087    24283043.092
       212.000         148.000
   2154713.62549   1659753.37045  23746025.918    23746024.778    23746039.601
       215.000         160.000
  -6088957.76449  -4720167.11546  22074121.772    22074121.620    22074131.470
       229.000         184.000
  -5527628.36149  -4292264.72047  20774475.859    20774476.000    20774486.427
       239.000         202.000
   1369413.50849   1061024.19246  22622350.547    22622349.873    22622361.107
       229.000         184.000
  -1053531.41949   -813415.50047  21283823.084    21283822.965    21283832.033
       242.000         208.000
 00  5 23 15 47 59.9990000  0  6G16G 2G 5G24G 7G 9
  -3119745.38549  -2403423.32045  24274447.327    24274447.211    24274463.212
       215.000         152.000
   2202938.23949   1697330.69845  23755202.876    23755201.795    23755216.662
       211.000         159.000
  -6201790.27649  -4808088.53846  22052650.506    22052650.316    22052660.142
       231.000         185.000
  -5620339.71149  -4364507.28647  20756833.457    20756833.592    20756844.034
       238.000         202.000
   1397958.61849   1083267.00046  22627782.754    22627781.979    22627793.205
       229.000         185.000
  -1058112.93549   -816985.57647  21282951.332    21282951.200    21282960.282
       242.000         208.000
 00  5 23 15 48 29.9990000  0  6G16G 2G 5G24G 7G 9
  -3164340.98349  -2438173.01945  24265961.189    24265960.945    24265977.164
       215.000         149.000
   2251378.40749   1735075.99245  23764420.875    23764419.869    23764434.808
       213.000         161.000
  -6314490.17849  -4895906.65246  22031204.471    22031204.260    22031214.061
       233.000         185.000
  -5712591.78449  -4436391.98947  20739278.468    20739278.580    20739289.031
       241.000         202.000
   1426546.10649   1105542.82046  22633222.873    22633222.121    22633233.340
       229.000         183.000
  -1062178.34849   -820153.49847  21282177.758    21282177.633    21282186.723
       244.000         207.000
 00  5 23 15 48 59.9990000  0  6G16G 2G 5G24G 7G 9
  -3208409.82849  -2472512.31045  24257575.143    24257574.896    24257591.020
       217.000         149.000
   2300063.91849   1773012.43145  23773685.614    23773684.633    23773699.608
       212.000         161.000
  -6427019.81849  -4983592.09446  22009790.816    22009790.595    22009800.359
       232.000         185.000
  -5804348.15049  -4507890.41747  20721817.772    20721817.895    20721828.330
       239.000         202.000
   1455206.78749   1127875.67746  22638676.874    22638676.158    22638687.446
       229.000         183.000
  -1065697.11949   -822895.46147  21281508.159    21281508.073    21281517.160
       242.000         207.000
 00  5 23 15 49 29.9990000  0  6G16G 2G 5G24G 7G 9
  -3251979.45249  -2506462.56145  24249284.201    24249283.931    24249300.150
       215.000         147.000
   2348965.49749   1811117.23545  23782991.398    23782990.526    23783005.571
       212.000         159.000
  -6539406.03049  -5071165.76846  21988404.464    21988404.227    21988413.990
       233.000         186.000
  -5895636.08949  -4579023.84847  20704446.180    20704446.327    20704456.762
       241.000         202.000
   1483911.40249   1150242.75946  22644139.308    22644138.576    22644149.920
       231.000         184.000
  -1068699.35649   -825234.93647  21280936.901    21280936.807    21280945.907
       244.000         207.000
 00  5 23 15 49 59.9990000  0  6G16G 2G 5G24G 7G 9
  -3294986.90749  -2539974.81545  24241099.953    24241099.781    24241115.904
       216.000         150.000
   2398144.38649   1849438.11645  23792349.906    23792349.151    23792364.312
       206.000         156.000
  -6651585.12749  -5158578.03147  21967057.487    21967057.278    21967067.068
       232.000         188.000
  -5986392.13549  -4649742.80047  20687175.819    20687175.985    20687186.430
       239.000         202.000
   1512721.31349   1172691.91946  22649621.795    22649621.028    22649632.412
       228.000         184.000
  -1071124.39649   -827124.63847  21280475.479    21280475.401    21280484.496
       243.000         208.000
 00  5 23 15 50 29.9990000  0  6G16G 2G 5G24G 7G 9
  -3337453.48649  -2573065.57945  24233018.684    24233018.581    24233034.769
       213.000         146.000
   2447577.06049   1887956.75045  23801756.774    23801756.109    23801771.326
       213.000         158.000
  -6763577.65249  -5245844.93246  21945746.003    21945745.810    21945755.648
       232.000         187.000
  -6076637.51949  -4720063.84947  20670002.600    20670002.812    20670013.285
       238.000         201.000
   1541613.65449   1195205.28246  22655119.849    22655119.133    22655130.557
       227.000         181.000
  -1072995.63649   -828582.81747  21280119.477    21280119.375    21280128.494
       243.000         208.000
 00  5 23 15 50 59.9990000  0  6G16G 2G 5G24G 7G 9
  -3379394.73349  -2605747.03445  24225037.600    24225037.434    24225053.552
       212.000         147.000
   2497245.84549   1926659.40045  23811208.885    23811208.038    23811223.199
       217.000         158.000
  -6875398.34949  -5332977.94546  21924467.286    21924467.072    21924476.883
       234.000         187.000
  -6166387.51949  -4789998.88147  20652923.685    20652923.909    20652934.413
       239.000         201.000
   1570571.16249   1217769.43746  22660630.369    22660629.669    22660641.139
       227.000         181.000
  -1074331.49449   -829623.81247  21279865.372    21279865.252    21279874.389
       244.000         207.000
 00  5 23 15 51 29.9990000  0  6G16G 2G 5G24G 7G 9
  -3420777.91849  -2637993.61245  24217162.496    24217162.287    24217178.609
       215.000         150.000
   2547181.81949   1965570.24045  23820711.818    23820710.829    23820725.939
       217.000         160.000
  -6987013.76349  -5419950.97947  21903227.642    21903227.412    21903237.185
       235.000         188.000
  -6255609.07649  -4859522.13547  20635945.393    20635945.582    20635956.076
       239.000         201.000
   1599625.11749   1240408.74346  22666159.248    22666158.565    22666170.046
       229.000         182.000
  -1075101.64749   -830223.99447  21279718.891    21279718.766    21279727.906
       245.000         208.000
 00  5 23 15 51 59.9990000  0  6G16G 2G 5G24G 7G 9
  -3461640.29149  -2669834.39445  24209386.252    24209386.228    24209402.758
       212.000         148.000
   2597345.95849   2004658.88345  23830258.195    23830257.081    23830272.139
       215.000         159.000
  -7098460.30249  -5506792.44047  21882020.145    21882019.886    21882029.593
       234.000         188.000
  -6344339.20749  -4928662.46047  20619060.501    20619060.738    20619071.249
       237.000         201.000
   1628736.85649   1263093.07746  22671699.098    22671698.444    22671709.935
       227.000         181.000
  -1075345.67449   -830414.20747  21279672.522    21279672.397    21279681.561
       243.000         207.000
 00  5 23 15 52 29.9990000  0  7G16G 2G30G 5G24G 7G 9
  -3501966.50049  -2701257.39145  24201712.697    24201712.456    24201728.762
       214.000         148.000
   2647751.70649   2043935.76445  23839850.252    23839849.208    23839864.296
       212.000         152.000
   -337678.37759   -237445.70655  24999922.549    24999923.372    24999936.831
       208.000         136.000
  -7209721.65249  -5593489.60146  21860847.885    21860847.594    21860857.196
       233.000         187.000
  -6432561.93049  -4997407.40447  20602272.279    20602272.494    20602282.968
       238.000         202.000
   1657920.33749   1285833.31746  22677252.612    22677251.968    22677263.461
       227.000         181.000
  -1075050.62449   -830184.36247  21279728.716    21279728.604    21279737.784
       242.000         207.000
 00  5 23 15 52 59.9990000  0  7G16G 2G30G 5G24G 7G 9
  -3541782.04949  -2732282.49845  24194136.069    24194135.798    24194151.934
       213.000         146.000
   2698371.59149   2083379.50145  23849483.145    23849482.069    23849497.198
       210.000         153.000
   -472522.32449   -342518.94045  24974262.694    24974263.583    24974274.312
       210.000         140.000
  -7320822.72149  -5680061.86246  21839706.062    21839705.766    21839715.323
       232.000         187.000
  -6520302.71249  -5065776.80747  20585575.729    20585575.948    20585586.400
       238.000         202.000
   1687148.38849   1308608.28946  22682814.747    22682814.027    22682825.530
       228.000         181.000
  -1074244.44349   -829556.23947  21279882.167    21279882.059    21279891.276
       243.000         207.000
 00  5 23 15 53 29.9990000  0  7G16G 2G30G 5G24G 7G 9
  -3581039.51149  -2762872.74845  24186665.897    24186665.464    24186681.341
       214.000         149.000
   2749251.16149   2123025.63345  23859165.497    23859164.417    23859179.526
       211.000         152.000
   -607375.96559   -447599.70055  24948601.051    24948602.099    24948613.192
       211.000         143.000
  -7431714.92049  -5766471.36546  21818603.927    21818603.675    21818613.243
       232.000         187.000
  -6607513.91149  -5133733.55247  20568980.002    20568980.206    20568990.632
       238.000         202.000
   1716467.14949   1331453.94246  22688394.040    22688393.315    22688404.845
       227.000         181.000
  -1072882.27849   -828494.87647  21280141.437    21280141.329    21280150.549
       242.000         207.000
 00  5 23 15 53 59.9990000  0  7G16G 2G30G 5G24G 7G 9
  -3619789.34549  -2793067.42745  24179291.989    24179291.565    24179307.568
       214.000         149.000
   2800338.22549   2162833.36445  23868887.166    23868886.154    23868901.488
       209.000         150.000
   -742289.71249   -552727.29745  24922928.035    24922928.716    24922940.118
       213.000         145.000
  -7542447.83649  -5852756.74747  21797532.178    21797531.921    21797541.452
       234.000         188.000
  -6694245.84349  -5201316.84047  20552475.521    20552475.661    20552486.034
       238.000         202.000
   1745824.62749   1354329.76346  22693980.675    22693979.969    22693991.526
       227.000         181.000
  -1071017.03949   -827041.50747  21280496.421    21280496.324    21280505.556
       242.000         207.000
 00  5 23 15 54 29.9990000  0  7G16G 2G30G 5G24G 7G 9
  -3657955.88649  -2822807.63145  24172029.217    24172028.760    24172044.783
       210.000         147.000
   2851706.69049   2202860.40245  23878662.598    23878661.502    23878676.953
       208.000         152.000
   -877187.20849   -657842.22945  24897257.994    24897258.752    24897269.933
       212.000         148.000
  -7652944.88149  -5938858.33447  21776505.269    21776505.026    21776514.560
       233.000         188.000
  -6780422.16249  -5268467.18547  20536076.698    20536076.843    20536087.179
       238.000         202.000
   1775295.33949   1377293.81046  22699588.914    22699588.199    22699599.759
       227.000         182.000
  -1068575.09449   -825138.75947  21280961.177    21280961.066    21280970.295
       243.000         207.000
 00  5 23 15 54 59.9990000  0  7G16G 2G30G 5G24G 7G 9
  -3695569.98849  -2852117.36245  24164871.442    24164870.967    24164886.864
       214.000         148.000
   2903323.58049   2243081.00145  23888485.253    23888484.106    23888499.725
       211.000         155.000
  -1012099.15949   -762968.41845  24871585.139    24871585.823    24871597.127
       213.000         149.000
  -7763236.05149  -6024799.49946  21755517.542    21755517.295    21755526.821
       234.000         187.000
  -6866073.73249  -5335208.63647  20519777.736    20519777.880    20519788.182
       238.000         201.000
   1804846.68749   1400320.70146  22705212.541    22705211.760    22705223.326
       227.000         180.000
  -1065590.49449   -822813.16147  21281529.190    21281529.085    21281538.297
       242.000         206.000
 00  5 23 15 55 29.9990000  0  7G16G 2G30G 5G24G 7G 9
  -3732651.84249  -2881012.41145  24157814.986    24157814.477    24157830.192
       212.000         146.000
   2955167.00749   2283478.12945  23898350.783    23898349.805    23898365.546
       208.000         152.000
  -1147045.35949   -868121.29645  24845905.692    24845906.256    24845917.760
       215.000         151.000
  -7873340.51249  -6110595.18446  21734565.400    21734565.133    21734574.590
       236.000         187.000
  -6951220.44949  -5401556.69647  20503574.856    20503574.990    20503585.261
       239.000         201.000
   1834457.51849   1423393.93046  22710847.328    22710846.609    22710858.227
       228.000         179.000
  -1062085.76649   -820082.27347  21282196.174    21282196.059    21282205.291
       243.000         205.000
 00  5 23 15 55 59.9990000  0  7G16G 2G30G 5G24G 7G 9
  -3769195.17749  -2909487.79245  24150860.748    24150860.471    24150876.159
       215.000         149.000
   3007241.61749   2324055.41345  23908260.501    23908259.537    23908275.335
       211.000         153.000
  -1282019.11749   -973295.65345  24820221.060    24820221.642    24820233.219
       214.000         154.000
  -7983250.61349  -6196239.40947  21713650.183    21713649.937    21713659.380
       233.000         190.000
  -7035855.34149  -5467505.92747  20487469.333    20487469.478    20487479.751
       237.000         201.000
   1864132.78749   1446517.37946  22716494.512    22716493.786    22716505.383
       227.000         181.000
  -1058056.51849   -816942.65947  21282962.940    21282962.835    21282972.103
       241.000         206.000
 00  5 23 15 56 29.9990000  0  7G16G 2G30G 5G24G 7G 9
  -3805192.07349  -2937537.41745  24144010.995    24144010.627    24144026.236
       212.000         146.000
   3059553.33849   2364817.44445  23918215.296    23918214.352    23918230.234
       206.000         153.000
  -1417011.99449  -1078484.89545  24794532.794    24794533.380    24794544.940
       215.000         155.000
  -8092957.73649  -6281725.47847  21692773.585    21692773.360    21692782.829
       234.000         189.000
  -7119970.71149  -5533050.33947  20471462.615    20471462.790    20471473.085
       236.000         200.000
   1893879.11649   1469696.19246  22722155.272    22722154.467    22722166.057
       227.000         180.000
  -1053497.67349   -813390.38647  21283830.520    21283830.401    21283839.708
       242.000         206.000
 00  5 23 15 56 59.9990000  0  7G16G 2G30G 5G24G 7G 9
  -3840684.59749  -2965194.01945  24137256.966    24137256.604    24137272.242
       213.000         147.000
   3112058.22749   2405729.99145  23928206.923    23928205.931    23928221.906
       210.000         154.000
  -1552065.84549  -1183721.65745  24768832.930    24768833.476    24768845.070
       214.000         157.000
  -8202502.81249  -6367085.25947  21671927.829    21671927.641    21671937.130
       235.000         192.000
  -7203608.44049  -5598222.55947  20455546.887    20455547.040    20455557.322
       238.000         202.000
   1923652.90449   1492896.41046  22727821.106    22727820.347    22727831.978
       227.000         180.000
  -1048454.01649   -809460.32847  21284790.392    21284790.259    21284799.575
       242.000         207.000
 00  5 23 15 57 29.9990000  0  7G16G 2G30G 5G24G 7G 9
  -3875589.38749  -2992392.64645  24130615.035    24130614.503    24130630.093
       213.000         146.000
   3164838.57449   2446857.17045  23938250.935    23938249.924    23938266.028
       211.000         156.000
  -1687096.09149  -1288940.02445  24743137.611    24743138.104    24743149.708
       214.000         156.000
  -8311800.63749  -6452252.39047  21651129.157    21651128.969    21651138.496
       234.000         192.000
  -7286684.03749  -5662956.75947  20439738.146    20439738.270    20439748.526
       237.000         202.000
   1953537.05449   1516182.61646  22733507.991    22733507.194    22733518.941
       226.000         180.000
  -1042843.68649   -805088.71547  21285858.016    21285857.909    21285867.256
       241.000         206.000
 00  5 23 15 57 59.9990000  0  7G16G 2G30G 5G24G 7G 9
  -3909940.13649  -3019159.56845  24124078.628    24124077.901    24124093.159
       210.000         146.000
   3217858.57949   2488171.10045  23948340.618    23948339.576    23948355.768
       213.000         157.000
  -1822136.19149  -1394166.07245  24717440.396    24717440.834    24717452.475
       213.000         156.000
  -8420884.35449  -6537252.67947  21630371.224    21630371.019    21630380.581
       234.000         192.000
  -7369231.32749  -5727279.28647  20424029.933    20424030.036    20424040.273
       238.000         202.000
   1983496.36449   1539527.39146  22739209.321    22739208.447    22739220.177
       227.000         180.000
  -1036703.41149   -800304.15347  21287026.525    21287026.418    21287035.785
       241.000         206.000
 00  5 23 15 58 29.9990000  0  7G16G 2G30G 5G24G 7G 9
  -3943763.58149  -3045515.62045  24117642.108    24117641.511    24117656.719
       207.000         148.000
   3271089.93249   2529649.70945  23958470.673    23958469.440    23958485.750
       213.000         159.000
  -1957212.20949  -1499420.10345  24691736.293    24691736.700    24691748.414
       213.000         157.000
  -8529779.49449  -6622106.03747  21609649.090    21609648.953    21609658.524
       234.000         191.000
  -7451276.71849  -5791210.73047  20408417.251    20408417.327    20408427.522
       238.000         202.000
   2013502.93249   1562908.98746  22744919.414    22744918.631    22744930.384
       227.000         179.000
  -1030062.20249   -795129.26047  21288290.380    21288290.251    21288299.634
       242.000         207.000
 00  5 23 15 58 59.9990000  0  7G16G 2G30G 5G24G 7G 9
  -3977032.64949  -3071439.65545  24111311.072    24111310.563    24111325.789
       210.000         148.000
   3324557.63449   2571312.48645  23968645.788    23968644.350    23968660.669
       215.000         159.000
  -2092296.47649  -1604680.57445  24666030.672    24666031.034    24666042.722
       214.000         157.000
  -8638457.76149  -6706790.38447  21588968.207    21588968.120    21588977.740
       233.000         192.000
  -7532792.88549  -5854729.78647  20392905.213    20392905.284    20392915.472
       237.000         202.000
   2043582.69949   1586347.64346  22750643.482    22750642.729    22750654.447
       225.000         178.000
  -1022895.48749   -789544.87447  21289654.238    21289654.099    21289663.496
       242.000         207.000
 00  5 23 15 59 29.9990000  0  7G16G 2G30G 5G24G 7G 9
  -4009780.96349  -3096957.89245  24105079.366    24105078.824    24105094.152
       212.000         149.000
   3378226.64349   2613132.11445  23978859.067    23978857.512    23978873.943
       214.000         156.000
  -2227422.16849  -1709973.33345  24640317.192    24640317.518    24640329.185
       214.000         157.000
  -8746951.43849  -6791330.89847  21568322.552    21568322.453    21568332.106
       233.000         192.000
  -7613813.16549  -5917862.43647  20377487.547    20377487.643    20377497.803
       237.000         202.000
   2073701.15049   1609816.40946  22756374.976    22756374.204    22756385.949
       226.000         178.000
  -1015239.37749   -783579.13947  21291111.226    21291111.070    21291120.495
       242.000         206.000
 00  5 23 15 59 59.9990000  0  7G16G 2G30G 5G24G 7G 9
  -4041944.25349  -3122020.25845  24098959.189    24098958.524    24098973.877
       213.000         151.000
   3432159.38449   2655157.23445  23989122.383    23989120.847    23989137.351
       212.000         156.000
  -2362524.13249  -1815247.58845  24614608.216    24614608.533    24614620.131
       215.000         157.000
  -8855194.81049  -6875676.37747  21547724.513    21547724.406    21547734.078
       233.000         192.000
  -7694272.89849  -5980558.30147  20362176.572    20362176.653    20362186.795
       238.000         202.000
   2103921.18649   1633364.34746  22762125.727    22762124.970    22762136.771
       225.000         176.000
  -1007031.83749   -777183.72047  21292673.124    21292672.977    21292682.385
       242.000         206.000
 00  5 23 16  0 29.9990000  0  7G16G 2G30G 5G24G 7G 9
  -4073573.19249  -3146666.21945  24092940.430    24092939.786    24092955.257
       214.000         154.000
   3486303.63749   2697347.18045  23999425.762    23999424.380    23999440.922
       209.000         153.000
  -2497652.13249  -1920542.13045  24588894.172    24588894.552    24588906.169
       215.000         155.000
  -8963237.11749  -6959865.17147  21527164.738    21527164.622    21527174.338
       236.000         193.000
  -7774222.20449  -6042856.42647  20346962.731    20346962.802    20346972.922
       239.000         203.000
   2134191.55449   1656951.50346  22767886.011    22767885.301    22767897.117
       227.000         177.000
   -998325.87749   -770399.91747  21294329.843    21294329.709    21294339.106
       243.000         205.000
 00  5 23 16  0 59.9990000  0  7G16G 2G30G 5G24G 7G 9
  -4104657.00349  -3170887.39345  24087025.185    24087024.696    24087040.290
       213.000         151.000
   3540668.61349   2739709.09845  24009771.270    24009769.937    24009786.472
       209.000         152.000
  -2632794.46849  -2025847.84545  24563177.327    24563177.838    24563189.446
       214.000         151.000
  -9071066.33649  -7043887.93347  21506645.561    21506645.415    21506655.143
       235.000         192.000
  -7853650.23749  -6104748.37247  20331848.100    20331848.154    20331858.245
       239.000         202.000
   2164521.95049   1680585.41246  22773657.849    22773657.111    22773668.907
       225.000         174.000
   -989113.19849   -763221.28847  21296082.957    21296082.855    21296092.258
       242.000         205.000
 00  5 23 16  1 29.9990000  0  7G16G 2G30G 5G24G 7G 9
  -4135192.58349  -3194681.32845  24081214.554    24081214.007    24081229.682
       209.000         151.000
   3595255.74049   2782244.10645  24020158.877    24020157.702    24020174.318
       207.000         150.000
  -2767947.54949  -2131161.94945  24537458.541    24537459.035    24537470.639
       212.000         149.000
  -9178678.32149  -7127741.39947  21486167.691    21486167.499    21486177.283
       234.000         193.000
  -7932553.54349  -6166231.42447  20316833.260    20316833.331    20316843.440
       236.000         202.000
   2194914.38649   1704267.68546  22779441.429    22779440.711    22779452.595
       224.000         177.000
   -979393.26749   -755647.37847  21297932.680    21297932.554    21297941.964
       242.000         206.000
 00  5 23 16  1 59.9990000  0  7G16G 2G30G 5G24G 7G 9
  -4165197.19649  -3218061.49745  24075505.058    24075504.411    24075520.172
       213.000         151.000
   3650046.12449   2824937.52045  24030585.357    24030584.203    24030600.908
       207.000         149.000
  -2903127.89049  -2236497.28345  24511734.579    24511735.082    24511746.690
       213.000         145.000
  -9286088.87349  -7211437.92547  21465728.077    21465727.924    21465737.732
       234.000         192.000
  -8010948.97149  -6227318.75247  20301915.086    20301915.167    20301925.275
       239.000         202.000
   2225350.70549   1727984.13146  22785233.286    22785232.645    22785244.620
       225.000         176.000
   -969185.57849   -747693.41247  21299875.221    21299875.085    21299884.501
       244.000         205.000
 00  5 23 16  2 29.9990000  0  7G16G 2G30G 5G24G 7G 9
  -4194641.94849  -3241005.42245  24069902.103    24069901.401    24069917.138
       212.000         151.000
   3705067.05649   2867810.57245  24041055.927    24041054.606    24041071.325
       206.000         145.000
  -3038305.82649  -2341830.76745  24486011.044    24486011.587    24486023.097
       213.000         144.000
  -9393267.77549  -7294953.92947  21445332.580    21445332.438    21445342.245
       234.000         191.000
  -8088807.45349  -6287987.65647  20287099.072    20287099.163    20287109.295
       237.000         202.000
   2255858.86449   1751756.57546  22791038.865    22791038.256    22791050.280
       225.000         175.000
   -958463.68149   -739338.75247  21301915.587    21301915.450    21301924.912
       241.000         205.000
 00  5 23 16  2 59.9990000  0  7G16G 2G30G 5G24G 7G 9
  -4223533.04349  -3263517.92645  24064404.102    24064403.592    24064419.349
       208.000         147.000
   3760311.18949   2910857.53545  24051569.085    24051567.528    24051584.125
       208.000         142.000
  -3173485.98949  -2447165.97445  24460287.154    24460287.614    24460298.982
       212.000         143.000
  -9500219.19849  -7378292.68047  21424980.347    21424980.230    21424990.031
       232.000         192.000
  -8166134.21349  -6348242.24147  20272384.278    20272384.350    20272394.471
       237.000         203.000
   2286432.26449   1775579.84946  22796856.993    22796856.312    22796868.366
       225.000         176.000
   -947235.85349   -730589.86647  21304052.207    21304052.085    21304061.577
       241.000         205.000
 00  5 23 16  3 29.9990000  0  7G16G 2G30G 5G24G 7G 9
  -4251876.14749  -3285603.38945  24059010.852    24059010.214    24059025.883
       213.000         151.000
   3815770.97149   2954072.53845  24062123.300    24062121.491    24062138.153
       208.000         142.000
  -3308673.51249  -2552506.92245  24434561.864    24434562.363    24434573.581
       213.000         139.000
  -9606947.58649  -7461457.65447  21404670.635    21404670.492    21404680.235
       233.000         192.000
  -8242935.03849  -6408087.00847  20257769.565    20257769.633    20257779.731
       236.000         203.000
   2317064.09249   1799448.64846  22802686.130    22802685.458    22802697.582
       225.000         176.000
   -935510.53349   -721453.33247  21306283.503    21306283.384    21306292.891
       242.000         205.000
 00  5 23 16  3 59.9990000  0  7G16G 2G30G 5G24G 7G 9
  -4279681.50449  -3307269.79545  24053719.889    24053719.110    24053734.751
       214.000         152.000
   3871434.54649   2997446.34945  24072716.067    24072714.290    24072730.949
       204.000         137.000
  -3443877.76349  -2657860.90345  24408833.342    24408833.887    24408844.996
       211.000         141.000
  -9713461.70349  -7544455.65647  21384401.722    21384401.538    21384411.250
       234.000         193.000
  -8319219.92849  -6467529.74747  20243253.040    20243253.104    20243263.169
       237.000         202.000
   2347743.25849   1823354.33946  22808524.309    22808523.633    22808535.795
       226.000         174.000
   -923300.05149   -711938.75247  21308607.144    21308607.020    21308616.537
       241.000         205.000
 00  5 23 16  4 29.9990000  0  7G16G 2G30G 5G24G 7G 9
  -4306932.75049  -3328504.46145  24048533.777    24048533.175    24048549.097
       209.000         150.000
   3927317.07749   3040990.75045  24083350.503    24083348.717    24083365.407
       203.000         140.000
  -3579080.73649  -2763213.87545  24383105.107    24383105.635    24383116.650
       212.000         143.000
  -9819743.39849  -7627272.55247  21364177.068    21364176.837    21364186.544
       235.000         195.000
  -8394971.89649  -6526557.22147  20228837.899    20228837.975    20228848.021
       237.000         203.000
   2378485.66249   1847309.30246  22814374.572    22814373.840    22814385.993
       225.000         176.000
   -910590.18049   -702035.03647  21311025.822    21311025.683    21311035.200
       241.000         204.000
 00  5 23 16  4 59.9990000  0  7G16G 2G30G 5G24G 7G 9
  -4333638.01949  -3349313.65445  24043451.531    24043451.125    24043467.409
       211.000         151.000
   3983408.70249   3084698.06745  24094024.658    24094022.807    24094039.737
       206.000         141.000
  -3714290.09849  -2868571.82945  24357375.721    24357376.159    24357387.168
       214.000         145.000
  -9925799.35949  -7709913.54747  21343995.303    21343995.056    21344004.757
       234.000         194.000
  -8470198.82049  -6585175.57047  20214522.693    20214522.758    20214532.786
       236.000         203.000
   2409282.32449   1871306.53646  22820235.075    22820234.386    22820246.568
       225.000         175.000
   -897391.62949   -691750.52447  21313537.461    21313537.322    21313546.848
       241.000         204.000
 00  5 23 16  5 29.9990000  0  7G16G 2G30G 5G24G 7G 9
  -4359820.23749  -3369715.29545  24038469.092    24038468.753    24038485.156
       209.000         151.000
   4039685.01349   3128549.32245  24104734.163    24104732.219    24104749.106
       208.000         143.000
  -3849527.82249  -2973951.88845  24331640.851    24331641.293    24331652.210
       215.000         148.000
 -10031651.13449  -7792395.43247  21323852.329    21323852.097    21323861.833
       233.000         195.000
  -8544923.18249  -6643402.31647  20200303.050    20200303.171    20200313.193
       236.000         203.000
   2440109.59749   1895327.62346  22826101.545    22826100.749    22826112.934
       224.000         174.000
   -883729.70549   -681104.94747  21316137.258    21316137.155    21316146.649
       241.000         203.000
 00  5 23 16  5 59.9990000  0  7G16G 2G30G 5G24G 7G 9
  -4385438.49849  -3389677.49445  24033593.763    24033593.703    24033610.129
       210.000         151.000
   4096185.65449   3172575.34445  24115486.283    24115484.239    24115501.324
       212.000         148.000
  -3984751.24049  -3079320.79145  24305908.590    24305909.140    24305920.082
       214.000         148.000
 -10137255.81349  -7874684.78547  21303756.416    21303756.186    21303765.914
       233.000         194.000
  -8619103.77149  -6701205.34047  20186186.971    20186187.048    20186197.058
       236.000         202.000
   2471007.79649   1919403.96946  22831981.428    22831980.607    22831992.781
       224.000         174.000
   -869565.65249   -670068.09847  21318832.653    21318832.550    21318842.013
       241.000         203.000
 00  5 23 16  6 29.9990000  0  7G16G 2G30G 5G24G 7G 9
  -4410499.39849  -3409205.37845  24028824.748    24028824.727    24028841.237
       208.000         149.000
   4152902.23949   3216769.63545  24126279.348    24126277.385    24126294.533
       211.000         145.000
  -4119966.07349  -3184682.98545  24280177.993    24280178.566    24280189.592
       217.000         150.000
 -10242618.54749  -7956785.60947  21283706.542    21283706.320    21283716.034
       236.000         195.000
  -8692746.73949  -6758589.44047  20172173.195    20172173.254    20172183.252
       239.000         202.000
   2501969.52049   1943529.81246  22837873.462    22837872.575    22837884.737
       225.000         174.000
   -854908.48549   -658647.00647  21321621.903    21321621.778    21321631.216
       242.000         203.000
 00  5 23 16  6 59.9990000  0  7G16G 2G30G 5G24G 7G 9
  -4435029.50849  -3428319.66145  24024156.758    24024156.707    24024173.200
       211.000         147.000
   4209807.05549   3261110.62745  24137108.250    24137106.362    24137123.569
       211.000         146.000
  -4255197.68849  -3290058.28145  24254444.275    24254444.822    24254455.969
       217.000         151.000
 -10347763.90349  -8038717.03847  21263698.074    21263697.836    21263707.527
       234.000         195.000
  -8765878.10749  -6815574.88647  20158256.762    20158256.811    20158266.785
       236.000         202.000
   2532967.86949   1967684.20246  22843772.286    22843771.470    22843783.675
       222.000         174.000
   -839787.16449   -646864.22247  21324499.404    21324499.316    21324508.765
       241.000         203.000
 00  5 23 16  7 29.9990000  0  7G16G 2G30G 5G24G 7G 9
  -4459015.34649  -3447009.84845  24019592.248    24019592.347    24019608.776
       208.000         145.000
   4266912.34649   3305607.80145  24147975.243    24147973.484    24147990.777
       210.000         151.000
  -4390431.30549  -3395435.12045  24228710.252    24228710.757    24228721.884
       217.000         152.000
 -10452676.67149  -8120467.23947  21243733.840    21243733.583    21243743.272
       233.000         195.000
  -8838484.03049  -6872150.90347  20144440.276    20144440.332    20144450.295
       237.000         202.000
   2564015.98249   1991877.35346  22849680.638    22849679.829    22849692.088
       224.000         174.000
   -824190.10149   -634710.74847  21327467.443    21327467.365    21327476.889
       240.000         203.000
 00  5 23 16  7 59.9990000  0  8G16G 2G30G 5G24G 7G10G 9
  -4482463.29449  -3465280.88045  24015130.621    24015130.458    24015146.473
       207.000         146.000
   4324210.02949   3350254.91345  24158878.900    24158877.188    24158894.615
       209.000         149.000
  -4525672.22849  -3500817.67545  24202974.821    24202975.323    24202986.416
       216.000         151.000
 -10557361.86049  -8202040.09547  21223812.933    21223812.655    21223822.377
       234.000         196.000
  -8910570.70249  -6928322.29947  20130722.613    20130722.677    20130732.645
       236.000         202.000
   2595106.50349   2016103.58546  22855597.142    22855596.313    22855608.564
       223.000         174.000
   -292561.18453                  24773285.210
       203.000          82.000
   -808126.44049   -622193.68547  21330524.289    21330524.219    21330533.802
       240.000         203.000
 00  5 23 16  8 29.9990000  0  8G16G 2G30G 5G24G 7G10G 9
  -4505380.58449  -3483138.44945  24010769.799    24010769.457    24010785.384
       208.000         149.000
   4381691.56249   3395045.23345  24169817.433    24169815.858    24169833.475
       204.000         147.000
  -4660926.05849  -3606210.27545  24177236.820    24177237.381    24177248.473
       215.000         150.000
 -10661824.64149  -8283439.65447  21203934.323    21203934.038    21203943.791
       234.000         196.000
  -8982144.81849  -6984094.30947  20117102.471    20117102.551    20117112.506
       236.000         202.000
   2626231.91249   2040356.98246  22861520.133    22861519.389    22861531.680
       221.000         173.000
    -81408.67243                  24748254.959
       204.000          74.000
   -791605.19349   -609320.06147  21333668.266    21333668.163    21333677.773
       240.000         203.000
 00  5 23 16  8 59.9990000  0  8G16G 2G30G 5G24G 7G10G 9
  -4527749.26949  -3500568.54345  24006513.004    24006512.790    24006528.723
       208.000         147.000
   4439373.54149   3439991.76945  24180794.216    24180792.669    24180810.519
       205.000         149.000
  -4796173.78449  -3711598.10445  24151500.020    24151500.528    24151511.644
       213.000         147.000
 -10766045.36849  -8364650.58247  21184101.738    21184101.483    21184111.264
       234.000         195.000
  -9053188.20649  -7039452.75947  20103583.377    20103583.432    20103593.368
       236.000         202.000
   2657409.60049   2064651.12146  22867453.074    22867452.409    22867464.768
       222.000         171.000
   -184001.01343                  24723199.369
       204.000          80.000
   -774611.20649   -596078.06247  21336902.202    21336902.071    21336911.706
       240.000         202.000
 00  5 23 16  9 29.9990000  0  8G16G 2G30G 5G24G 7G10G 9
  -4549550.08749  -3517556.12445  24002364.227    24002364.128    24002380.030
       206.000         146.000
   4497274.02349   3485108.55245  24191812.597    24191811.159    24191829.097
       202.000         147.000
  -4931394.53449  -3816964.92945  24125768.331    24125768.832    24125779.964
       211.000         150.000
 -10870002.80149  -8445656.36647  21164319.306    21164319.049    21164328.793
       235.000         195.000
  -9123681.09749  -7094382.25847  20090169.001    20090169.055    20090178.997
       236.000         202.000
   2688658.49649   2089000.73246  22873399.700    22873398.994    22873411.407
       222.000         172.000
   -286681.93143                  24698121.384
       202.000          85.000
   -757127.09249   -582454.14747  21340229.377    21340229.237    21340238.898
       240.000         203.000
 00  5 23 16  9 59.9990000  0  8G16G 2G30G 5G24G 7G10G 9
  -4570805.94549  -3534119.05845  23998319.302    23998319.270    23998335.088
       207.000         147.000
   4555368.70149   3530376.65945  24202867.668    24202866.416    24202884.615
       197.000         143.000
  -5066610.15649  -3922327.72445  24100037.495    24100038.078    24100049.272
       210.000         148.000
 -10973718.13949  -8526473.49347  21144582.919    21144582.653    21144592.382
       233.000         194.000
  -9193645.99449  -7148900.32747  20076855.043    20076855.140    20076865.118
       235.000         201.000
   2719955.13349   2113387.54746  22879355.438    22879354.671    22879367.138
       223.000         173.000
    -71381.04343                  24673017.945
       199.000          74.000
   -739178.19149   -568468.06647  21343644.928    21343644.834    21343654.575
       240.000         202.000
 00  5 23 16 10 29.9980000  0  8G16G 2G30G 5G24G 7G10G 9
  -4591507.79849  -3550250.30245  23994379.927    23994379.832    23994395.567
       209.000         146.000
   4613662.78449   3575800.13045  24213960.836    24213959.683    24213978.034
       197.000         144.000
  -5201806.03649  -4027675.14145  24074310.497    24074311.121    24074322.265
       213.000         152.000
 -11077177.63849  -8607091.25847  21124895.180    21124894.937    21124904.687
       235.000         195.000
  -9263071.70849  -7202998.25647  20063643.704    20063643.831    20063653.826
       236.000         201.000
   2751306.62849   2137817.13146  22885321.653    22885320.819    22885333.365
       224.000         171.000
   -174267.14445                  24647892.316
       204.000         136.000
   -720759.10249   -554115.60447  21347150.045    21347149.928    21347159.687
       241.000         202.000
 00  5 23 16 10 59.9980000  0  8G16G 2G30G 5G24G 7G10G 9
  -4611678.64649  -3565967.79945  23990541.397    23990541.259    23990556.951
       208.000         145.000
   4672136.90549   3621363.87445  24225088.761    24225087.355    24225105.853
       200.000         145.000
  -5337011.68949  -4133030.15445  24048581.784    24048582.366    24048593.458
       215.000         155.000
 -11180408.06349  -8687530.53447  21105251.106    21105250.860    21105260.554
       235.000         196.000
  -9331984.18049  -7256696.25847  20050530.036    20050530.189    20050540.201
       235.000         201.000
   2782692.98949   2162273.85946  22891294.330    22891293.570    22891306.149
       224.000         172.000
  -1209153.27349   -277267.61545  24622738.400    24622737.611    24622760.945
       204.000         135.000
   -701892.35249   -539414.31147  21350740.284    21350740.193    21350749.999
       240.000         202.000
 00  5 23 16 11 29.9980000  0  8G16G 2G30G 5G24G 7G10G 9
  -4631305.37749  -3581261.28045  23986806.647    23986806.414    23986822.049
       208.000         145.000
   4730800.45849   3667075.25645  24236252.584    24236251.049    24236269.668
       200.000         142.000
  -5472208.39549  -4238378.22645  24022854.943    24022855.438    24022866.398
       220.000         160.000
 -11283391.24749  -8767777.14847  21085654.033    21085653.798    21085663.481
       235.000         196.000
  -9400368.19049  -7309982.46947  20037516.953    20037517.107    20037527.115
       235.000         200.000
   2814125.35349   2186766.46546  22897275.954    22897275.103    22897287.696
       223.000         172.000
  -1341464.62549   -380367.29745  24597560.288    24597559.502    24597582.327
       202.000         134.000
   -682568.20649   -524356.61147  21354417.587    21354417.506    21354427.374
       239.000         202.000
 00  5 23 16 11 59.9980000  0  8G16G 2G30G 5G24G 7G10G 9
  -4650383.46349  -3596127.23645  23983176.021    23983175.870    23983191.594
       208.000         144.000
   4789656.45049   3712936.56945  24247452.943    24247451.368    24247470.007
       198.000         141.000
  -5607389.86549  -4343714.41545  23997131.013    23997131.313    23997142.251
       222.000         162.000
 -11386120.81049  -8847826.14447  21066105.287    21066105.021    21066114.680
       236.000         196.000
  -9468219.03049  -7362853.22547  20024605.332    20024605.492    20024615.485
       236.000         200.000
   2845607.90649   2211298.16746  22903267.072    22903266.181    22903278.843
       225.000         172.000
  -1473896.34859   -483560.71455  24572359.144    24572358.338    24572380.834
       196.000         133.000
   -662784.72849   -508940.98747  21358182.331    21358182.227    21358192.124
       240.000         202.000
 00  5 23 16 12 29.9980000  0  8G16G 2G30G 5G24G 7G10G 9
  -4668921.19349  -3610572.18245  23979647.992    23979648.021    23979663.877
       207.000         145.000
   4848695.36649   3758940.44645  24258688.056    24258686.494    24258705.132
       198.000         138.000
  -5742563.11649  -4449044.19946  23971408.396    23971408.718    23971419.663
       224.000         163.000
 -11488602.84249  -8927682.25647  21046603.602    21046603.334    21046612.975
       234.000         196.000
  -9535544.21249  -7415314.37747  20011793.714    20011793.895    20011803.884
       234.000         200.000
   2877132.19449   2235862.39746  22909266.022    22909265.174    22909277.919
       223.000         171.000
  -1606453.86249   -586852.13345  24547134.614    24547134.706    24547156.944
       198.000         133.000
   -642552.31049   -493175.53547  21362032.476    21362032.376    21362042.316
       239.000         202.000
 00  5 23 16 12 59.9980000  0  8G16G 2G30G 5G24G 7G10G 9
  -4686894.33749  -3624577.14845  23976228.044    23976227.897    23976243.546
       213.000         149.000
   4907940.50649   3805105.00045  24269962.777    24269960.960    24269979.539
       197.000         136.000
  -5877702.41549  -4554347.54145  23945692.126    23945692.498    23945703.556
       224.000         162.000
 -11590811.27749  -9007325.17547  21027153.948    21027153.692    21027163.313
       233.000         196.000
  -9602319.52349  -7467347.06747  19999086.827    19999086.958    19999096.925
       234.000         200.000
   2908721.89349   2260477.59246  22915277.420    22915276.593    22915289.407
       223.000         172.000
  -1739110.27249   -690220.65645  24521890.848    24521890.345    24521913.283
       199.000         134.000
   -621849.06949   -477043.21747  21365972.246    21365972.135    21365982.096
       239.000         201.000
 00  5 23 16 13 29.9980000  0  8G16G 2G30G 5G24G 7G10G 9
  -4704309.68349  -3638147.44545  23972913.978    23972913.795    23972929.627
       211.000         146.000
   4967384.10849   3851424.17145  24281274.995    24281273.119    24281291.777
       197.000         135.000
  -6012812.49449  -4659628.11845  23919981.422    23919981.884    23919992.998
       226.000         160.000
 -11692750.44849  -9086758.28347  21007755.534    21007755.284    21007764.918
       235.000         196.000
  -9668550.91949  -7518955.92447  19986483.399    19986483.529    19986493.481
       235.000         200.000
   2940370.56549   2285138.73946  22921300.161    22921299.266    22921312.118
       223.000         172.000
  -1871869.54649   -793669.34145  24496627.669    24496627.338    24496649.718
       200.000         137.000
   -600683.25949   -460550.45047  21370000.074    21369999.934    21370009.889
       240.000         202.000
 00  5 23 16 13 59.9980000  0  8G16G 2G30G 5G24G 7G10G 9
  -4721178.95949  -3651292.29645  23969703.972    23969703.752    23969719.338
       210.000         147.000
   5027012.65649   3897887.47545  24292622.325    24292620.339    24292639.296
       203.000         139.000
  -6147903.88149  -4764894.13945  23894274.390    23894274.837    23894286.011
       224.000         156.000
 -11794430.53849  -9165989.49447  20988406.425    20988406.179    20988415.819
       234.000         196.000
  -9734250.00349  -7570149.98147  19973981.242    19973981.375    19973991.328
       234.000         200.000
   2972065.92249   2309836.26546  22927331.569    22927330.810    22927343.737
       223.000         173.000
  -2004741.14049   -897205.49245  24471343.145    24471342.801    24471365.053
       202.000         139.000
   -579069.34149   -443708.49347  21374113.187    21374113.018    21374122.952
       240.000         202.000
 00  5 23 16 14 29.9980000  0  8G16G 2G30G 5G24G 7G10G 9
  -4737494.49849  -3664005.61945  23966599.347    23966598.982    23966614.538
       211.000         148.000
   5086833.00749   3944500.19745  24304006.360    24304004.204    24304023.294
       206.000         141.000
  -6282966.86249  -4870138.03045  23868572.872    23868573.253    23868584.413
       223.000         153.000
 -11895841.37449  -9245010.90847  20969108.618    20969108.352    20969117.990
       235.000         196.000
  -9799408.36749  -7620922.71047  19961582.037    19961582.161    19961592.073
       234.000         200.000
   3003815.75049   2334576.22946  22933373.439    22933372.714    22933385.702
       222.000         172.000
  -2137713.83149  -1000820.45845  24446039.181    24446038.840    24446061.184
       206.000         145.000
   -557001.53449   -426512.87547  21378312.579    21378312.431    21378322.393
       238.000         201.000
 00  5 23 16 14 59.9980000  0  8G16G 2G30G 5G24G 7G10G 9
  -4753271.02849  -3676298.99545  23963596.864    23963596.729    23963612.279
       207.000         144.000
   5146829.10249   3991249.92445  24315423.656    24315421.494    24315440.660
       205.000         138.000
  -6418014.50349  -4975369.97245  23842874.223    23842874.567    23842885.764
       220.000         154.000
 -11996995.66949  -9323832.41847  20949859.660    20949859.326    20949868.966
       235.000         197.000
  -9864040.47149  -7671285.36647  19949282.919    19949283.052    19949292.973
       233.000         200.000
   3035605.01849   2359346.92746  22939422.930    22939422.165    22939435.177
       223.000         174.000
  -2270799.92749  -1104523.76745  24420713.652    24420713.321    24420735.668
       207.000         147.000
   -534496.88549   -408976.86247  21382595.083    21382594.940    21382604.956
       239.000         201.000
 00  5 23 16 15 29.9980000  0  8G16G 2G30G 5G24G 7G10G 9
  -4768513.85149  -3688176.44645  23960695.943    23960695.968    23960711.545
       209.000         146.000
   5206994.61749   4038131.66145  24326873.144    24326871.073    24326890.089
       206.000         141.000
  -6553050.11549  -5080592.52645  23817177.733    23817178.170    23817189.268
       218.000         151.000
 -12097896.59249  -9402456.49047  20930658.864    20930658.545    20930668.171
       235.000         196.000
  -9928151.00149  -7721241.59647  19937083.033    19937083.191    19937093.117
       233.000         199.000
   3067428.55549   2384144.33046  22945478.935    22945478.139    22945491.141
       223.000         171.000
  -2404001.80449  -1208317.29645  24395366.018    24395365.668    24395388.211
       207.000         144.000
   -511562.82349   -391106.24247  21386959.416    21386959.229    21386969.225
       239.000         200.000
 00  5 23 16 15 59.9980000  0  8G16G 2G30G 5G24G 7G10G 9
  -4783197.94549  -3699618.60345  23957901.781    23957901.769    23957917.178
       212.000         147.000
   5267353.23049   4085163.80845  24338359.301    24338357.294    24338376.442
       204.000         139.000
  -6688047.26849  -5185785.08745  23791488.551    23791489.075    23791500.150
       217.000         152.000
 -12198517.18849  -9480862.14047  20911511.413    20911511.065    20911520.705
       236.000         197.000
  -9991714.90949  -7770771.89847  19924987.211    19924987.352    19924997.286
       234.000         199.000
   3099311.17649   2408987.77746  22951546.088    22951545.334    22951558.332
       223.000         171.000
  -2537291.68149  -1312179.43545  24370001.778    24370001.418    24370023.991
       207.000         145.000
   -488176.93349   -372883.55847  21391409.659    21391409.477    21391419.444
       240.000         200.000
 00  5 23 16 16 29.9980000  0  8G16G 2G30G 5G24G 7G10G 9
  -4797338.91749  -3710637.48745  23955210.987    23955210.801    23955226.057
       212.000         147.000
   5327888.51049   4132333.62245  24349879.106    24349877.007    24349896.419
       205.000         139.000
  -6823019.22049  -5290958.01245  23765804.206    23765804.745    23765815.803
       215.000         157.000
 -12298870.34249  -9559059.37847  20892414.840    20892414.495    20892424.144
       235.000         198.000
 -10054746.92549  -7819887.73247  19912992.581    19912992.731    19913002.674
       233.000         199.000
   3131237.45649   2433865.24646  22957621.585    22957620.815    22957633.891
       221.000         172.000
  -2670681.94249  -1416119.78245  24344618.318    24344617.977    24344640.568
       205.000         142.000
   -464356.33349   -354322.12747  21395942.653    21395942.460    21395952.412
       239.000         200.000
 00  5 23 16 16 59.9980000  0  8G16G 2G30G 5G24G 7G10G 9
  -4810929.47949  -3721227.52245  23952624.894    23952624.569    23952640.027
       213.000         150.000
   5388606.43249   4179645.74845  24361433.837    24361431.639    24361451.116
       198.000         137.000
  -6957957.06249  -5396104.35045  23740126.414    23740126.926    23740137.980
       218.000         159.000
 -12398946.56149  -9637040.83447  20873370.877    20873370.623    20873380.283
       236.000         198.000
 -10117239.56349  -7868583.27747  19901100.617    19901100.758    19901110.691
       233.000         200.000
   3163214.41149   2458782.19246  22963706.618    22963705.948    22963719.089
       222.000         172.000
  -2804162.35349  -1520130.30245  24319217.793    24319217.412    24319239.958
       206.000         143.000
   -440095.94749   -335418.01447  21400559.351    21400559.140    21400569.085
       239.000         201.000
 00  5 23 16 17 29.9980000  0  8G16G 2G30G 5G24G 7G10G 9
  -4823988.93549  -3731403.71045  23950139.431    23950139.228    23950154.697
       211.000         145.000
   5449486.89748   4227084.48345  24373019.144    24373017.030    24373036.821
       194.000         133.000
  -7092877.87149  -5501237.41045  23714451.798    23714452.326    23714463.426
       220.000         160.000
 -12498762.82049  -9714819.72247  20854376.526    20854376.220    20854385.868
       236.000         199.000
 -10179211.56249  -7916873.12447  19889307.788    19889307.890    19889317.815
       233.000         200.000
   3195223.04849   2483723.82046  22969797.785    22969797.110    22969810.326
       220.000         171.000
  -2937749.01449  -1624223.62545  24293796.835    24293796.509    24293819.044
       203.000         141.000
   -415417.26749   -316187.95347  21405255.602    21405255.402    21405265.383
       239.000         201.000
 00  5 23 16 17 59.9980000  0  8G16G 2G30G 5G24G 7G10G 9
  -4836495.11249  -3741148.75045  23947759.816    23947759.472    23947774.779
       214.000         148.000
   5510550.76649   4274666.06245  24384639.700    24384637.458    24384657.425
       203.000         145.000
  -7227757.88549  -5606338.69145  23688784.994    23688785.501    23688796.619
       220.000         162.000
 -12598294.77449  -9792377.07747  20835436.243    20835435.933    20835445.555
       236.000         199.000
 -10240640.33949  -7964739.69547  19877618.327    19877618.400    19877628.290
       234.000         200.000
   3227285.60949   2508707.45746  22975899.140    22975898.505    22975911.810
       221.000         170.000
  -3071416.84049  -1728380.17745  24268360.505    24268360.277    24268382.710
       208.000         143.000
   -390300.43049   -296616.48647  21410035.246    21410035.039    21410045.053
       238.000         200.000
 00  5 23 16 18 29.9980000  0  8G16G 2G30G 5G24G 7G10G 9
  -4848453.42449  -3750466.89945  23945484.283    23945483.917    23945499.120
       214.000         143.000
   5571791.56349   4322385.60745  24396294.004    24396291.740    24396311.699
       196.000         139.000
  -7362600.61949  -5711410.94145  23663125.426    23663125.799    23663136.931
       219.000         161.000
 -12697545.57849  -9869715.34947  20816549.436    20816549.142    20816558.733
       236.000         199.000
 -10301530.87949  -8012186.85347  19866031.281    19866031.331    19866041.192
       234.000         201.000
   3259396.52249   2533728.80846  22982009.773    22982009.124    22982022.451
       221.000         170.000
  -3205168.49549  -1832602.01645  24242908.260    24242908.073    24242930.504
       205.000         144.000
   -364752.97249   -276709.45247  21414896.798    21414896.610    21414906.665
       238.000         199.000
 00  5 23 16 18 59.9980000  0  8G16G 2G30G 5G24G 7G10G 9
  -4859854.29449  -3759350.64945  23943314.850    23943314.389    23943329.510
       210.000         147.000
   5633218.00148   4370249.80045  24407983.194    24407981.211    24408001.184
       193.000         133.000
  -7497394.21449  -5816444.90645  23637475.018    23637475.422    23637486.532
       220.000         158.000
 -12796503.19149  -9946825.15747  20797718.423    20797718.123    20797727.734
       235.000         198.000
 -10361873.12349  -8059206.77047  19854548.568    19854548.593    19854558.452
       233.000         201.000
   3291565.90949   2558795.71346  22988131.660    22988130.928    22988144.276
       221.000         170.000
  -3338990.97749  -1936879.02945  24217442.146    24217442.239    24217464.842
       206.000         144.000
   -338767.19649   -256460.88747  21419841.764    21419841.585    21419851.641
       238.000         199.000
 00  5 23 16 19 29.9980000  0  8G16G 2G30G 5G24G 7G10G 9
  -4870722.60349  -3767819.46045  23941246.322    23941246.083    23941261.386
       210.000         144.000
   5694803.93949   4418238.21545  24419702.620    24419700.868    24419721.146
       195.000         133.000
  -7632161.99749  -5921458.75045  23611829.496    23611829.941    23611841.078
       219.000         158.000
 -12895190.57849 -10023724.40447  20778938.824    20778938.548    20778948.142
       238.000         199.000
 -10421691.85949  -8105818.76047  19843165.466    19843165.473    19843175.317
       235.000         200.000
   3323768.47049   2583888.45446  22994259.836    22994259.033    22994272.439
       224.000         170.000
  -3472906.70149  -2041228.69145  24191958.819    24191958.804    24191981.320
       204.000         143.000
   -312370.22049   -235891.90847  21424865.042    21424864.836    21424874.915
       240.000         201.000
 00  5 23 16 19 59.9980000  0  7G16G30G 5G24G 7G10G 9
  -4881036.47149  -3775856.21845  23939283.335    23939283.340    23939298.697
       210.000         144.000
  -7766879.40049  -6026433.34945  23586193.595    23586194.067    23586205.089
       219.000         156.000
 -12993582.99349 -10100393.79547  20760215.329    20760215.083    20760224.683
       236.000         199.000
 -10480964.27449  -8152005.04147  19831886.260    19831886.292    19831896.140
       233.000         200.000
   3356026.66949   2609024.56246  23000398.552    23000397.702    23000411.099
       222.000         170.000
  -3606889.84449  -2145630.83845  24166462.562    24166462.519    24166484.960
       204.000         143.000
   -285541.79649   -214986.72847  21429970.433    21429970.189    21429980.332
       238.000         200.000
 00  5 23 16 20 29.9980000  0  7G16G30G 5G24G 7G10G 9
  -4890816.41349  -3783476.90045  23937422.453    23937422.339    23937437.439
       213.000         143.000
  -7901564.85949  -6131383.04945  23560563.809    23560564.278    23560575.290
       220.000         158.000
 -13091698.20049 -10176847.18747  20741544.590    20741544.355    20741553.968
       238.000         199.000
 -10539710.49549  -8197781.30847  19820707.184    19820707.228    19820717.088
       234.000         199.000
   3388320.42649   2634188.37646  23006543.951    23006543.112    23006556.523
       221.000         168.000
  -3740957.69649  -2250098.93645  24140950.223    24140950.135    24140972.359
       207.000         141.000
   -258304.70449   -193763.11147  21435153.529    21435153.301    21435163.471
       240.000         200.000
 00  5 23 16 20 59.9980000  0  7G16G30G 5G24G 7G10G 9
  -4900052.88949  -3790674.14745  23935664.904    23935664.677    23935679.787
       211.000         145.000
  -8036206.78349  -6236298.80945  23534942.263    23534942.780    23534953.779
       217.000         157.000
 -13189524.22549 -10253075.23547  20722928.923    20722928.675    20722938.298
       238.000         199.000
 -10597920.51549  -8243139.74847  19809630.182    19809630.226    19809640.064
       234.000         199.000
   3420659.25449   2659387.29246  23012697.800    23012697.079    23012710.541
       221.000         167.000
  -3875097.61249  -2354623.20345  24115423.909    24115423.878    24115446.149
       204.000         144.000
   -230651.35249   -172215.14047  21440415.910    21440415.652    21440425.828
       238.000         199.000
 00  5 23 16 21 29.9980000  0  7G16G30G 5G24G 7G10G 9
  -4908742.43349  -3797445.18245  23934011.175    23934011.005    23934026.260
       209.000         142.000
  -8170799.52849  -6341176.23545  23509330.007    23509330.616    23509341.616
       216.000         156.000
 -13287055.40549 -10329073.53647  20704369.334    20704369.095    20704378.703
       236.000         200.000
 -10655590.47749  -8288077.37647  19798655.972    19798656.017    19798665.826
       234.000         201.000
   3453046.82849   2684624.18846  23018861.044    23018860.305    23018873.828
       223.000         169.000
  -4009303.15049  -2459198.55345  24089885.212    24089885.183    24089907.476
       206.000         145.000
   -202580.31149   -150341.71047  21445757.696    21445757.448    21445767.639
       238.000         199.000
 00  5 23 16 21 59.9980000  0  7G16G30G 5G24G 7G10G 9
  -4916884.00849  -3803789.22445  23932461.821    23932461.693    23932477.196
       214.000         145.000
  -8305340.00249  -6446012.93845  23483727.590    23483728.305    23483739.384
       216.000         155.000
 -13384288.16049 -10404839.29347  20685866.516    20685866.296    20685875.920
       237.000         200.000
 -10712718.87249  -8332593.00047  19787784.873    19787784.876    19787794.648
       235.000         201.000
   3485484.65649   2709900.25546  23025033.993    23025033.157    23025046.677
       221.000         168.000
  -4143569.90749  -2563821.56445  24064335.064    24064334.865    24064357.212
       206.000         148.000
   -174092.73949   -128143.70147  21451178.759    21451178.509    21451188.698
       239.000         199.000
 00  5 23 16 22 29.9980000  0  7G16G30G 5G24G 7G10G 9
  -4924495.19449  -3809719.93445  23931013.587    23931013.373    23931028.848
       210.000         143.000
  -8439843.25749  -6550820.62745  23458132.412    23458133.148    23458144.310
       218.000         156.000
 -13481237.32449 -10480384.07247  20667417.745    20667417.489    20667427.092
       237.000         200.000
 -10769322.67149  -8376699.84447  19777013.516    19777013.524    19777023.292
       233.000         200.000
   3517955.64249   2735202.15046  23031213.147    23031212.311    23031225.847
       218.000         167.000
  -4277911.39249  -2668502.80145  24038770.491    24038770.352    24038792.764
       208.000         147.000
   -145207.89849   -105636.13147  21456675.425    21456675.175    21456685.354
       237.000         198.000
 00  5 23 16 22 59.9980000  0  7G16G30G 5G24G 7G10G 9
  -4931563.40149  -3815227.57845  23929668.294    23929668.204    23929683.916
       212.000         142.000
  -8574294.27249  -6655587.64645  23432547.329    23432547.965    23432559.170
       220.000         157.000
 -13577887.89449 -10555696.17847  20649025.787    20649025.490    20649035.078
       237.000         200.000
 -10825388.94049  -8420387.83747  19766344.444    19766344.457    19766354.241
       233.000         200.000
   3550472.51849   2760539.80046  23037400.926    23037400.156    23037413.736
       220.000         165.000
  -4412311.86649  -2773229.99245  24013195.081    24013194.644    24013217.058
       207.000         145.000
   -115915.15349    -82810.71447  21462249.722    21462249.461    21462259.616
       237.000         197.000
 00  5 23 16 23 29.9980000  0  7G16G30G 5G24G 7G10G 9
  -4938091.50549  -3820314.37045  23928425.863    23928425.894    23928441.421
       209.000         139.000
  -8708694.01449  -6760314.71445  23406972.133    23406972.603    23406983.756
       222.000         161.000
 -13674240.36349 -10630775.98947  20630690.559    20630690.231    20630699.801
       237.000         201.000
 -10880920.19449  -8463658.93247  19755777.197    19755777.222    19755786.989
       233.000         200.000
   3583032.82749   2785911.29346  23043597.114    23043596.292    23043609.941
       219.000         167.000
  -4546771.31549  -2878003.13345  23987608.156    23987607.718    23987629.969
       207.000         143.000
    -86219.76549    -59671.54547  21467900.622    21467900.374    21467910.560
       237.000         198.000
 00  5 23 16 23 59.9980000  0  7G16G30G 5G24G 7G10G 9
  -4944070.90149  -3824973.56045  23927288.084    23927288.051    23927303.664
       215.000         140.000
  -8843031.08349  -6864992.92646  23381408.757    23381409.142    23381420.255
       223.000         164.000
 -13770283.26349 -10705614.58747  20612414.173    20612413.864    20612423.440
       237.000         202.000
 -10935906.99449  -8506505.77847  19745313.530    19745313.555    19745323.339
       232.000         200.000
   3615645.79449   2811323.83546  23049803.358    23049802.494    23049816.163
       219.000         167.000
  -4681277.51349  -2982812.69545  23962012.565    23962011.948    23962033.945
       204.000         141.000
    -56114.77549    -36213.21747  21473629.490    21473629.229    21473639.471
       237.000         198.000
 00  5 23 16 24 29.9980000  0  7G16G30G 5G24G 7G10G 9
  -4949498.56849  -3829202.84945  23926255.390    23926255.180    23926270.545
       215.000         141.000
  -8977300.58049  -6969618.48746  23355858.078    23355858.489    23355869.639
       224.000         166.000
 -13866011.08249 -10780207.66347  20594197.764    20594197.467    20594207.042
       239.000         201.000
 -10990346.21849  -8548925.94347  19734954.054    19734954.097    19734963.902
       234.000         200.000
   3648314.68349   2836779.93546  23056020.156    23056019.268    23056033.090
       221.000         167.000
  -4815824.05849  -3087653.61345  23936408.764    23936408.365    23936430.260
       201.000         140.000
    -25599.29649    -12435.02447  21479436.473    21479436.199    21479446.511
       240.000         197.000
 00  5 23 16 24 59.9980000  0  7G16G30G 5G24G 7G10G 9
  -4954380.82749  -3833007.12745  23925326.259    23925326.103    23925341.678
       213.000         139.000
  -9111506.24149  -7074194.28846  23330319.414    23330319.965    23330331.113
       222.000         167.000
 -13961427.54549 -10854558.12847  20576040.609    20576040.312    20576049.860
       237.000         201.000
 -11044243.67549  -8590923.95547  19724697.733    19724697.762    19724707.548
       233.000         201.000
   3681033.66449   2862275.08946  23062246.496    23062245.620    23062259.488
       219.000         167.000
  -4950413.78449  -3192528.18945  23910797.026    23910796.596    23910818.405
       209.000         146.000
      5318.39049     11656.58347  21485319.943    21485319.697    21485330.070
       237.000         197.000
 00  5 23 16 25 29.9980000  0  7G16G30G 5G24G 7G10G 9
  -4958724.72049  -3836391.85145  23924499.406    23924499.331    23924514.981
       210.000         140.000
  -9245652.50449  -7178723.80846  23304792.151    23304792.738    23304803.941
       220.000         165.000
 -14056536.87649 -10928669.27047  20557941.862    20557941.586    20557951.164
       237.000         202.000
 -11097605.70949  -8632504.75847  19714543.319    19714543.306    19714553.069
       233.000         200.000
   3713796.25449   2887804.20246  23068481.110    23068480.231    23068494.153
       219.000         166.000
  -5085050.07249  -3297439.05545  23885176.162    23885175.846    23885197.733
       205.000         144.000
     36629.40949     36054.67747  21491278.243    21491278.033    21491288.460
       238.000         198.000
 00  5 23 16 25 59.9980000  0  7G16G30G 5G24G 7G10G 9
  -4962512.56049  -3839343.34445  23923778.421    23923778.489    23923793.956
       211.000         139.000
  -9379719.14049  -7283191.27846  23279280.212    23279280.679    23279291.895
       220.000         165.000
 -14151318.61549 -11002525.14547  20539905.526    20539905.242    20539914.798
       237.000         203.000
 -11150414.25149  -8673654.26247  19704494.238    19704494.210    19704503.936
       233.000         201.000
   3746620.76749   2913381.58446  23074727.533    23074726.658    23074740.581
       220.000         167.000
  -5219711.91249  -3402369.85745  23859550.391    23859550.195    23859572.108
       206.000         141.000
     68349.60149     60771.60347  21497314.499    21497314.275    21497324.730
       238.000         198.000
 00  5 23 16 26 29.9980000  0  7G16G30G 5G24G 7G10G 9
  -4965775.48949  -3841885.77545  23923157.485    23923157.457    23923172.772
       213.000         138.000
  -9513734.71849  -7387618.96646  23253777.902    23253778.373    23253789.537
       221.000         163.000
 -14245801.01349 -11076147.76847  20521926.097    20521925.818    20521935.394
       238.000         202.000
 -11202699.79549  -8714396.23647  19694544.621    19694544.601    19694554.304
       234.000         201.000
   3779476.64749   2938983.40746  23080980.020    23080979.088    23080992.951
       221.000         166.000
  -5354426.84049  -3507341.99545  23833914.618    23833914.383    23833936.336
       203.000         141.000
    100445.99249     85781.67647  21503422.328    21503422.081    21503432.538
       239.000         197.000
 00  5 23 16 26 59.9980000  0  7G16G30G 5G24G 7G10G 9
  -4968516.75549  -3844021.72045  23922635.950    23922635.819    23922651.092
       214.000         147.000
  -9647700.17349  -7492007.60845  23228285.052    23228285.596    23228296.755
       221.000         162.000
 -14339984.82149 -11149537.72247  20504003.525    20504003.228    20504012.795
       237.000         203.000
 -11254465.41249  -8754733.07247  19684693.974    19684693.956    19684703.627
       233.000         201.000
   3812361.02749   2964607.41846  23087237.919    23087236.974    23087250.856
       220.000         168.000
  -5489194.36549  -3612355.10445  23808268.177    23808268.489    23808290.633
       197.000         141.000
    132913.03649    111080.57447  21509600.653    21509600.439    21509610.884
       237.000         197.000
 00  5 23 16 27 29.9980000  0  7G16G30G 5G24G 7G10G 9
  -4970705.10849  -3845726.83945  23922219.360    23922219.316    23922234.756
       208.000         146.000
  -9781581.30549  -7596330.53946  23202808.279    23202808.817    23202820.030
       222.000         163.000
 -14433835.74349 -11222668.28947  20486144.302    20486144.011    20486153.545
       239.000         202.000
 -11305678.86149  -8794639.63947  19674948.448    19674948.395    19674958.024
       234.000         201.000
   3845306.20549   2990278.81346  23093507.487    23093506.483    23093520.222
       219.000         166.000
  -5623979.15649  -3717381.67145  23782618.881    23782619.233    23782641.490
       205.000         138.000
    165780.65249    136691.59947  21515855.188    21515854.997    21515865.483
       237.000         196.000
 00  5 23 16 27 59.9980000  0  7G16G30G 5G24G 7G10G 9
  -4972350.39949  -3847008.78845  23921905.861    23921906.080    23921921.628
       208.000         139.000
  -9915385.72549  -7700593.69446  23177346.091    23177346.643    23177357.895
       222.000         165.000
 -14527361.28449 -11295545.30947  20468346.945    20468346.666    20468356.212
       237.000         202.000
 -11356350.08649  -8834123.70347  19665306.029    19665305.972    19665315.598
       233.000         200.000
   3878302.61449   3015990.15046  23099786.687    23099785.634    23099799.356
       221.000         163.000
  -5758787.76749  -3822426.83845  23756964.874    23756965.552    23756987.737
       204.000         139.000
    199036.76649    162605.34347  21522183.672    21522183.476    21522194.002
       236.000         196.000
 00  5 23 16 28 29.9980000  0  7G16G30G 5G24G 7G10G 9
  -4973453.61049  -3847868.27845  23921696.089    23921696.185    23921711.323
       214.000         145.000
 -10049111.54649  -7804795.62046  23151898.964    23151899.440    23151910.728
       225.000         165.000
 -14620559.20549 -11368167.03747  20450611.931    20450611.663    20450621.200
       237.000         202.000
 -11406479.03949  -8873185.21247  19655766.781    19655766.742    19655776.357
       232.000         199.000
   3911350.14449   3041741.30646  23106075.643    23106074.529    23106088.222
       220.000         165.000
  -5893617.25549  -3927488.27045  23731307.222    23731307.934    23731330.020
       207.000         138.000
    232678.78949    188819.81047  21528585.713    21528585.428    21528595.943
       236.000         195.000
 00  5 23 16 28 59.9980000  0  7G16G30G 5G24G 7G10G 9
  -4974002.80349  -3848296.09545  23921591.660    23921591.619    23921606.830
       213.000         146.000
 -10182744.07449  -7908924.84546  23126469.629    23126470.015    23126481.288
       226.000         169.000
 -14713415.01449 -11440522.18647  20432942.018    20432941.768    20432951.278
       238.000         202.000
 -11456053.75449  -8911814.84747  19646332.978    19646332.978    19646342.592
       232.000         199.000
   3944461.36549   3067542.08246  23112376.582    23112375.550    23112389.289
       219.000         167.000
  -6028452.13249  -4032553.89745  23705648.635    23705649.331    23705671.235
       206.000         141.000
    266716.36249    215342.48347  21535062.963    21535062.666    21535073.181
       235.000         195.000
 00  5 23 16 29 29.9980000  0  7G16G30G 5G24G 7G10G 9
  -4974002.82949  -3848296.02245  23921591.390    23921591.525    23921606.779
       209.000         145.000
 -10316285.56749  -8012983.13446  23101057.620    23101057.971    23101069.179
       227.000         170.000
 -14805930.39549 -11512612.06747  20415336.914    20415336.653    20415346.150
       238.000         202.000
 -11505078.24749  -8950015.73847  19637003.881    19637003.894    19637013.518
       232.000         199.000
   3977632.14049   3093389.27446  23118688.872    23118687.851    23118701.755
       219.000         165.000
  -6163293.36349  -4137624.50945  23679988.905    23679989.486    23680011.196
       204.000         137.000
    301143.37249    242168.61047  21541614.251    21541613.953    21541624.494
       235.000         194.000
 00  5 23 16 29 59.9980000  0  7G16G30G 5G24G 7G10G 9
  -4973480.04449  -3847888.53945  23921690.605    23921690.903    23921706.230
       205.000         143.000
 -10449759.58349  -8116988.85346  23075658.403    23075658.731    23075669.888
       227.000         169.000
 -14898128.76249 -11584454.92547  20397792.192    20397791.887    20397801.357
       238.000         202.000
 -11553578.41749  -8987808.06647  19627774.546    19627774.597    19627784.228
       232.000         199.000
   4010836.99549   3119263.02646  23125007.475    23125006.581    23125020.644
       218.000         163.000
  -6298163.47649  -4242717.61745  23654323.308    23654324.076    23654345.661
       197.000         133.000
    335931.65449    269276.24847  21548234.288    21548234.012    21548244.566
       235.000         194.000
 00  5 23 16 30 29.9980000  0  7G16G30G 5G24G 7G10G 9
  -4972421.45749  -3847063.60045  23921892.216    23921892.372    23921907.597
       211.000         146.000
 -10583150.60549  -8220929.89046  23050274.935    23050275.276    23050286.443
       224.000         169.000
 -14989994.54249 -11656038.62647  20380310.683    20380310.384    20380319.829
       238.000         202.000
 -11601541.06949  -9025181.55247  19618647.551    19618647.595    19618657.209
       232.000         199.000
   4044089.73149   3145174.08346  23131335.182    23131334.458    23131348.582
       218.000         167.000
  -6433045.95449  -4347820.38045  23628655.856    23628656.460    23628677.791
       206.000         137.000
    371092.14449    296673.91947  21554925.174    21554924.899    21554935.501
       235.000         196.000
 00  5 23 16 30 59.9980000  0  7G16G30G 5G24G 7G10G 9
  -4970816.51149  -3845812.90445  23922197.812    23922197.831    23922212.900
       212.000         146.000
 -10716444.95249  -8324795.58346  23024909.826    23024910.180    23024921.361
       224.000         169.000
 -15081513.84349 -11727352.34047  20362895.085    20362894.817    20362904.235
       237.000         202.000
 -11648954.73549  -9062127.25347  19609625.033    19609625.065    19609634.681
       232.000         199.000
   4077401.47349   3171131.12846  23137674.471    23137673.655    23137687.804
       215.000         167.000
  -6567926.05949  -4452921.30845  23602988.885    23602989.358    23603010.550
       207.000         142.000
    406633.47249    324368.34947  21561688.551    21561688.281    21561698.938
       236.000         197.000
 00  5 23 16 31 29.9980000  0  7G16G30G 5G24G 7G10G 9
  -4968695.02549  -3844159.71145  23922601.647    23922601.553    23922616.681
       209.000         146.000
 -10849669.31949  -8428606.75546  22999558.035    22999558.388    22999569.620
       223.000         171.000
 -15172713.56849 -11798417.03847  20345540.332    20345540.068    20345549.463
       238.000         202.000
 -11695848.81749  -9098668.08647  19600701.431    19600701.420    19600711.005
       231.000         199.000
   4110743.62249   3197111.84546  23144019.515    23144018.599    23144032.794
       218.000         164.000
  -6702829.67849  -4558040.62045  23577317.532    23577317.855    23577338.864
       210.000         143.000
    442524.37849    352335.17247  21568518.572    21568518.242    21568528.881
       236.000         197.000
 00  5 23 16 31 59.9980000  0  7G16G30G 5G24G 7G10G 9
  -4966051.76949  -3842099.95745  23923104.688    23923104.552    23923119.606
       209.000         144.000
 -10982816.23749  -8532357.55946  22974220.932    22974221.374    22974232.576
       223.000         170.000
 -15263585.80749 -11869226.54647  20328247.932    20328247.644    20328257.018
       238.000         202.000
 -11742217.68549  -9134799.64847  19591877.724    19591877.712    19591887.298
       231.000         197.000
   4144122.05049   3223120.85245  23150371.410    23150370.443    23150384.622
       220.000         162.000
  -6837747.81849  -4663171.24445  23551643.452    23551643.611    23551664.350
       211.000         145.000
    478768.33549    380577.10447  21575415.686    21575415.351    21575425.979
       235.000         195.000
 00  5 23 16 32 29.9980000  0  7G16G30G 5G24G 7G10G 9
  -4962852.76149  -3839607.16045  23923713.702    23923713.302    23923728.496
       209.000         146.000
 -11115848.48149  -8636019.02146  22948905.738    22948906.175    22948917.332
       221.000         169.000
 -15354093.32549 -11939751.86547  20311024.969    20311024.646    20311033.987
       238.000         202.000
 -11788026.79049  -9170495.04747  19583160.539    19583160.531    19583170.135
       231.000         199.000
   4177571.73749   3249185.37946  23156736.840    23156735.816    23156750.066
       217.000         163.000
  -6972642.22249  -4768283.40045  23525973.622    23525973.856    23525994.357
       211.000         141.000
    515397.55749    409119.23947  21582386.086    21582385.760    21582396.406
       235.000         195.000
 00  5 23 16 32 59.9970000  0  7G16G30G 5G24G 7G10G 9
  -4959137.99949  -3836712.43745  23924420.572    23924420.221    23924435.359
       211.000         147.000
 -11248798.70549  -8739616.55046  22923606.134    22923606.582    22923617.700
       223.000         169.000
 -15444270.09749 -12010019.45247  20293864.843    20293864.547    20293873.874
       238.000         202.000
 -11833313.95049  -9205783.73047  19574542.726    19574542.678    19574552.263
       232.000         198.000
   4211052.68149   3275274.25745  23163108.146    23163107.153    23163121.486
       215.000         162.000
  -7107544.91249  -4873402.03645  23500302.175    23500302.286    23500322.731
       210.000         143.000
    552368.86349    437927.93647  21589421.558    21589421.251    21589431.906
       236.000         194.000
 00  5 23 16 33 29.9970000  0  7G16G30G 5G24G 7G10G 9
  -4954881.80249  -3833395.91045  23925230.264    23925230.016    23925245.189
       205.000         144.000
 -11381647.26849  -8843134.87546  22898325.872    22898326.323    22898337.409
       226.000         172.000
 -15534093.44849 -12080011.64547  20276772.030    20276771.718    20276781.018
       240.000         202.000
 -11878056.31549  -9240647.88847  19566028.551    19566028.502    19566038.059
       232.000         198.000
   4244593.30249   3301409.63345  23169490.907    23169489.888    23169504.206
       217.000         159.000
  -7242434.92849  -4978510.81645  23474633.208    23474633.384    23474653.502
       211.000         144.000
    589708.84249    467023.91947  21596527.219    21596526.902    21596537.540
       235.000         194.000
 00  5 23 16 33 59.9970000  0  7G16G30G 5G24G 7G10G 9
  -4950105.04649  -3829673.70245  23926139.065    23926138.845    23926153.927
       206.000         145.000
 -11514407.22149  -8946584.16146  22873062.501    22873062.909    22873073.999
       229.000         175.000
 -15623578.21849 -12149740.01847  20259743.671    20259743.340    20259752.602
       238.000         202.000
 -11922272.66049  -9275102.16447  19557614.450    19557614.403    19557623.955
       231.000         197.000
   4278172.85549   3327575.34745  23175881.120    23175880.011    23175894.366
       216.000         159.000
  -7377324.30149  -5083619.05845  23448964.305    23448964.494    23448984.455
       211.000         145.000
    627393.75249    496388.67147  21603698.544    21603698.193    21603708.868
       234.000         193.000
 00  5 23 16 34 29.9970000  0  7G16G30G 5G24G 7G10G 9
  -4944814.78649  -3825551.38045  23927145.919    23927145.608    23927160.600
       209.000         144.000
 -11647082.69549  -9049967.62846  22847815.196    22847815.611    22847826.661
       229.000         173.000
 -15712728.53149 -12219207.76847  20242778.894    20242778.572    20242787.843
       238.000         203.000
 -11965969.32449  -9309151.49647  19549299.267    19549299.203    19549308.745
       231.000         197.000
   4311785.21249   3353766.62845  23182277.524    23182276.347    23182290.752
       214.000         158.000
  -7512216.27949  -5188729.35345  23423294.891    23423295.095    23423314.904
       211.000         147.000
    665414.79649    526015.35747  21610933.911    21610933.493    21610944.127
       234.000         193.000
 00  5 23 16 34 59.9970000  0  7G16G30G 5G24G 7G10G 9
  -4939021.22749  -3821036.87445  23928248.333    23928247.964    23928263.052
       207.000         144.000
 -11779681.00849  -9153290.97746  22822582.571    22822583.003    22822593.940
       228.000         170.000
 -15801551.30949 -12288420.30547  20225876.501    20225876.180    20225885.405
       239.000         203.000
 -12009156.01349  -9342803.44747  19541081.121    19541081.064    19541090.581
       231.000         198.000
   4345421.27749   3379976.37245  23188678.294    23188677.158    23188691.611
       214.000         160.000
  -7647116.84749  -5293846.32145  23397623.932    23397624.082    23397643.796
       207.000         147.000
    703760.29149    555894.84547  21618230.816    21618230.464    21618241.132
       233.000         193.000
 00  5 23 16 35 29.9970000  0  7G16G30G 5G24G 7G10G 9
  -4932703.00349  -3816113.53745  23929450.514    23929450.224    23929465.283
       207.000         149.000
 -11912177.73449  -9256535.18146  22797369.309    22797369.718    22797380.465
       225.000         164.000
 -15890022.25049 -12357358.67847  20209041.027    20209040.693    20209049.911
       238.000         203.000
 -12051810.99249  -9376041.08047  19532964.193    19532964.100    19532973.587
       231.000         198.000
   4379103.35449   3406221.96745  23195087.955    23195086.762    23195101.241
       217.000         160.000
  -7782001.11649  -5398950.58945  23371955.771    23371956.132    23371975.762
       210.000         151.000
    742449.58949    586042.21747  21625593.141    21625592.818    21625603.593
       233.000         194.000
 00  5 23 16 35 59.9970000  0  7G16G30G 5G24G 7G10G 9
  -4925876.91549  -3810794.45245  23930749.385    23930749.193    23930764.181
       209.000         149.000
 -12044586.35049  -9359710.71646  22772172.833    22772173.194    22772183.704
       226.000         163.000
 -15978154.79449 -12426033.36447  20192269.939    20192269.610    20192278.831
       240.000         203.000
 -12093950.40449  -9408876.96547  19524945.318    19524945.230    19524954.694
       233.000         198.000
   4412815.77949   3432491.20546  23201503.313    23201502.154    23201516.675
       219.000         163.000
  -7916881.27749  -5504051.66645  23346288.737    23346289.038    23346308.621
       213.000         152.000
    781464.37649    616443.23347  21633017.511    21633017.173    21633027.973
       235.000         194.000
 00  5 23 16 36 29.9970000  0  7G16G30G 5G24G 7G10G 9
  -4918535.04949  -3805073.47145  23932146.440    23932146.220    23932161.248
       205.000         149.000
 -12176895.78249  -9462808.94146  22746995.148    22746995.512    22747005.892
       223.000         166.000
 -16065937.82549 -12494435.70347  20175565.371    20175565.046    20175574.264
       239.000         204.000
 -12135565.74249  -9441304.48847  19517026.157    19517026.100    19517035.546
       230.000         198.000
   4446567.69949   3458791.21446  23207926.121    23207925.012    23207939.709
       218.000         164.000
  -8051744.49149  -5609139.58445  23320624.907    23320625.175    23320644.659
       210.000         151.000
    820811.22749    647102.99647  21640505.079    21640504.740    21640515.522
       236.000         194.000
 00  5 23 16 36 59.9970000  0  7G16G30G 5G24G 7G10G 9
  -4910681.35749  -3798953.72045  23933640.804    23933640.629    23933655.730
       208.000         144.000
 -12309106.93349  -9565830.59546  22721836.064    22721836.480    22721846.847
       224.000         166.000
 -16153372.21349 -12562566.38447  20158927.204    20158926.839    20158936.039
       240.000         202.000
 -12176660.58049  -9473326.43747  19509206.080    19509206.019    19509215.457
       232.000         196.000
   4480356.29549   3485119.81046  23214355.912    23214354.899    23214369.704
       219.000         163.000
  -8186591.39149  -5714214.73245  23294964.370    23294964.404    23294983.962
       212.000         149.000
    860484.30949    678016.97447  21648054.791    21648054.421    21648065.178
       237.000         193.000
 00  5 23 16 37 29.9970000  0  7G16G30G 5G24G 7G10G 9
  -4902316.06049  -3792435.25845  23935232.657    23935232.456    23935247.491
       206.000         143.000
 -12441216.83349  -9668773.33546  22696696.229    22696696.710    22696707.145
       224.000         169.000
 -16240455.21749 -12630423.23947  20142355.806    20142355.482    20142364.708
       240.000         203.000
 -12217234.69349  -9504942.61047  19501485.069    19501485.013    19501494.464
       232.000         197.000
   4514182.32949   3511477.59645  23220793.078    23220791.980    23220806.761
       218.000         162.000
  -8321417.62649  -5819273.82545  23269307.481    23269307.580    23269327.029
       213.000         148.000
    900481.69749    709183.65747  21655666.104    21655665.758    21655676.581
       237.000         193.000
 00  5 23 16 37 59.9970000  0  7G16G30G 5G24G 7G10G 9
  -4893424.43449  -3785506.69245  23936924.629    23936924.383    23936939.537
       206.000         145.000
 -12573207.41249  -9771623.08646  22671579.133    22671579.638    22671590.148
       224.000         171.000
 -16327168.78449 -12697992.23347  20125854.719    20125854.420    20125863.641
       238.000         203.000
 -12257273.02249  -9536141.29347  19493865.970    19493865.945    19493875.400
       231.000         197.000
   4548061.61249   3537876.86746  23227240.165    23227239.086    23227253.921
       217.000         163.000
  -8456204.31749  -5924302.11145  23243658.149    23243658.319    23243677.550
       210.000         148.000
    940816.73149    740613.44047  21663341.704    21663341.367    21663352.207
       236.000         193.000
 00  5 23 16 38 29.9970000  0  7G16G30G 5G24G 7G10G 9
  -4884026.14049  -3778183.30545  23938713.001    23938712.873    23938727.815
       202.000         146.000
 -12705095.25249  -9874392.80346  22646481.687    22646482.158    22646492.737
       226.000         173.000
 -16413529.06249 -12765285.94347  20109420.885    20109420.595    20109429.812
       238.000         204.000
 -12296794.08449  -9566936.91847  19486345.347    19486345.338    19486354.765
       233.000         197.000
   4581976.14749   3564303.58646  23233693.990    23233692.939    23233707.864
       216.000         166.000
  -8590966.55449  -6029311.32145  23218013.286    23218013.645    23218032.743
       209.000         149.000
    981468.23949    772289.81347  21671077.572    21671077.209    21671088.042
       237.000         193.000
 00  5 23 16 38 59.9970000  0  7G16G30G 5G24G 7G10G 9
  -4874126.75849  -3770469.47745  23940596.776    23940596.500    23940611.535
       212.000         148.000
 -12836882.39749  -9977084.04446  22621403.409    22621403.893    22621414.499
       228.000         175.000
 -16499538.75149 -12832306.45647  20093053.792    20093053.488    20093062.709
       238.000         203.000
 -12335803.33049  -9597333.72247  19478922.129    19478922.111    19478931.548
       232.000         197.000
   4615921.13249   3590754.03846  23240153.777    23240152.601    23240167.562
       215.000         164.000
  -8725705.72449  -6134302.54745  23192372.993    23192373.386    23192392.430
       211.000         149.000
   1022428.69749    804206.93947  21678872.130    21678871.805    21678882.639
       235.000         193.000
 00  5 23 16 39 29.9970000  0  7G16G30G 5G24G 7G10G 9
  -4863694.02349  -3762340.07845  23942582.263    23942581.847    23942596.685
       211.000         149.000
 -12968533.23149 -10079669.08746  22596351.170    22596351.621    22596362.251
       229.000         177.000
 -16585162.23349 -12899026.03847  20076760.141    20076759.859    20076769.073
       237.000         203.000
 -12374267.89849  -9627306.10547  19471602.569    19471602.542    19471611.971
       231.000         197.000
   4649930.33349   3617254.50045  23246625.526    23246624.428    23246639.498
       214.000         162.000
  -8860385.21649  -6239247.28345  23166744.146    23166744.434    23166763.496
       213.000         151.000
   1063729.11149    836388.96147  21686731.424    21686731.103    21686741.925
       235.000         191.000
 00  5 23 16 39 59.9970000  0  7G16G30G 5G24G 7G10G 9
  -4852779.33649  -3753835.08245  23944659.017    23944658.723    23944673.544
       210.000         147.000
 -13100096.01249 -10182185.52646  22571315.695    22571316.095    22571326.764
       228.000         177.000
 -16670447.89549 -12965482.38247  20060530.764    20060530.505    20060539.737
       237.000         203.000
 -12412238.80749  -9656893.81847  19464376.952    19464376.920    19464386.361
       231.000         197.000
   4683953.42549   3643765.83245  23253099.894    23253098.902    23253114.020
       216.000         161.000
  -8995052.43049  -6344182.46645  23141117.519    23141117.854    23141136.833
       210.000         149.000
   1105316.55949    868794.64247  21694645.357    21694645.049    21694655.855
       236.000         192.000
 00  5 23 16 40 29.9970000  0  7G16G30G 5G24G 7G10G 9
  -4841345.25049  -3744925.39345  23946834.974    23946834.574    23946849.356
       208.000         146.000
 -13231529.59049 -10284601.26146  22546304.751    22546305.111    22546315.802
       227.000         172.000
 -16755354.33549 -13031643.22347  20044373.611    20044373.347    20044382.557
       238.000         203.000
 -12449677.64849  -9686066.93247  19457252.565    19457252.546    19457261.958
       231.000         196.000
   4718029.50749   3670318.43945  23259584.468    23259583.477    23259598.647
       211.000         161.000
  -9129664.71349  -6449074.81345  23115501.499    23115501.743    23115520.670
       214.000         151.000
   1147227.19449    901452.16247  21702620.857    21702620.499    21702631.293
       236.000         191.000
 00  5 23 16 40 59.9970000  0  7G16G30G 5G24G 7G10G 9
  -4829392.59249  -3735611.61845  23949109.309    23949108.982    23949123.875
       210.000         142.000
 -13362831.51149 -10386914.41746  22521318.747    22521319.168    22521329.855
       226.000         171.000
 -16839879.27849 -13097506.79847  20028289.081    20028288.785    20028297.949
       238.000         203.000
 -12486585.09149  -9714825.96847  19450229.290    19450229.270    19450238.712
       232.000         197.000
   4752158.93149   3696912.61345  23266079.200    23266078.220    23266093.526
       213.000         162.000
  -9264219.02549  -6553922.00745  23089896.591    23089896.739    23089915.534
       213.000         151.000
   1189458.41449    934359.47947  21710657.327    21710656.932    21710667.717
       235.000         190.000
 00  5 23 16 41 29.9970000  0  7G16G30G 5G24G 7G10G 9
  -4816937.31549  -3725906.15345  23951479.483    23951479.235    23951493.827
       208.000         140.000
 -13494014.31949 -10489134.75746  22496355.401    22496355.892    22496366.538
       226.000         169.000
 -16924035.42849 -13163083.00347  20012274.717    20012274.403    20012283.532
       238.000         203.000
 -12522976.42249  -9743182.84047  19443304.221    19443304.215    19443313.665
       231.000         196.000
   4786326.95349   3723536.85945  23272581.461    23272580.358    23272595.694
       213.000         158.000
  -9398726.96049  -6658733.03445  23064300.305    23064300.466    23064319.136
       213.000         155.000
   1231992.67049    967502.92247  21718751.359    21718751.008    21718761.808
       235.000         189.000
 00  5 23 16 41 59.9970000  0  7G16G30G 5G24G 7G10G 9
  -4803949.60349  -3715785.83645  23953950.983    23953950.547    23953965.036
       211.000         143.000
 -13625044.75349 -10591236.40246  22471421.072    22471421.583    22471432.183
       228.000         169.000
 -17007789.62149 -13228345.99747  19996336.841    19996336.509    19996345.609
       238.000         203.000
 -12558821.39949  -9771113.98847  19436483.177    19436483.142    19436492.578
       231.000         197.000
   4820565.09849   3750215.74545  23279096.871    23279095.801    23279111.182
       215.000         158.000
  -9533153.94949  -6763480.97645  23038719.377    23038719.556    23038738.195
       213.000         157.000
   1274858.53349   1000904.76747  21726908.528    21726908.192    21726919.063
       236.000         190.000
 00  5 23 16 42 29.9970000  0  7G16G30G 5G24G 7G10G 9
  -4790454.92949  -3705270.45845  23956518.822    23956518.418    23956532.992
       213.000         143.000
 -13755944.59749 -10693236.28646  22446511.711    22446512.161    22446522.715
       228.000         167.000
 -17091164.07549 -13293313.08747  19980471.179    19980470.867    19980479.953
       240.000         203.000
 -12594144.77349  -9798638.68847  19429761.377    19429761.325    19429770.759
       234.000         196.000
   4854848.92049   3776930.22045  23285621.048    23285619.969    23285635.348
       212.000         155.000
  -9667520.90149  -6868182.12645  23013149.812    23013150.044    23013168.736
       213.000         157.000
   1318028.93449   1034543.92447  21735123.762    21735123.359    21735134.242
       237.000         189.000
 00  5 23 16 42 59.9970000  0  7G16G30G 5G24G 7G10G 9
  -4776453.85949  -3694360.45745  23959183.184    23959182.786    23959197.375
       214.000         147.000
 -13886711.04849 -10795132.18846  22421627.724    22421628.104    22421638.730
       225.000         167.000
 -17174155.93049 -13357982.04547  19964678.354    19964678.041    19964687.104
       239.000         203.000
 -12628946.80349  -9825757.14247  19423138.789    19423138.726    19423148.150
       231.000         197.000
   4889179.30749   3803680.98045  23292154.015    23292153.002    23292168.372
       214.000         156.000
  -9801823.93749  -6972833.47345  22987592.498    22987592.742    22987611.346
       214.000         155.000
   1361501.95049   1068418.87147  21743396.457    21743396.103    21743407.040
       234.000         189.000
 00  5 23 16 43 29.9970000  0  7G16G30G 5G24G 7G10G 9
  -4761953.41549  -3683061.36645  23961942.518    23961942.100    23961956.790
       211.000         148.000
 -14017347.61849 -10896926.88646  22396768.474    22396768.798    22396779.460
       227.000         173.000
 -17256768.90149 -13422355.78147  19948957.677    19948957.342    19948966.377
       239.000         203.000
 -12663233.74649  -9852474.23447  19416614.220    19416614.145    19416623.556
       231.000         196.000
   4923550.79049   3830463.75345  23298694.941    23298693.883    23298709.125
       214.000         155.000
  -9936065.25749  -7077436.75945  22962047.213    22962047.257    22962065.686
       213.000         156.000
   1405268.86649   1102522.82147  21751725.139    21751724.759    21751735.805
       233.000         188.000
 00  5 23 16 43 59.9970000  0  8G16G30G 5G24G 7G10G 9G 6
  -4746931.67749  -3671356.04145  23964801.105    23964800.658    23964815.179
       210.000         144.000
 -14147828.76549 -10998600.50246  22371938.800    22371939.094    22371949.758
       233.000         180.000
 -17338977.66949 -13486414.55447  19933313.879    19933313.552    19933322.527
       240.000         203.000
 -12696983.29649  -9878772.59047  19410191.847    19410191.800    19410201.223
       233.000         197.000
   4957986.85749   3857296.87345  23305248.114    23305247.018    23305262.138
       215.000         153.000
 -10070218.75749  -7181971.59045  22936518.422    22936518.452    22936536.727
       214.000         155.000
   1449350.35649   1136871.88846  21760113.613    21760113.267    21760124.350
       234.000         187.000
   -333410.59759   -243786.64355  24209911.894    24209912.459    24209927.509
       211.000         151.000
 00  5 23 16 44 29.9970000  0  8G16G30G 5G24G 7G10G 9G 6
  -4731414.24949  -3659264.53545  23967753.994    23967753.504    23967767.905
       206.000         139.000
 -14278176.37849 -11100170.04246  22347134.468    22347134.784    22347145.465
       229.000         181.000
 -17420803.99849 -13550175.31247  19917742.859    19917742.498    19917751.471
       238.000         203.000
 -12730220.15749  -9904671.43347  19403867.030    19403867.018    19403876.445
       231.000         196.000
   4992463.40149   3884161.49345  23311809.068    23311807.881    23311822.941
       216.000         155.000
 -10204305.22649  -7286454.19745  22911002.354    22911002.406    22911020.565
       214.000         157.000
   1493719.61549   1171445.21646  21768556.941    21768556.579    21768567.691
       233.000         186.000
   -442682.88149   -328933.81145  24189118.256    24189118.475    24189134.257
       211.000         152.000
 00  5 23 16 44 59.9970000  0  8G16G30G 5G24G 7G10G 9G 6
  -4715425.95349  -3646806.11245  23970796.237    23970795.880    23970810.232
       203.000         138.000
 -14408411.58449 -11201651.98046  22322351.415    22322351.806    22322362.544
       228.000         181.000
 -17502269.69049 -13613655.05547  19902240.457    19902240.089    19902249.063
       238.000         203.000
 -12762969.10149  -9930190.08547  19397635.115    19397635.098    19397644.513
       231.000         196.000
   5026956.95649   3911039.39845  23318373.034    23318371.904    23318387.036
       213.000         155.000
 -10338344.93449  -7390900.39245  22885495.155    22885495.274    22885513.248
       213.000         157.000
   1538350.15749   1206222.13746  21777049.995    21777049.571    21777060.709
       232.000         185.000
   -551946.65459   -414074.35455  24168326.174    24168326.932    24168341.757
       213.000         155.000
 00  5 23 16 45 29.9970000  0  8G16G30G 5G24G 7G10G 9G 6
  -4698940.27849  -3633960.10945  23973933.316    23973932.864    23973947.210
       209.000         138.000
 -14538504.42249 -11303022.98746  22297595.462    22297595.919    22297606.703
       229.000         180.000
 -17583344.51449 -13676830.23547  19886812.416    19886812.057    19886821.006
       238.000         203.000
 -12795202.64649  -9955307.13547  19391501.297    19391501.250    19391510.663
       231.000         196.000
   5061495.73049   3937952.54745  23324945.697    23324944.525    23324959.712
       219.000         156.000
 -10472306.35449  -7495285.56945  22860002.703    22860002.878    22860020.859
       215.000         156.000
   1583267.44749   1241222.48246  21785597.555    21785597.120    21785608.339
       230.000         185.000
   -661173.82449   -499186.34245  24147541.055    24147541.208    24147556.564
       214.000         156.000
 00  5 23 16 45 59.9970000  0  8G16G30G 5G24G 7G10G 9G 6
  -4681973.83249  -3620739.46845  23977161.836    23977161.435    23977175.709
       210.000         137.000
 -14668467.60149 -11404292.97546  22272864.319    22272864.754    22272875.518
       229.000         179.000
 -17664041.91149 -13739711.30747  19871456.197    19871455.845    19871464.792
       239.000         204.000
 -12826937.17849  -9980035.34247  19385462.392    19385462.362    19385471.772
       230.000         196.000
   5096064.55149   3964889.10945  23331524.220    23331522.957    23331538.101
       216.000         158.000
 -10606201.83649  -7599619.37545  22834522.960    22834523.105    22834541.061
       211.000         153.000
   1628453.23649   1276432.04846  21794196.060    21794195.745    21794207.059
       230.000         186.000
   -770379.55949   -584281.64245  24126759.897    24126759.910    24126775.404
       216.000         156.000
 00  5 23 16 46 29.9970000  0  8G16G30G 5G24G 7G10G 9G 6
  -4664518.85449  -3607138.15645  23980483.304    23980483.106    23980497.279
       205.000         136.000
 -14798289.37049 -11505452.77246  22248160.116    22248160.489    22248171.277
       228.000         179.000
 -17744350.34249 -13802289.30247  19856174.007    19856173.641    19856182.595
       239.000         203.000
 -12858164.11649 -10004368.03147  19379520.092    19379520.066    19379529.500
       231.000         197.000
   5130672.92349   3991856.45045  23338110.272    23338108.999    23338124.017
       218.000         160.000
 -10740018.86349  -7703892.06445  22809058.108    22809058.366    22809076.130
       215.000         155.000
   1673914.20449   1311856.01946  21802847.158    21802846.786    21802858.159
       231.000         186.000
   -879554.69849   -669353.09845  24105984.527    24105984.564    24105999.930
       218.000         157.000
 00  5 23 16 46 59.9970000  0  8G16G30G 5G24G 7G10G 9G 6
  -4646549.92849  -3593136.36845  23983902.808    23983902.484    23983916.725
       211.000         141.000
 -14927940.99549 -11606479.96846  22223488.251    22223488.565    22223499.374
       228.000         178.000
 -17824240.92749 -13864541.68947  19840971.339    19840970.962    19840979.913
       239.000         204.000
 -12888857.82649 -10028285.20647  19373679.308    19373679.259    19373688.661
       232.000         197.000
   5165347.65349   4018875.50945  23344708.713    23344707.566    23344722.549
       218.000         159.000
 -10873727.16449  -7808080.06845  22783613.930    22783614.261    22783631.801
       217.000         154.000
   1719674.06049   1347512.90846  21811555.051    21811554.681    21811566.091
       232.000         187.000
   -988672.55149   -754379.92245  24085220.123    24085220.110    24085235.481
       220.000         156.000
 00  5 23 16 47 29.9970000  0  8G16G30G 5G24G 7G10G 9G 6
  -4628082.10649  -3578745.85445  23987417.220    23987416.871    23987430.978
       205.000         140.000
 -15057433.62249 -11707383.28246  22198846.648    22198846.935    22198857.747
       231.000         177.000
 -17903725.34449 -13926477.58947  19825845.997    19825845.601    19825854.512
       240.000         204.000
 -12919032.62549 -10051798.04647  19367937.287    19367937.212    19367946.592
       234.000         196.000
   5200075.39149   4045935.88645  23351317.318    23351316.179    23351331.233
       215.000         157.000
 -11007336.95149  -7912191.28645  22758188.575    22758188.903    22758206.359
       217.000         158.000
   1765716.71749   1383390.15346  21820316.811    21820316.442    21820327.824
       233.000         185.000
  -1097746.57049   -839372.57445  24064464.104    24064464.027    24064479.391
       222.000         156.000
 00  5 23 16 47 59.9970000  0  8G16G30G 5G24G 7G10G 9G 6
  -4609137.05749  -3563983.49445  23991022.261    23991021.926    23991036.240
       206.000         139.000
 -15186785.06149 -11808176.59146  22174231.901    22174232.183    22174242.962
       230.000         176.000
 -17982821.60549 -13988111.02647  19810794.514    19810794.103    19810802.984
       241.000         204.000
 -12948709.57349 -10074922.93847  19362289.944    19362289.876    19362299.255
       233.000         197.000
   5234836.22949   4073022.03845  23357932.225    23357931.122    23357946.261
       212.000         157.000
 -11140865.38749  -8016239.12645  22732778.747    22732779.033    22732796.439
       217.000         157.000
   1812019.08449   1419469.78346  21829128.025    21829127.603    21829138.941
       234.000         185.000
  -1206797.09649   -924346.91545  24043712.490    24043712.451    24043727.837
       221.000         155.000
 00  5 23 16 48 29.9970000  0  8G16G30G 5G24G 7G10G 9G 6
  -4589687.24849  -3548827.71545  23994723.410    23994722.993    23994737.572
       207.000         142.000
 -15315963.99649 -11908835.47946  22149649.923    22149650.212    22149661.026
       228.000         175.000
 -18061498.90949 -14049418.01147  19795822.695    19795822.297    19795831.168
       238.000         204.000
 -12977860.57649 -10097638.00847  19356742.698    19356742.626    19356751.990
       232.000         198.000
   5269659.33049   4100156.67745  23364559.002    23364557.934    23364573.103
       215.000         160.000
 -11274279.90749  -8120198.21145  22707390.540    22707390.829    22707408.135
       216.000         160.000
   1858607.60849   1455772.36546  21837993.750    21837993.244    21838004.560
       230.000         186.000
  -1315794.96049  -1009280.20245  24022970.794    24022970.802    24022986.150
       219.000         156.000
 00  5 23 16 48 59.9970000  0  8G16G30G 5G24G 7G10G 9G 6
  -4569766.64049  -3533305.15545  23998514.081    23998513.775    23998528.583
       202.000         139.000
 -15445000.67949 -12009383.51346  22125095.004    22125095.318    22125106.147
       227.000         177.000
 -18139787.96949 -14110422.46247  19780924.797    19780924.390    19780933.234
       239.000         203.000
 -13006519.39049 -10119969.55747  19351289.119    19351289.035    19351298.400
       232.000         197.000
   5304512.13849   4127314.49845  23371191.545    23371190.399    23371205.621
       214.000         159.000
 -11407610.16749  -8224091.64945  22682018.403    22682018.693    22682035.890
       215.000         156.000
   1905446.74349   1492270.24546  21846907.054    21846906.565    21846917.865
       231.000         186.000
  -1424772.69849  -1094197.80345  24002232.954    24002233.027    24002248.315
       219.000         155.000
 00  5 23 16 49 29.9970000  0  8G16G30G 5G24G 7G10G 9G 6
  -4549359.84849  -3517403.75045  24002397.447    24002397.111    24002411.781
       200.000         136.000
 -15573875.61649 -12109805.50646  22100570.876    22100571.210    22100582.060
       231.000         180.000
 -18217669.24649 -14171109.16947  19766104.442    19766104.070    19766112.915
       240.000         203.000
 -13034669.62049 -10141904.81047  19345932.371    19345932.239    19345941.601
       234.000         197.000
   5339412.15549   4154509.10445  23377832.934    23377831.776    23377847.092
       214.000         155.000
 -11540835.48749  -8327903.31445  22656666.135    22656666.467    22656683.538
       215.000         154.000
   1952551.11349   1528974.79246  21855870.882    21855870.391    21855881.688
       233.000         186.000
  -1533713.07249  -1179086.29445  23981502.306    23981502.315    23981517.615
       221.000         153.000
 00  5 23 16 49 59.9970000  0  8G16G30G 5G24G 7G10G 9G 6
  -4528470.83849  -3501126.59345  24006372.550    24006372.016    24006386.913
       204.000         132.000
 -15702588.88849 -12210101.52246  22076077.595    22076077.905    22076088.745
       233.000         181.000
 -18295143.13249 -14231478.42247  19751361.629    19751361.271    19751370.107
       240.000         203.000
 -13062314.90149 -10163446.59547  19340671.699    19340671.552    19340680.895
       234.000         197.000
   5374356.92949   4181738.56945  23384482.881    23384481.660    23384497.132
       212.000         157.000
 -11673954.54449  -8431632.18445  22631334.131    22631334.470    22631351.467
       217.000         156.000
   1999915.29349   1565881.78846  21864884.099    21864883.601    21864894.963
       232.000         187.000
  -1642618.81549  -1263947.79645  23960778.130    23960778.220    23960793.487
       221.000         155.000
 00  5 23 16 50 29.9970000  0  8G16G30G 5G24G 7G10G 9G 6
  -4507080.56949  -3484458.80445  24010443.070    24010442.508    24010457.168
       204.000         133.000
 -15831117.57949 -12310253.72146  22051619.400    22051619.693    22051630.486
       235.000         183.000
 -18372187.42949 -14291512.93047  19736700.558    19736700.218    19736709.068
       241.000         203.000
 -13089435.62349 -10184579.62647  19335510.807    19335510.657    19335519.998
       234.000         197.000
   5409367.28849   4209019.12745  23391144.984    23391143.963    23391159.605
       217.000         153.000
 -11806943.75949  -8535259.92545  22606027.128    22606027.245    22606044.067
       217.000         155.000
   2047556.93349   1603004.98246  21873950.047    21873949.594    21873961.039
       232.000         187.000
  -1751469.15949  -1348766.13545  23940064.587    23940064.675    23940079.885
       220.000         156.000
 00  5 23 16 50 59.9970000  0  8G16G30G 5G24G 7G10G 9G 6
  -4485202.69349  -3467411.10245  24014606.294    24014605.639    24014620.357
       205.000         133.000
 -15959471.48649 -12410269.73946  22027194.504    22027194.764    22027205.445
       233.000         181.000
 -18448811.98849 -14351220.37047  19722119.406    19722119.052    19722127.877
       240.000         203.000
 -13116044.90749 -10205314.13447  19330447.201    19330447.074    19330456.430
       233.000         197.000
   5444431.41849   4236341.61145  23397817.706    23397816.645    23397832.248
       211.000         152.000
 -11939811.62749  -8638793.07445  22580743.138    22580743.105    22580759.842
       216.000         158.000
   2095461.07749   1640332.72146  21883065.971    21883065.561    21883077.036
       232.000         187.000
  -1860276.14549  -1433550.70345  23919359.286    23919359.331    23919374.614
       218.000         155.000
 00  5 23 16 51 29.9970000  0  8G16G30G 5G24G 7G10G 9G 6
  -4462823.49749  -3449972.75445  24018864.707    24018864.199    24018879.026
       208.000         134.000
 -16087632.97749 -12510135.81146  22002806.146    22002806.413    22002817.029
       232.000         180.000
 -18524999.54649 -14410587.28747  19707621.402    19707621.041    19707629.854
       240.000         203.000
 -13142128.65649 -10225639.13747  19325483.621    19325483.513    19325492.855
       234.000         198.000
   5479564.73749   4263718.02045  23404503.492    23404502.461    23404518.011
       212.000         148.000
 -12072539.82349  -8742217.41045  22555485.749    22555485.569    22555502.161
       216.000         159.000
   2143640.36549   1677874.85446  21892234.352    21892233.898    21892245.380
       233.000         186.000
  -1969024.75549  -1518289.78945  23898665.057    23898665.131    23898680.410
       216.000         152.000
 00  5 23 16 51 59.9970000  0  8G16G30G 5G24G 7G10G 9G 6
  -4439963.64949  -3432159.88345  24023215.077    24023214.354    24023229.112
       205.000         136.000
 -16215618.50549 -12609864.75046  21978451.169    21978451.529    21978462.151
       230.000         182.000
 -18600767.15349 -14469626.97047  19693203.292    19693202.918    19693211.716
       238.000         202.000
 -13167706.56649 -10245569.98647  19320616.299    19320616.201    19320625.516
       232.000         197.000
   5514748.66949   4291133.85745  23411198.860    23411197.874    23411213.524
       211.000         149.000
 -12205143.96549  -8845545.05745  22530251.828    22530251.638    22530268.166
       217.000         160.000
   2192073.18649   1715614.55547  21901450.949    21901450.464    21901461.998
       232.000         188.000
  -2077733.71549  -1602997.97245  23877978.302    23877978.412    23877993.720
       212.000         149.000
 00  5 23 16 52 29.9970000  0  8G16G30G 5G24G 7G10G 9G 6
  -4416635.45349  -3413982.05445  24027654.318    24027653.641    24027667.956
       204.000         136.000
 -16343436.47749 -12709463.12946  21954128.158    21954128.561    21954139.153
       230.000         182.000
 -18676123.59349 -14528346.26247  19678863.381    19678863.041    19678871.839
       238.000         202.000
 -13192790.75449 -10265116.10347  19315842.970    19315842.845    19315852.145
       232.000         197.000
   5549972.42749   4318580.74845  23417901.960    23417900.909    23417916.671
       215.000         153.000
 -12337631.69049  -8948782.00845  22505040.213    22505039.890    22505056.342
       217.000         160.000
   2240745.70049   1753541.01746  21910713.112    21910712.628    21910724.265
       231.000         186.000
  -2186413.82149  -1687683.69945  23857296.944    23857297.156    23857312.483
       210.000         148.000
 00  5 23 16 52 59.9970000  0  8G16G30G 5G24G 7G10G 9G 6
  -4392831.89549  -3395433.78345  24032183.714    24032183.120    24032197.506
       199.000         132.000
 -16471075.72749 -12808922.24546  21929839.155    21929839.606    21929850.194
       229.000         181.000
 -18751057.96049 -14586736.67447  19664603.909    19664603.507    19664612.270
       238.000         202.000
 -13217373.39149 -10284271.41247  19311165.070    19311164.928    19311174.223
       232.000         197.000
   5585244.86149   4346065.59545  23424614.395    23424613.238    23424629.051
       215.000         149.000
 -12469990.64149  -9051918.60545  22479852.908    22479852.637    22479868.980
       218.000         161.000
   2289664.00049   1791659.00146  21920022.058    21920021.573    21920033.256
       231.000         185.000
  -2295056.33049  -1772340.11845  23836622.882    23836623.121    23836638.395
       211.000         148.000
 00  5 23 16 53 29.9970000  0  8G16G30G 5G24G 7G10G 9G 6
  -4368557.51649  -3376518.65245  24036802.868    24036802.368    24036816.936
       204.000         134.000
 -16598536.65449 -12908242.40246  21905584.103    21905584.551    21905595.199
       229.000         182.000
 -18825571.10949 -14644798.86747  19650424.548    19650424.149    19650432.878
       240.000         202.000
 -13241458.62649 -10303039.13847  19306581.781    19306581.664    19306590.939
       233.000         196.000
   5620563.52049   4373586.43145  23431335.362    23431334.276    23431350.278
       212.000         152.000
 -12602220.42249  -9154954.55245  22454690.128    22454689.914    22454706.264
       218.000         158.000
   2338822.35949   1829964.04946  21929376.742    21929376.219    21929387.932
       233.000         185.000
  -2403664.10649  -1856969.48245  23815955.467    23815955.701    23815970.919
       213.000         150.000
 00  5 23 16 53 59.9970000  0  8G16G30G 5G24G 7G10G 9G 6
  -4343803.35749  -3357229.70445  24041513.237    24041512.755    24041527.566
       200.000         134.000
 -16725806.07849 -13007413.31846  21881365.512    21881365.938    21881376.676
       229.000         184.000
 -18899650.58549 -14702523.12547  19636327.706    19636327.280    19636336.006
       237.000         203.000
 -13265036.62549 -10321411.61347  19302095.031    19302094.934    19302104.193
       232.000         197.000
   5655939.22749   4401151.73045  23438067.312    23438066.196    23438082.207
       213.000         149.000
 -12734306.72049  -9257878.70745  22429554.779    22429554.558    22429570.813
       216.000         160.000
   2388228.69149   1868462.31846  21938778.623    21938778.072    21938789.786
       232.000         185.000
  -2512226.40349  -1941563.42845  23795296.664    23795296.890    23795312.082
       213.000         150.000
 00  5 23 16 54 29.9970000  0  8G16G30G 5G24G 7G10G 9G 6
  -4318593.45149  -3337585.64745  24046310.855    24046309.983    24046324.892
       208.000         143.000
 -16852904.20049 -13106450.75546  21857179.486    21857179.928    21857190.758
       229.000         184.000
 -18973317.09749 -14759925.59347  19622309.392    19622309.006    19622317.725
       237.000         202.000
 -13288131.37249 -10339407.52347  19297700.265    19297700.152    19297709.411
       232.000         197.000
   5691349.68449   4428744.10945  23444805.863    23444804.754    23444820.720
       215.000         152.000
 -12866268.64949  -9360705.92146  22404443.004    22404442.779    22404459.093
       219.000         164.000
   2437857.92649   1907134.26846  21948222.773    21948222.302    21948234.058
       230.000         184.000
  -2620765.61449  -2026139.36045  23774642.253    23774642.491    23774657.647
       214.000         152.000
 00  5 23 16 54 59.9970000  0  8G16G30G 5G24G 7G10G 9G 6
  -4292940.49049  -3317596.28145  24051192.775    24051191.793    24051206.420
       207.000         146.000
 -16979839.50049 -13205361.32746  21833024.419    21833024.883    21833035.773
       232.000         182.000
 -19046579.47749 -14817013.15547  19608368.014    19608367.616    19608376.341
       238.000         202.000
 -13310754.67149 -10357036.07647  19293395.200    19293395.087    19293404.366
       234.000         198.000
   5726784.14549   4456355.20645  23451549.074    23451547.897    23451563.779
       216.000         148.000
 -12998113.96549  -9463442.26646  22379353.371    22379353.244    22379369.563
       218.000         165.000
   2487696.03849   1945968.97746  21957706.784    21957706.271    21957718.047
       230.000         180.000
  -2729292.73349  -2110705.86145  23753990.286    23753990.411    23754005.556
       217.000         153.000
 00  5 23 16 55 29.9960000  0  8G16G30G 5G24G 7G10G 9G 6
  -4266808.61449  -3297233.76645  24056165.380    24056164.546    24056179.311
       205.000         144.000
 -17106566.59349 -13304109.68646  21808909.014    21808909.485    21808920.357
       233.000         181.000
 -19119394.71149 -14873752.29447  19594511.719    19594511.326    19594520.071
       237.000         202.000
 -13332868.38149 -10374267.55047  19289187.092    19289186.981    19289196.276
       232.000         197.000
   5762280.35849   4484014.44045  23458303.803    23458302.729    23458318.659
       212.000         149.000
 -13129796.31749  -9566051.61345  22354294.803    22354294.712    22354311.141
       217.000         162.000
   2537777.27649   1984993.14546  21967236.960    21967236.482    21967248.297
       228.000         178.000
  -2837765.40449  -2195229.93645  23733348.487    23733348.674    23733363.717
       216.000         153.000
 00  5 23 16 55 59.9960000  0  8G16G30G 5G24G 7G10G 9G 6
  -4240210.65049  -3276508.03945  24061226.619    24061225.933    24061240.598
       202.000         138.000
 -17233104.70949 -13402710.79146  21784829.690    21784830.087    21784840.896
       233.000         184.000
 -19191778.71449 -14930155.41147  19580737.488    19580737.093    19580745.864
       237.000         202.000
 -13354488.31349 -10391114.26447  19285072.942    19285072.842    19285082.161
       232.000         198.000
   5797827.82149   4511713.60245  23465068.343    23465067.291    23465083.383
       214.000         151.000
 -13261334.31149  -9668548.47346  22329263.873    22329263.702    22329280.100
       217.000         164.000
   2588089.17049   2024197.04546  21976811.046    21976810.616    21976822.408
       229.000         179.000
  -2946203.89449  -2279727.38745  23712713.300    23712713.500    23712728.384
       216.000         152.000
 00  5 23 16 56 29.9960000  0  8G16G30G 5G24G 7G10G 9G 6
  -4213136.18549  -3255410.91245  24066378.633    24066377.951    24066392.426
       210.000         134.000
 -17359434.08949 -13501149.22846  21760790.055    21760790.404    21760801.211
       236.000         185.000
 -19263714.24549 -14986209.06347  19567048.632    19567048.224    19567056.998
       239.000         201.000
 -13375601.90149 -10407566.42047  19281055.224    19281055.084    19281064.398
       235.000         196.000
   5833438.51349   4539462.02245  23471844.835    23471843.840    23471860.133
       211.000         149.000
 -13392707.12449  -9770916.61446  22304264.339    22304264.106    22304280.452
       219.000         164.000
   2638639.93149   2063587.06546  21986430.676    21986430.211    21986442.055
       231.000         179.000
  -3054591.67149  -2364185.31545  23692087.831    23692087.937    23692102.736
       220.000         155.000
 00  5 23 16 56 59.9960000  0  8G16G30G 5G24G 7G10G 9G 6
  -4185597.51249  -3233952.16545  24071619.362    24071618.485    24071632.844
       213.000         141.000
 -17485562.90349 -13599431.38146  21736788.601    21736788.896    21736799.687
       237.000         187.000
 -19335209.78149 -15041919.86447  19553443.470    19553443.061    19553451.854
       239.000         201.000
 -13396220.87549 -10423633.16447  19277131.583    19277131.440    19277140.748
       235.000         197.000
   5869102.31349   4567251.82245  23478631.584    23478630.544    23478646.924
       213.000         149.000
 -13523921.72549  -9873161.46046  22279294.706    22279294.545    22279310.871
       218.000         163.000
   2689416.58549   2103153.09846  21996093.278    21996092.824    21996104.660
       232.000         179.000
  -3162939.09249  -2448611.79845  23671469.991    23671470.064    23671484.883
       219.000         158.000
 00  5 23 16 57 29.9960000  0  8G16G30G 5G24G 7G10G 9G 6
  -4157590.54049  -3212128.47345  24076948.885    24076948.055    24076962.266
       211.000         136.000
 -17611482.52849 -13697550.53946  21712826.959    21712827.202    21712837.969
       235.000         185.000
 -19406257.24349 -15097281.51147  19539923.608    19539923.187    19539931.979
       239.000         202.000
 -13416340.19749 -10439310.57047  19273303.030    19273302.890    19273312.198
       234.000         198.000
   5904825.64149   4595087.99745  23485429.714    23485428.611    23485445.105
       214.000         152.000
 -13654968.35149  -9975275.41146  22254357.141    22254356.995    22254373.233
       220.000         167.000
   2740422.48749   2142897.76646  22005799.561    22005799.051    22005810.865
       231.000         179.000
  -3271240.03049  -2533002.05045  23650860.965    23650861.019    23650875.815
       221.000         157.000
 00  5 23 16 57 59.9960000  0  8G16G30G 5G24G 7G10G 9G 6
  -4129137.66449  -3189957.33945  24082363.325    24082362.329    24082376.549
       209.000         137.000
 -17737210.98549 -13795520.72346  21688901.542    21688901.843    21688912.600
       231.000         183.000
 -19476875.60149 -15152308.79947  19526485.377    19526484.941    19526493.733
       237.000         201.000
 -13435981.83249 -10454615.75347  19269565.353    19269565.206    19269574.527
       232.000         197.000
   5940587.69649   4622954.35645  23492235.042    23492234.027    23492250.494
       208.000         150.000
 -13785864.54049 -10077272.14646  22229448.238    22229448.101    22229464.238
       221.000         168.000
   2791633.84149   2182802.52546  22015544.968    22015544.409    22015556.215
       229.000         179.000
  -3379514.96549  -2617372.02545  23630256.818    23630256.918    23630271.629
       218.000         157.000
 00  5 23 16 58 29.9960000  0  8G16G30G 5G24G 7G10G 9G 6
  -4100209.05949  -3167415.52445  24087868.077    24087867.346    24087881.536
       206.000         144.000
 -17862714.14449 -13893315.35846  21665019.016    21665019.342    21665030.100
       231.000         184.000
 -19547031.35149 -15206975.60747  19513135.178    19513134.745    19513143.536
       237.000         201.000
 -13455115.60749 -10469525.20747  19265924.340    19265924.196    19265933.485
       232.000         197.000
   5976420.58249   4650875.94045  23499053.883    23499052.898    23499069.442
       209.000         151.000
 -13916575.34749 -10179124.41646  22204574.633    22204574.513    22204590.573
       220.000         166.000
   2843079.67949   2222890.01646  22025335.017    22025334.377    22025346.204
       229.000         178.000
  -3487732.22149  -2701697.07845  23609663.786    23609663.824    23609678.423
       219.000         158.000
 00  5 23 16 58 59.9960000  0  8G16G30G 5G24G 7G10G 9G 6
  -4070804.40149  -3144502.81645  24093463.541    24093462.871    24093477.172
       203.000         139.000
 -17987987.66449 -13990931.04246  21641180.203    21641180.564    21641191.312
       231.000         186.000
 -19616720.73149 -15261279.01747  19499873.731    19499873.269    19499882.062
       236.000         201.000
 -13473740.68449 -10484038.27147  19262380.130    19262379.968    19262389.251
       232.000         198.000
   6012326.40549   4678854.33045  23505886.656    23505885.661    23505902.284
       211.000         150.000
 -14047095.55249 -10280828.17446  22179737.313    22179737.189    22179753.141
       219.000         167.000
   2894759.09649   2263159.50546  22035169.388    22035168.758    22035180.665
       227.000         176.000
  -3595889.85449  -2785975.66945  23589082.018    23589082.077    23589096.633
       217.000         159.000
 00  5 23 16 59 29.9960000  0  8G16G30G 5G24G 7G10G 9G 6
  -4040935.93149  -3121228.56645  24099147.091    24099146.464    24099160.953
       205.000         141.000
 -18113039.14649 -14088373.69646  21617383.659    21617383.995    21617394.776
       231.000         187.000
 -19685951.70749 -15315225.22347  19486699.485    19486699.038    19486707.837
       237.000         200.000
 -13491868.49549 -10498163.85747  19258930.546    19258930.379    19258939.617
       232.000         198.000
   6048295.28349   4706881.86645  23512731.661    23512730.509    23512747.121
       212.000         149.000
 -14177431.64549 -10382388.46946  22154935.158    22154934.952    22154950.739
       220.000         168.000
   2946659.14649   2303600.91546  22045045.748    22045045.143    22045057.026
       226.000         173.000
  -3703997.99349  -2870215.67645  23568509.599    23568509.711    23568524.331
       217.000         161.000
 00  5 23 16 59 59.9960000  0  8G16G30G 5G24G 7G10G 9G 6
  -4010604.18749  -3097593.34145  24104918.999    24104918.376    24104932.987
       204.000         138.000
 -18237865.21449 -14185640.71146  21593629.977    21593630.356    21593641.122
       232.000         187.000
 -19754721.45649 -15368812.03447  19473613.004    19473612.588    19473621.366
       238.000         200.000
 -13509499.30749 -10511902.16947  19255575.530    19255575.377    19255584.609
       233.000         198.000
   6084328.56349   4734959.62745  23519588.914    23519587.607    23519604.168
       210.000         149.000
 -14307579.17149 -10483801.84246  22130168.743    22130168.517    22130184.231
       219.000         168.000
   2998778.32249   2344213.06846  22054963.766    22054963.197    22054975.084
       225.000         173.000
  -3812055.49849  -2954416.22845  23547946.902    23547946.988    23547961.656
       217.000         159.000
 00  5 23 17  0 29.9960000  0  8G16G30G 5G24G 7G10G 9G 6
  -3979827.52749  -3073611.47145  24110775.844    24110774.991    24110789.542
       203.000         136.000
 -18362479.25349 -14282742.53046  21569916.710    21569917.087    21569927.778
       232.000         185.000
 -19823044.29149 -15422050.60847  19460611.623    19460611.185    19460619.962
       238.000         200.000
 -13526650.50949 -10525266.76847  19252311.797    19252311.620    19252320.845
       233.000         197.000
   6120410.26649   4763075.09545  23526455.131    23526453.889    23526470.422
       209.000         149.000
 -14437550.95449 -10585078.28946  22105435.706    22105435.467    22105451.113
       219.000         166.000
   3051097.27849   2384980.89446  22064919.830    22064919.259    22064931.174
       227.000         174.000
  -3920078.58649  -3038589.97445  23527390.696    23527390.816    23527405.521
       217.000         158.000
 00  5 23 17  0 59.9960000  0  7G30G 5G24G 7G10G 9G 6
 -18486859.82249 -14379662.41446  21546247.697    21546248.160    21546258.815
       230.000         184.000
 -19890899.41449 -15474924.71947  19447699.277    19447698.790    19447707.566
       237.000         200.000
 -13543304.19549 -10538243.68147  19249142.695    19249142.524    19249151.766
       233.000         198.000
   6156559.99949   4791243.53745  23533334.075    23533333.037    23533349.782
       208.000         154.000
 -14567324.67849 -10686200.40146  22080740.209    22080740.070    22080755.732
       217.000         164.000
   3103632.41649   2425917.18046  22074917.067    22074916.498    22074928.445
       226.000         177.000
  -4028047.95449  -3122721.86845  23506844.713    23506844.861    23506859.595
       218.000         160.000
 00  5 23 17  1 29.9960000  0  7G30G 5G24G 7G10G 9G 6
 -18611027.83149 -14476416.65846  21522619.201    21522619.701    21522630.316
       230.000         185.000
 -19958308.38249 -15527451.17847  19434871.767    19434871.280    19434880.035
       238.000         200.000
 -13559485.31549 -10550852.36647  19246063.573    19246063.388    19246072.619
       233.000         198.000
   6192754.42249   4819446.83345  23540221.596    23540220.678    23540237.572
       209.000         153.000
 -14696920.01049 -10787183.52246  22056078.782    22056078.650    22056094.287
       218.000         166.000
   3156357.45549   2467001.42546  22084950.408    22084949.885    22084961.919
       225.000         175.000
  -4135986.78149  -3206829.95445  23486304.604    23486304.727    23486319.464
       217.000         159.000
 00  5 23 17  1 59.9960000  0  7G30G 5G24G 7G10G 9G 6
 -18734974.81849 -14572998.66946  21499032.768    21499033.311    21499043.908
       231.000         185.000
 -20025263.58649 -15579624.06147  19422130.568    19422130.109    19422138.883
       237.000         200.000
 -13575189.59949 -10563089.49447  19243075.171    19243074.968    19243084.205
       233.000         197.000
   6228999.30749   4847689.43645  23547119.192    23547118.043    23547134.925
       212.000         153.000
 -14826328.17749 -10888020.80646  22031453.047    22031452.882    22031468.477
       219.000         167.000
   3209275.08949   2508235.74346  22095020.521    22095019.949    22095032.031
       226.000         175.000
  -4243889.69449  -3290910.05845  23465771.324    23465771.419    23465786.199
       217.000         158.000
 00  5 23 17  2 29.9960000  0  7G30G 5G24G 7G10G 9G 6
 -18858693.99949 -14669403.18946  21475489.812    21475490.314    21475500.813
       235.000         186.000
 -20091759.04549 -15631438.70347  19409476.884    19409476.434    19409485.238
       239.000         200.000
 -13590414.01549 -10574952.70547  19240178.037    19240177.866    19240187.104
       235.000         197.000
   6265299.36449   4875975.03645  23554027.032    23554025.871    23554042.623
       213.000         147.000
 -14955541.32849 -10988706.14546  22006864.365    22006864.241    22006879.738
       220.000         168.000
   3262387.19649   2549621.58146  22105127.653    22105127.019    22105139.136
       227.000         173.000
  -4351752.23249  -3374958.68545  23445245.617    23445245.784    23445260.573
       219.000         155.000
 00  5 23 17  2 59.9960000  0  7G30G 5G24G 7G10G 9G 6
 -18982167.43849 -14765616.21647  21451993.618    21451994.083    21452004.474
       234.000         188.000
 -20157777.35249 -15682881.52447  19396913.961    19396913.550    19396922.392
       237.000         200.000
 -13605144.46749 -10586430.98947  19237374.963    19237374.765    19237384.013
       233.000         198.000
   6301670.37149   4904315.94945  23560948.275    23560947.180    23560963.856
       212.000         147.000
 -15084540.27549 -11089224.56446  21982316.445    21982316.356    21982331.799
       219.000         169.000
   3315706.47349   2591168.84046  22115274.252    22115273.546    22115285.725
       227.000         177.000
  -4459558.79449  -3458963.71945  23424730.625    23424730.818    23424745.669
       216.000         153.000
 00  5 23 17  3 29.9960000  0  7G30G 5G24G 7G10G 9G 6
 -19105399.50049 -14861641.15847  21428543.334    21428543.801    21428554.103
       234.000         189.000
 -20223323.59049 -15733956.51147  19384440.918    19384440.505    19384449.369
       238.000         201.000
 -13619389.07849 -10597530.71547  19234664.285    19234664.125    19234673.364
       234.000         197.000
   6338105.64049   4932706.95345  23567881.826    23567880.760    23567897.549
       212.000         151.000
 -15213328.68549 -11189578.94446  21957808.560    21957808.477    21957823.882
       220.000         168.000
   3369223.34649   2632870.09646  22125458.426    22125457.670    22125469.825
       228.000         173.000
  -4567316.26249  -3542930.49545  23404224.950    23404225.173    23404240.057
       213.000         148.000
 00  5 23 17  3 59.9960000  0  7G30G 5G24G 7G10G 9G 6
 -19228384.69249 -14957473.71447  21405139.968    21405140.453    21405150.754
       233.000         189.000
 -20288392.96549 -15784659.90947  19372058.626    19372058.199    19372067.079
       237.000         200.000
 -13633146.54849 -10608250.83847  19232046.321    19232046.155    19232055.421
       233.000         198.000
   6374608.49549   4961150.59345  23574827.959    23574827.052    23574844.036
       210.000         144.000
 -15341900.10049 -11289764.22346  21933342.176    21933341.975    21933357.237
       221.000         169.000
   3422937.47849   2674725.06646  22135680.036    22135679.296    22135691.380
       225.000         170.000
  -4675021.62049  -3626856.67145  23383729.227    23383729.417    23383744.353
       211.000         146.000
 00  5 23 17  4 29.9960000  0  7G30G 5G24G 7G10G 9G 6
 -19351147.52449 -15053133.00946  21381778.903    21381779.406    21381789.703
       232.000         187.000
 -20353010.93949 -15835011.56947  19359762.223    19359761.784    19359770.702
       236.000         200.000
 -13646444.99249 -10618613.28147  19229515.707    19229515.571    19229524.835
       234.000         199.000
   6411152.16849   4989626.05645  23581782.198    23581781.178    23581798.114
       212.000         141.000
 -15470278.14949 -11389798.85846  21908912.443    21908912.277    21908927.379
       220.000         171.000
   3476819.35649   2716710.73146  22145933.533    22145932.815    22145944.910
       226.000         172.000
  -4782701.56549  -3710763.02545  23363238.328    23363238.549    23363253.460
       211.000         143.000
 00  5 23 17  4 59.9960000  0  7G30G 5G24G 7G10G 9G 6
 -19473673.01549 -15148607.37047  21358463.006    21358463.513    21358473.807
       232.000         188.000
 -20417163.48149 -15885000.55647  19347554.355    19347553.944    19347562.884
       237.000         200.000
 -13659273.93149 -10628609.88147  19227074.492    19227074.337    19227083.601
       234.000         199.000
   6447749.12249   5018143.04845  23588746.456    23588745.366    23588762.437
       210.000         138.000
 -15598447.69049 -11489671.02446  21884522.381    21884522.247    21884537.219
       220.000         169.000
   3530878.34349   2758834.40046  22156220.817    22156220.079    22156232.145
       226.000         171.000
  -4890344.00949  -3794640.13445  23342754.487    23342754.730    23342769.658
       210.000         146.000
 00  5 23 17  5 29.9960000  0  7G30G 5G24G 7G10G 9G 6
 -19595952.31349 -15243889.89047  21335194.016    21335194.491    21335204.770
       233.000         189.000
 -20480842.39649 -15934620.48447  19335436.682    19335436.236    19335445.196
       236.000         200.000
 -13671628.12849 -10638236.55447  19224723.624    19224723.452    19224732.709
       234.000         199.000
   6484406.00649   5046706.71045  23595722.267    23595721.089    23595738.165
       205.000         144.000
 -15726398.38849 -11589372.66146  21860173.992    21860173.868    21860188.729
       219.000         170.000
   3585118.16449   2801098.99846  22166542.443    22166541.719    22166553.792
       225.000         172.000
  -4997942.08849  -3878482.68645  23322279.169    23322279.387    23322294.181
       213.000         147.000
 00  5 23 17  5 59.9960000  0  7G30G 5G24G 7G10G 9G 6
 -19717996.98349 -15338989.58347  21311969.712    21311970.151    21311980.410
       236.000         189.000
 -20544059.79849 -15983880.79247  19323406.800    19323406.365    19323415.318
       238.000         200.000
 -13683523.19349 -10647505.46047  19222460.133    19222459.906    19222469.165
       236.000         198.000
   6521109.10549   5075306.41545  23602706.649    23602705.515    23602722.659
       206.000         144.000
 -15854141.01449 -11688912.17146  21835865.173    21835865.083    21835879.870
       221.000         170.000
   3639521.68049   2843491.12846  22176895.153    22176894.458    22176906.623
       226.000         171.000
  -5105510.05749  -3962301.75345  23301809.660    23301809.844    23301824.541
       216.000         149.000
 00  5 23 17  6 29.9960000  0  7G30G 5G24G 7G10G 9G 6
 -19839804.47549 -15433904.46847  21288790.547    21288790.946    21288801.191
       234.000         188.000
 -20606813.90349 -16032780.09847  19311465.084    19311464.656    19311473.585
       237.000         201.000
 -13694960.45549 -10656417.63647  19220283.696    19220283.483    19220292.760
       234.000         199.000
   6557858.68649   5103942.32145  23609699.798    23609698.809    23609715.985
       206.000         146.000
 -15981671.98449 -11788286.75446  21811596.672    21811596.588    21811611.306
       221.000         170.000
   3694086.14249   2886008.64646  22187278.432    22187277.818    22187290.139
       226.000         171.000
  -5213047.80749  -4046097.30445  23281345.903    23281346.065    23281360.668
       214.000         150.000
 00  5 23 17  6 59.9960000  0  7G30G 5G24G 7G10G 9G 6
 -19961360.10449 -15528623.10547  21265659.301    21265659.681    21265669.872
       236.000         188.000
 -20669091.61649 -16081308.18747  19299614.060    19299613.598    19299622.549
       238.000         200.000
 -13705929.96949 -10664965.33947  19218196.271    19218196.074    19218205.347
       235.000         198.000
   6594666.64849   5132623.68345  23616703.998    23616703.232    23616720.466
       205.000         146.000
 -16108976.61049 -11887484.98646  21787371.199    21787371.132    21787385.831
       221.000         169.000
   3748820.71749   2928658.74646  22197694.295    22197693.604    22197706.003
       229.000         172.000
  -5320543.58649  -4129860.12945  23260890.106    23260890.239    23260904.812
       216.000         149.000
 00  5 23 17  7 29.9960000  0  7G30G 5G24G 7G10G 9G 6
 -20082660.63049 -15623142.95447  21242576.577    21242576.954    21242587.089
       235.000         189.000
 -20730890.21249 -16129462.94347  19287854.140    19287853.722    19287862.661
       238.000         200.000
 -13716432.04149 -10673148.80347  19216197.811    19216197.624    19216206.886
       236.000         199.000
   6631534.32649   5161351.60945  23623719.808    23623718.994    23623736.375
       212.000         143.000
 -16236050.13649 -11986503.12646  21763189.714    21763189.652    21763204.349
       222.000         170.000
   3803723.46849   2971439.86246  22208142.137    22208141.452    22208153.896
       231.000         174.000
  -5427996.05349  -4213589.24045  23240442.625    23240442.730    23240457.130
       218.000         146.000
 00  5 23 17  7 59.9960000  0  7G30G 5G24G 7G10G 9G 6
 -20203708.67249 -15717466.05247  21219541.834    21219542.251    21219552.372
       234.000         190.000
 -20792213.05149 -16177246.97147  19276184.771    19276184.360    19276193.295
       236.000         200.000
 -13726473.33749 -10680973.20447  19214287.048    19214286.852    19214296.095
       234.000         200.000
   6668456.62249   5190122.10945  23630746.249    23630745.257    23630762.648
       208.000         146.000
 -16362894.24549 -12085342.52046  21739052.005    21739051.885    21739066.501
       223.000         172.000
   3858786.52649   3014345.96346  22218620.499    22218619.789    22218632.287
       227.000         170.000
  -5535410.45349  -4297288.69545  23220002.314    23220002.399    23220016.643
       214.000         143.000
 00  5 23 17  8 29.9960000  0  7G30G 5G24G 7G10G 9G 6
 -20324505.17649 -15811593.15447  21196555.015    21196555.401    21196565.529
       235.000         190.000
 -20853062.21149 -16224661.90647  19264605.486    19264605.118    19264614.069
       237.000         200.000
 -13736059.38249 -10688442.87247  19212462.889    19212462.706    19212471.941
       235.000         199.000
   6705430.25849   5218932.57745  23637782.338    23637781.208    23637798.668
       215.000         147.000
 -16489509.57849 -12184003.64946  21714957.779    21714957.630    21714972.188
       224.000         171.000
   3914003.15649   3057371.69746  22229127.979    22229127.335    22229139.880
       229.000         174.000
  -5642790.69849  -4380961.54445  23199568.367    23199568.501    23199582.545
       213.000         140.000
 00  5 23 17  8 59.9960000  0  7G30G 5G24G 7G10G 9G 6
 -20445022.95649 -15905503.06547  21173621.170    21173621.581    21173631.733
       234.000         190.000
 -20913411.39149 -16271687.24747  19253121.440    19253121.058    19253130.002
       236.000         200.000
 -13745166.62149 -10695539.45047  19210729.858    19210729.697    19210738.902
       235.000         199.000
   6742480.12249   5247802.45845  23644833.002    23644831.727    23644849.144
       207.000         149.000
 -16615867.73449 -12282464.37946  21690912.466    21690912.337    21690926.861
       224.000         174.000
   3969395.23849   3100534.11946  22239668.913    22239668.267    22239680.950
       226.000         175.000
  -5750111.56649  -4464588.12545  23179145.874    23179145.893    23179159.968
       209.000         139.000
 00  5 23 17  9 29.9960000  0  7G30G 5G24G 7G10G 9G 6
 -20565283.29749 -15999212.37747  21150736.308    21150736.730    21150746.931
       234.000         189.000
 -20973282.59349 -16318340.13447  19241728.386    19241727.947    19241736.874
       237.000         200.000
 -13753820.54549 -10702282.78947  19209083.102    19209082.919    19209092.122
       235.000         199.000
   6779582.81949   5276713.46845  23651893.122    23651892.103    23651909.802
       210.000         149.000
 -16741989.03649 -12380740.54346  21666912.360    21666912.146    21666926.593
       224.000         175.000
   4024936.35349   3143812.66946  22250238.205    22250237.557    22250250.364
       228.000         176.000
  -5857396.88749  -4548186.97945  23158730.175    23158730.044    23158744.153
       206.000         134.000
 00  5 23 17  9 59.9960000  0  7G30G 5G24G 7G10G 9G 6
 -20685270.07949 -16092708.50747  21127903.451    21127903.911    21127914.190
       232.000         189.000
 -21032660.67049 -16364608.76947  19230429.125    19230428.685    19230437.600
       236.000         200.000
 -13762009.00249 -10708663.42847  19207524.931    19207524.730    19207533.953
       236.000         200.000
   6816752.11449   5305676.37345  23658966.346    23658965.310    23658983.009
       212.000         155.000
 -16867856.28849 -12478818.75046  21642960.598    21642960.289    21642974.674
       224.000         173.000
   4080637.30949   3187215.77746  22260838.143    22260837.357    22260850.208
       229.000         179.000
  -5964632.99249  -4631747.52345  23138323.776    23138323.707    23138337.752
       208.000         135.000
 00  5 23 17 10 29.9960000  0  7G30G 5G24G 7G10G 9G 6
 -20804999.09449 -16186003.78547  21105119.694    21105120.159    21105130.474
       234.000         189.000
 -21091563.00049 -16410506.69447  19219220.454    19219219.975    19219228.858
       237.000         200.000
 -13769752.49749 -10714697.34747  19206051.442    19206051.228    19206060.457
       236.000         200.000
   6853969.42049   5334676.73245  23666048.595    23666047.680    23666065.317
       206.000         151.000
 -16993485.52349 -12576711.48146  21619054.100    21619053.703    21619068.054
       224.000         175.000
   4136476.27349   3230726.41246  22271464.177    22271463.375    22271476.314
       226.000         177.000
  -6071838.63549  -4715284.28145  23117923.114    23117923.140    23117937.082
       205.000         136.000
 00  5 23 17 10 59.9960000  0  7G30G 5G24G 7G10G 9G 6
 -20924453.35349 -16279084.98747  21082388.265    21082388.723    21082399.034
       233.000         189.000
 -21149973.09749 -16456021.05547  19208105.408    19208104.904    19208113.796
       236.000         200.000
 -13777037.93849 -10720374.33947  19204665.131    19204664.887    19204674.119
       235.000         200.000
   6891249.88149   5363726.26045  23673142.810    23673141.989    23673159.799
       209.000         148.000
 -17118858.23349 -12674404.32946  21595196.291    21595195.931    21595210.246
       222.000         175.000
   4192465.27149   3274353.97046  22282118.659    22282117.884    22282130.912
       225.000         174.000
  -6178999.06049  -4798785.84645  23097530.956    23097531.050    23097545.004
       200.000         135.000
 00  5 23 17 11 29.9960000  0  7G30G 5G24G 7G10G 9G 6
 -21043639.33049 -16371957.12447  21059707.820    21059708.300    21059718.655
       233.000         190.000
 -21207898.56649 -16501157.78547  19197082.547    19197082.050    19197090.959
       235.000         200.000
 -13783876.18749 -10725702.86947  19203363.902    19203363.645    19203372.864
       235.000         200.000
   6928584.35149   5392817.90345  23680247.705    23680246.642    23680264.466
       211.000         154.000
 -17243980.29449 -12771901.86546  21571386.200    21571385.851    21571400.123
       224.000         176.000
   4248592.19649   3318089.01846  22292799.436    22292798.684    22292811.707
       225.000         173.000
  -6286123.29249  -4882259.15345  23077145.822    23077145.895    23077159.937
       206.000         140.000
 00  5 23 17 11 59.9960000  0  7G30G 5G24G 7G10G 9G 6
 -21162561.21549 -16464623.47947  21037077.748    21037078.180    21037088.570
       234.000         192.000
 -21265344.45949 -16545920.82147  19186150.857    19186150.425    19186159.384
       234.000         200.000
 -13790275.15249 -10730689.10447  19202146.211    19202145.979    19202155.216
       235.000         200.000
   6965966.58549   5421946.74745  23687361.328    23687360.337    23687378.298
       213.000         151.000
 -17368854.93549 -12869206.58246  21547623.189    21547622.851    21547637.127
       224.000         176.000
   4304847.83449   3361924.31546  22303504.621    22303503.908    22303517.006
       224.000         174.000
  -6393217.78449  -4965709.31445  23056766.302    23056766.436    23056780.431
       205.000         144.000
 00  5 23 17 12 29.9960000  0  7G30G 5G24G 7G10G 9G 6
 -21281227.12449 -16557090.37247  21014496.276    21014496.758    21014507.186
       234.000         191.000
 -21322320.40749 -16590317.67247  19175308.658    19175308.255    19175317.238
       233.000         199.000
 -13796247.77949 -10735343.12647  19201009.660    19201009.441    19201018.673
       235.000         200.000
   7003385.83849   5451104.40745  23694482.365    23694481.238    23694499.202
       208.000         150.000
 -17493489.95449 -12966324.61246  21523905.826    21523905.440    21523919.698
       224.000         175.000
   4361218.31849   3405849.13446  22314231.630    22314230.977    22314244.212
       223.000         170.000
  -6500293.56849  -5049144.89945  23036390.330    23036390.513    23036404.543
       212.000         150.000
 00  5 23 17 12 59.9960000  0  7G30G 5G24G 7G10G 9G 6
 -21399615.85249 -16649341.29447  20991967.572    20991968.092    20991978.496
       235.000         190.000
 -21378805.74249 -16634332.22047  19164559.855    19164559.439    19164568.446
       235.000         200.000
 -13801776.61949 -10739651.33847  19199957.545    19199957.345    19199966.600
       236.000         200.000
   7040861.41049   5480306.02545  23701613.972    23701612.807    23701630.655
       206.000         143.000
 -17617862.84049 -13063238.37746  21500238.242    21500237.911    21500252.142
       224.000         175.000
   4417719.70549   3449875.93246  22324983.552    22324982.935    22324996.196
       224.000         165.000
  -6607331.44049  -5132550.93745  23016021.744    23016021.891    23016035.914
       214.000         156.000
 00  5 23 17 13 29.9960000  0  7G30G 5G24G 7G10G 9G 6
 -21517724.23349 -16741373.75947  20969492.309    20969492.773    20969503.174
       235.000         190.000
 -21434798.66249 -16677963.07947  19153904.765    19153904.347    19153913.372
       234.000         199.000
 -13806862.87649 -10743614.68647  19198989.616    19198989.463    19198998.733
       235.000         199.000
   7078393.85949   5509551.81745  23708756.264    23708755.154    23708773.114
       210.000         146.000
 -17741969.88149 -13159945.00246  21476621.307    21476620.978    21476635.128
       225.000         177.000
   4474349.44049   3494002.76046  22335760.061    22335759.394    22335772.616
       225.000         166.000
  -6714330.89749  -5215927.02945  22995660.431    22995660.543    22995674.599
       216.000         159.000
 00  5 23 17 13 59.9960000  0  7G30G 5G24G 7G10G 9G 6
 -21635522.49149 -16833164.55547  20947076.013    20947076.472    20947086.906
       235.000         192.000
 -21490270.19949 -16721187.66247  19143348.894    19143348.486    19143357.500
       233.000         200.000
 -13811480.96649 -10747213.22647  19198110.855    19198110.684    19198119.984
       235.000         201.000
   7116010.73049   5538863.47045  23715914.478    23715913.511    23715931.428
       210.000         142.000
 -17865780.27749 -13256420.46746  21453060.851    21453060.536    21453074.606
       224.000         176.000
   4531132.37049   3538248.96346  22346565.588    22346564.943    22346578.154
       223.000         165.000
  -6821264.51149  -5299251.82345  22975311.513    22975311.681    22975325.780
       215.000         160.000
 00  5 23 17 14 29.9960000  0  7G30G 5G24G 7G10G 9G 6
 -21753047.03149 -16924742.07947  20924711.780    20924712.269    20924722.684
       235.000         191.000
 -21545258.29349 -16764035.53447  19132885.056    19132884.599    19132893.594
       234.000         200.000
 -13815671.79049 -10750478.83747  19197313.346    19197313.185    19197322.519
       235.000         200.000
   7153672.93349   5568210.47545  23723081.414    23723080.325    23723098.224
       207.000         139.000
 -17989330.28349 -13352693.02946  21429549.919    21429549.627    21429563.633
       225.000         176.000
   4588026.43049   3582581.74946  22357392.318    22357391.654    22357404.896
       222.000         163.000
  -6928171.50049  -5382555.87945  22954967.725    22954967.890    22954982.022
       217.000         161.000
 00  5 23 17 14 59.9960000  0  7G30G 5G24G 7G10G 9G 6
 -21870279.98949 -17016092.39647  20902403.019    20902403.514    20902413.944
       234.000         189.000
 -21599745.92349 -16806493.44247  19122516.452    19122515.973    19122524.962
       234.000         199.000
 -13819421.77249 -10753400.93647  19196599.782    19196599.590    19196608.943
       236.000         200.000
   7191396.26949   5597605.09845  23730260.109    23730259.028    23730276.960
       203.000         140.000
 -18112600.70949 -13448747.75046  21406092.174    21406091.917    21406105.882
       223.000         175.000
   4645044.07049   3627010.82046  22368242.606    22368241.878    22368255.273
       223.000         167.000
  -7035036.28649  -5465827.02645  22934631.951    22934632.142    22934646.258
       215.000         159.000
 00  5 23 17 15 29.9960000  0  7G30G 5G24G 7G10G 9G 6
 -21987224.59749 -17107218.00547  20880149.081    20880149.607    20880160.122
       234.000         191.000
 -21653737.69149 -16848564.95847  19112242.165    19112241.676    19112250.684
       234.000         200.000
 -13822738.08949 -10755985.11047  19195968.702    19195968.544    19195977.898
       236.000         201.000
   7229175.21049   5627042.95345  23737449.468    23737448.335    23737466.279
       209.000         135.000
 -18235594.24949 -13544586.71446  21382687.041    21382686.864    21382700.846
       225.000         178.000
   4702176.50249   3671529.38046  22379114.784    22379114.030    22379127.510
       225.000         166.000
  -7141864.75249  -5549069.87445  22914303.132    22914303.270    22914317.391
       216.000         157.000
 00  5 23 17 15 59.9960000  0  7G30G 5G24G 7G10G 9G 6
 -22103864.21549 -17198105.97147  20857953.348    20857953.798    20857964.350
       236.000         192.000
 -21707217.96949 -16890237.91147  19102065.265    19102064.751    19102073.737
       234.000         200.000
 -13825608.65249 -10758221.94647  19195422.533    19195422.316    19195431.680
       236.000         201.000
   7267023.97149   5656535.30345  23744652.192    23744651.000    23744668.884
       207.000         140.000
 -18358293.38749 -13640196.25846  21359338.054    21359337.834    21359351.855
       222.000         177.000
   4759435.17149   3716146.27446  22390011.029    22390010.205    22390023.766
       223.000         166.000
  -7248642.62349  -5632273.31045  22893983.901    22893984.054    22893998.113
       214.000         156.000
 00  5 23 17 16 29.9960000  0  7G30G 5G24G 7G10G 9G 6
 -22220232.56849 -17288782.56647  20835809.291    20835809.650    20835820.161
       238.000         191.000
 -21760221.56049 -16931539.42047  19091979.065    19091978.518    19091987.501
       235.000         200.000
 -13828071.46649 -10760141.05347  19194953.990    19194953.710    19194963.043
       238.000         201.000
   7304906.37449   5686053.83945  23751861.419    23751860.048    23751877.785
       208.000         137.000
 -18480730.92749 -13735601.97546  21336038.814    21336038.579    21336052.630
       225.000         178.000
   4816780.85749   3760830.94945  22400923.681    22400922.923    22400936.500
       223.000         161.000
  -7355406.06949  -5715465.51145  22873667.459    22873667.554    22873681.577
       214.000         153.000
 00  5 23 17 16 59.9960000  0  7G30G 5G24G 7G10G 9G 6
 -22336285.32049 -17379213.23147  20813725.204    20813725.529    20813736.021
       237.000         191.000
 -21812705.35049 -16972435.89147  19081991.764    19081991.183    19082000.192
       233.000         200.000
 -13830086.37949 -10761711.14747  19194570.602    19194570.319    19194579.637
       237.000         201.000
   7342864.84849   5715631.66245  23759085.023    23759083.582    23759101.122
       210.000         142.000
 -18602861.77949 -13830768.70646  21312797.946    21312797.671    21312811.735
       223.000         177.000
   4874252.58549   3805613.89245  22411860.461    22411859.635    22411873.094
       226.000         162.000
  -7462113.29649  -5798613.89945  22853361.661    22853361.763    22853375.683
       215.000         153.000
 00  5 23 17 17 29.9960000  0  7G30G 5G24G 7G10G 9G 6
 -22452028.80949 -17469402.91647  20791699.945    20791700.295    20791710.698
       237.000         191.000
 -21864677.28349 -17012933.50647  19072101.842    19072101.270    19072110.291
       234.000         199.000
 -13831664.34949 -10762940.76847  19194270.380    19194270.079    19194279.386
       237.000         200.000
   7380890.04749   5745261.56945  23766321.202    23766319.809    23766337.135
       207.000         133.000
 -18724692.05949 -13925701.22146  21289614.216    21289613.972    21289628.027
       224.000         175.000
   4931838.49349   3850485.77446  22422819.015    22422818.132    22422831.511
       226.000         165.000
  -7568773.27349  -5881725.49045  22833064.991    22833065.026    22833078.827
       215.000         150.000
 00  5 23 17 17 59.9950000  0  7G30G 5G24G 7G10G 9G 6
 -22567461.38149 -17559350.32647  20769733.872    20769734.196    20769744.520
       237.000         192.000
 -21916138.97349 -17053033.53647  19062308.979    19062308.433    19062317.467
       234.000         200.000
 -13832811.97849 -10763835.05847  19194052.039    19194051.724    19194060.999
       237.000         201.000
   7418976.38049   5774939.04645  23773568.877    23773567.511    23773584.859
       209.000         145.000
 -18846218.89949 -14020397.30446  21266488.380    21266488.062    21266502.072
       226.000         179.000
   4989529.08449   3895439.19446  22433797.451    22433796.553    22433809.931
       226.000         168.000
  -7675386.98449  -5964801.01945  22812777.050    22812777.083    22812790.745
       212.000         149.000
 00  5 23 17 18 29.9950000  0  7G30G 5G24G 7G10G 9G 6
 -22682584.18149 -17649056.34947  20747826.718    20747827.039    20747837.323
       239.000         194.000
 -21967088.04649 -17092734.12247  19052613.701    19052613.175    19052622.187
       235.000         199.000
 -13833526.69549 -10764392.01847  19193916.053    19193915.748    19193925.004
       237.000         200.000
   7457130.82749   5804669.63745  23780829.414    23780828.076    23780845.635
       209.000         140.000
 -18967443.09649 -14114857.56746  21243420.156    21243419.781    21243433.692
       226.000         178.000
   5047329.59349   3940478.30446  22444796.877    22444795.906    22444809.361
       227.000         165.000
  -7781957.30649  -6047842.73645  22792497.270    22792497.319    22792511.110
       209.000         147.000
 00  5 23 17 18 59.9950000  0  7G30G 5G24G 7G10G 9G 6
 -22797380.01249 -17738507.58747  20725981.832    20725982.126    20725992.374
       240.000         195.000
 -22017510.95149 -17132024.70947  19043018.608    19043018.038    19043027.047
       235.000         200.000
 -13833799.75349 -10764604.82147  19193864.090    19193863.807    19193873.076
       238.000         200.000
   7495362.88749   5834460.68145  23788104.921    23788103.605    23788121.213
       210.000         149.000
 -19088346.40349 -14209067.79446  21220412.979    21220412.555    21220426.379
       227.000         179.000
   5105245.78949   3985607.55446  22455818.163    22455817.189    22455830.770
       226.000         166.000
  -7888469.98549  -6130839.47945  22772228.431    22772228.541    22772242.368
       209.000         147.000
 00  5 23 17 19 29.9950000  0  7G30G 5G24G 7G10G 9G 6
 -22911878.80249 -17827727.37647  20704193.512    20704193.744    20704203.921
       241.000         195.000
 -22067439.02049 -17170929.71647  19033517.621    19033517.065    19033526.035
       235.000         199.000
 -13833665.20949 -10764500.01747  19193889.684    19193889.403    19193898.693
       238.000         200.000
   7533640.48549   5864287.15645  23795389.116    23795387.686    23795405.407
       214.000         146.000
 -19208958.27649 -14303050.93546  21197461.270    21197460.797    21197474.496
       228.000         177.000
   5163242.59449   4030799.61245  22466854.628    22466853.759    22466867.507
       219.000         161.000
  -7994957.25549  -6213816.46845  22751964.501    22751964.660    22751978.468
       212.000         147.000
 00  5 23 17 19 59.9950000  0  7G30G 5G24G 7G10G 9G 6
 -23026077.52049 -17916713.33247  20682462.284    20682462.467    20682472.551
       239.000         195.000
 -22116870.47549 -17209447.73447  19024111.141    19024110.589    19024119.563
       234.000         199.000
 -13833124.93049 -10764079.05247  19193992.544    19193992.252    19194001.519
       237.000         201.000
   7571963.89249   5894149.47145  23802681.999    23802680.534    23802698.318
       205.000         148.000
 -19329274.92349 -14396803.98646  21174565.646    21174565.170    21174578.800
       226.000         178.000
   5221317.41249   4076052.41846  22477905.795    22477905.077    22477919.103
       219.000         163.000
  -8101418.82849  -6296773.45345  22731705.537    22731705.602    22731719.423
       214.000         145.000
 00  5 23 17 20 29.9950000  0  7G30G 5G24G 7G10G 9G 6
 -23139966.27749 -18005457.76347  20660789.952    20660790.164    20660800.164
       239.000         194.000
 -22165796.59749 -17247571.99447  19014800.842    19014800.267    19014809.233
       234.000         200.000
 -13832172.98149 -10763337.30647  19194173.762    19194173.445    19194182.692
       238.000         201.000
   7610340.90449   5924053.42945  23809984.947    23809983.528    23810001.555
       211.000         148.000
 -19449285.69749 -14490318.71846  21151728.261    21151727.749    21151741.344
       228.000         181.000
   5279474.90149   4121369.65645  22488973.051    22488972.273    22488986.360
       217.000         160.000
  -8207847.07049  -6379704.49345  22711452.851    22711452.858    22711466.610
       215.000         146.000
 00  5 23 17 20 59.9950000  0  7G30G 5G24G 7G10G 9G 6
 -23253531.70449 -18093950.25847  20639179.168    20639179.398    20639189.254
       239.000         194.000
 -22214205.52649 -17285293.25147  19005588.934    19005588.373    19005597.339
       234.000         200.000
 -13830800.39649 -10762267.79347  19194435.004    19194434.677    19194443.894
       237.000         201.000
   7648782.59449   5954007.85245  23817300.229    23817298.875    23817316.915
       206.000         141.000
 -19568976.60249 -14583584.20046  21128951.754    21128951.230    21128964.792
       226.000         181.000
   5337723.10549   4166757.59145  22500057.289    22500056.616    22500070.936
       211.000         155.000
  -8314231.06649  -6462601.04345  22691208.601    22691208.637    22691222.256
       218.000         152.000
 00  5 23 17 21 29.9950000  0  7G30G 5G24G 7G10G 9G 6
 -23366779.26349 -18182195.05147  20617628.885    20617629.088    20617638.866
       241.000         195.000
 -22262104.01049 -17322616.75747  18996474.260    18996473.643    18996482.545
       236.000         200.000
 -13829017.21649 -10760878.33147  19194774.359    19194774.048    19194783.245
       240.000         202.000
   7687280.98149   5984006.44545  23824626.215    23824624.953    23824643.082
       207.000         143.000
 -19688352.03349 -14676603.85946  21106235.218    21106234.728    21106248.279
       229.000         181.000
   5396051.14449   4212207.71046  22511156.930    22511156.206    22511170.675
       220.000         164.000
  -8420578.77049  -6545469.30445  22670971.275    22670971.260    22670984.949
       221.000         157.000
 00  5 23 17 21 59.9950000  0  7G30G 5G24G 7G10G 9G 6
 -23479708.52949 -18270191.81647  20596139.183    20596139.368    20596149.084
       239.000         194.000
 -22309493.15149 -17359543.37047  18987456.411    18987455.798    18987464.713
       234.000         200.000
 -13826827.42849 -10759172.03947  19195191.118    19195190.795    19195199.997
       239.000         201.000
   7725834.18449   6014047.74545  23831962.719    23831961.445    23831979.712
       204.000         138.000
 -19807411.32749 -14769377.16946  21083578.856    21083578.364    21083591.914
       228.000         181.000
   5454453.92849   4257716.07946  22522271.022    22522270.170    22522284.670
       218.000         165.000
  -8526892.47349  -6628311.06745  22650740.305    22650740.312    22650754.042
       219.000         161.000
 00  5 23 17 22 29.9950000  0  7G30G 5G24G 7G10G 9G 6
 -23592295.28849 -18357921.70347  20574714.566    20574714.777    20574724.440
       238.000         194.000
 -22356350.21049 -17396055.38247  18978539.795    18978539.214    18978548.113
       234.000         200.000
 -13824211.53449 -10757133.71147  19195688.943    19195688.622    19195697.818
       239.000         202.000
   7764463.87449   6044148.69145  23839313.814    23839312.546    23839330.780
       205.000         142.000
 -19926129.51849 -14861884.69846  21060987.355    21060986.897    21061000.384
       227.000         180.000
   5512950.25449   4303297.33246  22533402.795    22533401.873    22533416.405
       216.000         164.000
  -8633150.44149  -6711109.37945  22630519.937    22630519.976    22630533.828
       219.000         162.000
 00  5 23 17 22 59.9950000  0  6G30G 5G24G10G 9G 6
 -23704545.71649 -18445389.51147  20553353.912    20553354.169    20553363.795
       237.000         194.000
 -22402682.17349 -17432158.22147  18969723.141    18969722.533    18969731.447
       234.000         200.000
 -13821179.53949 -10754771.15347  19196265.935    19196265.617    19196274.815
       238.000         201.000
 -20044511.73949 -14954130.41946  21038459.852    21038459.356    21038472.832
       227.000         183.000
   5571528.87949   4348942.68746  22544550.294    22544549.248    22544563.862
       220.000         168.000
  -8739360.88849  -6793870.67945  22610308.749    22610308.757    22610322.608
       216.000         162.000
 00  5 23 17 23 29.9950000  0  6G30G 5G24G10G 9G 6
 -23816427.38649 -18532569.97447  20532063.425    20532063.726    20532073.358
       238.000         194.000
 -22448458.53949 -17467828.12847  18961012.199    18961011.598    18961020.513
       233.000         200.000
 -13817703.71949 -10752062.75147  19196927.411    19196927.071    19196936.251
       239.000         201.000
 -20162525.24849 -15046088.84546  21016002.531    21016002.011    21016015.481
       228.000         184.000
   5630216.72749   4394673.19046  22555718.538    22555717.438    22555732.076
       224.000         172.000
  -8845494.12149  -6876571.77945  22590112.176    22590112.208    22590126.088
       211.000         158.000
 00  5 23 17 23 59.9950000  0  6G30G 5G24G10G 9G 6
 -23927958.97649 -18619477.65147  20510839.646    20510839.939    20510849.547
       242.000         195.000
 -22493699.55449 -17503080.87647  18952403.097    18952402.527    18952411.439
       235.000         199.000
 -13813807.35549 -10749026.65347  19197668.940    19197668.575    19197677.721
       241.000         200.000
 -20280187.96149 -15137773.91446  20993611.964    20993611.449    20993624.887
       229.000         182.000
   5688989.59249   4440469.92746  22566902.932    22566901.805    22566916.422
       223.000         168.000
  -8951571.21749  -6959229.14045  22569926.200    22569926.280    22569940.267
       211.000         155.000
 00  5 23 17 24 29.9950000  0  6G30G 5G24G10G 9G 6
 -24039147.00449 -18706117.62647  20489681.236    20489681.525    20489691.098
       241.000         196.000
 -22538413.34549 -17537922.80347  18943894.410    18943893.798    18943902.692
       236.000         198.000
 -13809501.48649 -10745671.46347  19198488.393    19198487.996    19198497.125
       240.000         201.000
 -20397506.10949 -15229190.50446  20971286.886    20971286.419    20971299.808
       230.000         181.000
   5747835.48149   4486323.53146  22578101.042    22578100.008    22578114.609
       220.000         165.000
  -9057601.41349  -7041849.95545  22549749.175    22549749.238    22549763.344
       213.000         154.000
 00  5 23 17 24 59.9950000  0  6G30G 5G24G10G 9G 6
 -24149996.72349 -18792493.98447  20468587.174    20468587.496    20468597.012
       241.000         197.000
 -22582605.94349 -17572358.60647  18935484.841    18935484.241    18935493.100
       235.000         199.000
 -13804795.64849 -10742004.61647  19199383.935    19199383.531    19199392.653
       241.000         201.000
 -20514483.57549 -15320341.63446  20949026.791    20949026.243    20949039.593
       231.000         181.000
   5806743.92749   4532225.87646  22589311.274    22589310.160    22589324.789
       225.000         167.000
  -9163591.82849  -7124439.77345  22529579.935    22529579.902    22529593.939
       214.000         154.000
 00  5 23 17 25 29.9950000  0  6G30G 5G24G10G 9G 6
 -24260502.75849 -18878602.52647  20447558.564    20447558.864    20447568.377
       241.000         197.000
 -22626273.52849 -17606385.30447  18927175.168    18927174.569    18927183.426
       235.000         199.000
 -13799688.64949 -10738025.16147  19200355.815    19200355.397    19200364.502
       241.000         201.000
 -20631114.52749 -15411222.73946  20926832.595    20926831.996    20926845.293
       231.000         182.000
   5865715.26749   4578177.27846  22600533.599    22600532.357    22600546.917
       226.000         166.000
  -9269539.49049  -7206996.31845  22509418.774    22509418.731    22509432.674
       216.000         153.000
 00  5 23 17 25 59.9950000  0  6G30G 5G24G10G 9G 6
 -24370669.35949 -18964446.57747  20426594.515    20426594.807    20426604.303
       239.000         197.000
 -22669422.18949 -17640007.64747  18918964.258    18918963.658    18918972.501
       233.000         199.000
 -13794189.60749 -10733740.22247  19201402.247    19201401.856    19201410.958
       239.000         201.000
 -20747402.68349 -15501836.74846  20904703.609    20904703.017    20904716.240
       229.000         184.000
   5924739.49249   4624169.91845  22611765.771    22611764.574    22611779.148
       220.000         161.000
  -9375451.49049  -7289525.09345  22489264.301    22489264.258    22489278.182
       215.000         151.000
 00  5 23 17 26 29.9950000  0  6G30G 5G24G10G 9G 6
 -24480489.08149 -19050020.34047  20405696.498    20405696.787    20405706.255
       240.000         198.000
 -22712045.87949 -17673220.92547  18910853.228    18910852.644    18910861.491
       233.000         199.000
 -13788295.49649 -10729147.43447  19202523.903    19202523.510    19202532.607
       239.000         201.000
 -20863340.17849 -15592177.51246  20882641.343    20882640.757    20882653.923
       230.000         185.000
   5983818.86949   4670205.47445  22623008.200    22623007.128    22623021.880
       215.000         150.000
  -9481322.84549  -7372022.17945  22469117.534    22469117.473    22469131.349
       214.000         150.000
 00  5 23 17 26 59.9950000  0  6G30G 5G24G10G 9G 6
 -24589972.22049 -19135331.82747  20384862.540    20384862.798    20384872.248
       241.000         198.000
 -22754155.86649 -17706033.91547  18902839.986    18902839.398    18902848.216
       233.000         198.000
 -13782020.64049 -10724257.96647  19203717.969    19203717.595    19203726.719
       240.000         201.000
 -20978936.27049 -15682252.25646  20860644.046    20860643.457    20860656.529
       231.000         184.000
   6042938.32849   4716272.25845  22634258.450    22634257.367    22634272.234
       220.000         152.000
  -9587165.83649  -7454497.14645  22448976.149    22448976.131    22448989.985
       220.000         156.000
 00  5 23 17 27 29.9950000  0  6G30G 5G24G10G 9G 6
 -24699087.80249 -19220356.91347  20364098.477    20364098.754    20364108.191
       239.000         198.000
 -22795723.52649 -17738424.31647  18894929.928    18894929.338    18894938.155
       233.000         199.000
 -13775339.11149 -10719051.60847  19204989.403    19204989.058    19204998.212
       239.000         201.000
 -21094159.75349 -15772036.66246  20838717.656    20838717.037    20838730.062
       229.000         184.000
   6102123.01849   4762389.91945  22645521.160    22645520.092    22645534.821
       217.000         144.000
  -9692952.21649  -7536928.00546  22428845.662    22428845.603    22428859.419
       224.000         163.000
 00  5 23 17 27 59.9950000  0  6G30G 5G24G10G 9G 6
 -24807848.60549 -19305105.54347  20343401.905    20343402.210    20343411.658
       238.000         198.000
 -22836762.98549 -17770403.13047  18887120.423    18887119.822    18887128.610
       233.000         199.000
 -13768267.82049 -10713541.54447  19206335.136    19206334.714    19206343.875
       240.000         202.000
 -21209022.56249 -15861540.02846  20816859.806    20816859.275    20816872.225
       230.000         184.000
   6161354.88249   4808544.36645  22656792.712    22656791.672    22656806.291
       213.000         141.000
  -9798696.92849  -7619326.41046  22408723.134    22408723.063    22408736.819
       226.000         168.000
 00  5 23 17 28 29.9950000  0  6G30G 5G24G10G 9G 6
 -24916245.07749 -19389570.26547  20322774.686    20322774.991    20322784.483
       239.000         199.000
 -22877266.46549 -17801964.29947  18879412.900    18879412.274    18879421.056
       233.000         199.000
 -13760802.05449 -10707724.09947  19207755.905    19207755.453    19207764.600
       240.000         201.000
 -21323514.66549 -15950754.54646  20795072.637    20795072.057    20795084.976
       231.000         186.000
   6220637.91149   4854738.63045  22668073.852    22668073.034    22668087.875
       210.000         149.000
  -9904392.86649  -7701686.80546  22388609.899    22388609.802    22388623.507
       227.000         170.000
 00  5 23 17 28 59.9950000  0  6G30G 5G24G10G 9G 6
 -25024285.99049 -19473757.93847  20302215.187    20302215.460    20302224.948
       239.000         200.000
 -22917244.04549 -17833115.67747  18871805.443    18871804.808    18871813.584
       233.000         198.000
 -13752954.82949 -10701609.40847  19209249.193    19209248.754    19209257.903
       239.000         201.000
 -21437644.26949 -16039686.59246  20773354.498    20773353.841    20773366.703
       230.000         185.000
   6279958.43949   4900962.06645  22679362.437    22679361.626    22679376.707
       216.000         155.000
 -10010051.15349  -7784017.85046  22368503.816    22368503.720    22368517.355
       226.000         169.000
 00  5 23 17 29 29.9950000  0  6G30G 5G24G10G 9G 6
 -25131964.11449 -19557662.91647  20281724.714    20281724.972    20281734.446
       239.000         200.000
 -22956690.02649 -17863852.82147  18864299.088    18864298.489    18864307.261
       233.000         199.000
 -13744723.50649 -10695195.42347  19210815.563    19210815.146    19210824.263
       239.000         201.000
 -21551403.22349 -16128329.82146  20751706.796    20751706.152    20751718.983
       230.000         186.000
   6339318.32549   4947216.18045  22690658.726    22690657.704    22690672.937
       218.000         159.000
 -10115666.98649  -7866315.79346  22348405.745    22348405.642    22348419.275
       224.000         169.000
 00  5 23 17 29 59.9950000  0  6G30G 5G24G10G 9G 6
 -25239253.23149 -19641264.77447  20261308.256    20261308.496    20261318.000
       239.000         200.000
 -22995580.01649 -17894156.73247  18856898.630    18856897.992    18856906.744
       233.000         199.000
 -13736086.24749 -10688465.12847  19212459.144    19212458.764    19212467.906
       239.000         201.000
 -21664764.85649 -16216663.47046  20730134.676    20730134.051    20730146.834
       230.000         185.000
   6398738.13349   4993517.00945  22701966.212    22701965.192    22701980.468
       219.000         157.000
 -10221216.63949  -7948562.18346  22328320.300    22328320.181    22328333.742
       223.000         169.000
 00  5 23 17 30 29.9950000  0  6G30G 5G24G10G 9G 6
 -25346191.29449 -19724593.09047  20240958.565    20240958.825    20240968.319
       240.000         200.000
 -23033953.57749 -17924058.23247  18849596.328    18849595.738    18849604.500
       233.000         198.000
 -13727085.92449 -10681451.92447  19214171.881    19214171.491    19214180.636
       240.000         201.000
 -21777766.53849 -16304716.64146  20708631.074    20708630.430    20708643.179
       231.000         185.000
   6458174.73149   5039830.91545  22713276.799    22713275.864    22713291.087
       222.000         159.000
 -10326740.36049  -8030788.36546  22308239.704    22308239.608    22308253.167
       221.000         168.000
 00  5 23 17 30 59.9950000  0  6G30G 5G24G10G 9G 6
 -25452771.55949 -19807642.59647  20220676.953    20220677.223    20220686.743
       239.000         200.000
 -23071805.79149 -17953553.48847  18842393.289    18842392.698    18842401.468
       233.000         198.000
 -13717720.14149 -10674153.95647  19215954.141    19215953.762    19215962.902
       239.000         200.000
 -21890400.92149 -16392483.60746  20687197.338    20687196.709    20687209.431
       230.000         185.000
   6517629.59249   5086159.03246  22724590.999    22724590.029    22724605.245
       223.000         166.000
 -10432233.95149  -8112991.05446  22288164.859    22288164.782    22288178.322
       222.000         170.000
 00  5 23 17 31 29.9950000  0  6G30G 5G24G10G 9G 6
 -25558965.98949 -19890391.44947  20200468.700    20200469.033    20200478.601
       238.000         199.000
 -23109110.18549 -17982621.86647  18835294.539    18835293.911    18835302.718
       233.000         199.000
 -13707965.31949 -10666552.83347  19217810.412    19217810.037    19217819.194
       239.000         200.000
 -22002639.67349 -16479942.31246  20665838.902    20665838.289    20665850.968
       230.000         183.000
   6577125.64049   5132519.26846  22735913.073    22735912.057    22735927.271
       225.000         170.000
 -10537671.68749  -8195150.18146  22268100.627    22268100.590    22268114.123
       222.000         170.000
 00  5 23 17 31 59.9950000  0  6G30G 5G24G10G 9G 6
 -25664796.07349 -19972856.39947  20180329.793    20180330.143    20180339.757
       239.000         199.000
 -23145889.92849 -18011281.43147  18828295.604    18828294.981    18828303.776
       233.000         199.000
 -13697847.43049 -10658668.80447  19219735.797    19219735.437    19219744.582
       239.000         200.000
 -22114503.46749 -16567108.80846  20644551.873    20644551.230    20644563.887
       230.000         186.000
   6636636.08349   5178890.70646  22747237.791    22747236.765    22747252.100
       221.000         167.000
 -10643077.29249  -8277284.29346  22248042.541    22248042.537    22248056.043
       223.000         172.000
 00  5 23 17 32 29.9950000  0  6G30G 5G24G10G 9G 6
 -25770268.20749 -20055042.43447  20160259.033    20160259.403    20160269.019
       239.000         199.000
 -23182153.12149 -18039538.48347  18821394.971    18821394.337    18821403.151
       234.000         199.000
 -13687377.14949 -10650510.17747  19221728.225    19221727.865    19221737.030
       240.000         200.000
 -22225998.11649 -16653987.68346  20623335.080    20623334.440    20623347.026
       230.000         186.000
   6696149.27149   5225264.27245  22758562.925    22758561.939    22758577.432
       214.000         158.000
 -10748459.19149  -8359399.94646  22227988.951    22227988.936    22228002.427
       225.000         171.000
 00  5 23 17 32 59.9950000  0  6G30G 5G24G10G 9G 6
 -25875366.24349 -20136936.96847  20140259.526    20140259.877    20140269.471
       239.000         200.000
 -23217885.25449 -18067381.72747  18814595.394    18814594.763    18814603.588
       233.000         199.000
 -13676543.00649 -10642068.02947  19223789.922    19223789.551    19223798.722
       239.000         200.000
 -22337106.82249 -16740565.80546  20602191.718    20602191.078    20602203.650
       230.000         187.000
   6755676.16749   5271648.46045  22769890.622    22769889.728    22769905.372
       215.000         161.000
 -10853803.96149  -8441486.67746  22207942.425    22207942.395    22207955.831
       225.000         171.000
 00  5 23 17 33 29.9950000  0  6G30G 5G24G10G 9G 6
 -25980086.62449 -20218537.21947  20120331.859    20120332.203    20120341.803
       240.000         200.000
 -23253084.30749 -18094809.58547  18807897.271    18807896.624    18807905.449
       234.000         200.000
 -13665345.69449 -10633342.88747  19225920.687    19225920.359    19225929.525
       240.000         200.000
 -22447825.26049 -16826839.81746  20581122.527    20581121.969    20581134.530
       230.000         187.000
   6815215.32149   5318042.27445  22781220.954    22781219.950    22781235.685
       220.000         162.000
 -10959110.14849  -8523543.34846  22187903.224    22187903.218    22187916.614
       228.000         174.000
 00  5 23 17 33 59.9950000  0  6G30G 5G24G10G 9G 6
 -26084423.02749 -20299838.27547  20100477.330    20100477.624    20100487.221
       240.000         201.000
 -23287745.93849 -18121818.67447  18801301.355    18801300.733    18801309.594
       233.000         200.000
 -13653783.87949 -10624333.72647  19228120.896    19228120.530    19228129.680
       239.000         200.000
 -22558147.13049 -16912804.83246  20560128.914    20560128.335    20560140.868
       229.000         186.000
   6874767.47749   5364446.24545  22792553.680    22792552.624    22792568.384
       215.000         158.000
 -11064374.00849  -8605567.03246  22167872.137    22167872.091    22167885.476
       226.000         173.000
 00  5 23 17 34 29.9950000  0  6G30G 5G24G10G 9G 6
 -26188353.79249 -20380823.24447  20080699.882    20080700.204    20080709.854
       239.000         201.000
 -23321850.33749 -18148393.56147  18794811.506    18794810.899    18794819.768
       233.000         200.000
 -13641840.30949 -10615027.08947  19230393.702    19230393.341    19230402.494
       239.000         201.000
 -22668050.28549 -16998443.56147  20539214.969    20539214.342    20539226.908
       230.000         188.000
   6934349.10749   5410873.16945  22803891.802    22803890.727    22803906.683
       209.000         151.000
 -11169576.17149  -8687542.64546  22147852.689    22147852.710    22147866.069
       226.000         173.000
 00  5 23 17 34 59.9950000  0  6G30G 5G24G10G 9G 6
 -26291892.02949 -20461502.35347  20060997.129    20060997.467    20061007.157
       242.000         201.000
 -23355412.23449 -18174545.71247  18788424.952    18788424.314    18788433.175
       235.000         199.000
 -13629532.28449 -10605436.46147  19232735.872    19232735.509    19232744.684
       241.000         200.000
 -22777546.80149 -17083765.43747  20518378.424    20518377.775    20518390.322
       232.000         188.000
   6993942.23449   5457309.00145  22815232.083    22815231.099    22815247.239
       208.000         146.000
 -11274731.78449  -8769482.01346  22127842.118    22127842.167    22127855.497
       228.000         170.000
 00  5 23 17 35 29.9950000  0  6G30G 5G24G10G 9G 6
 -26395046.71949 -20541882.59247  20041367.419    20041367.756    20041377.466
       240.000         202.000
 -23388442.81449 -18200283.85647  18782139.459    18782138.838    18782147.694
       233.000         200.000
 -13616873.64749 -10595572.63047  19235144.774    19235144.402    19235153.584
       239.000         200.000
 -22886645.04149 -17168776.96947  20497617.679    20497617.002    20497629.555
       231.000         189.000
   7053532.32149   5503742.42245  22826572.169    22826571.062    22826587.211
       209.000         146.000
 -11379852.23649  -8851393.98946  22107838.262    22107838.354    22107851.596
       226.000         170.000
 00  5 23 17 35 59.9950000  0  6G30G 5G24G10G 9G 6
 -26497809.20249 -20621957.22847  20021812.394    20021812.698    20021822.395
       242.000         202.000
 -23420935.10749 -18225602.55947  18775956.368    18775955.755    18775964.650
       235.000         199.000
 -13603860.09549 -10585432.24947  19237621.197    19237620.819    19237630.030
       241.000         200.000
 -22995336.08649 -17253471.21047  20476934.385    20476933.685    20476946.263
       233.000         188.000
   7113122.95149   5550176.33545  22837912.167    22837911.074    22837927.170
       214.000         146.000
 -11484931.00249  -8933273.48446  22087842.387    22087842.457    22087855.645
       227.000         170.000
 00  5 23 17 36 29.9950000  0  6G30G 5G24G10G 9G 6
 -26600213.36049 -20701752.62947  20002325.555    20002325.809    20002335.494
       242.000         202.000
 -23452924.65049 -18250529.49847  18769868.959    18769868.355    18769877.281
       235.000         199.000
 -13590529.98249 -10575045.18347  19240157.852    19240157.474    19240166.710
       240.000         200.000
 -23103653.34949 -17337874.18547  20456322.211    20456321.534    20456334.078
       232.000         189.000
   7172675.03649   5596580.24745  22849244.963    22849243.730    22849259.893
       216.000         148.000
 -11590004.27249  -9015148.67046  22067847.575    22067847.628    22067860.764
       224.000         172.000
 00  5 23 17 36 59.9950000  0  6G30G 5G24G10G 9G 6
 -26702220.80149 -20781238.90747  19982914.217    19982914.436    19982924.071
       241.000         202.000
 -23484374.92849 -18275036.23747  18763884.218    18763883.593    18763892.512
       233.000         199.000
 -13576849.58349 -10564385.18247  19242761.148    19242760.788    19242770.054
       238.000         200.000
 -23211558.07849 -17421955.71447  20435788.472    20435787.874    20435800.408
       231.000         189.000
   7232221.71549   5642979.91145  22860576.633    22860575.350    22860591.639
       213.000         145.000
 -11695036.12749  -9096991.57746  22047860.530    22047860.621    22047873.806
       223.000         173.000
 00  5 23 17 37 29.9950000  0  6G30G 5G24G10G 9G 6
 -26803813.98149 -20860402.38347  19963581.687    19963581.885    19963591.450
       240.000         202.000
 -23515270.32749 -18299110.60247  18758005.066    18758004.418    18758013.327
       233.000         199.000
 -13562805.91149 -10553442.10647  19245433.625    19245433.228    19245442.515
       239.000         200.000
 -23319032.01949 -17505701.54347  20415336.723    20415336.179    20415348.692
       231.000         189.000
   7291775.35449   5689384.98045  22871909.510    22871908.335    22871924.586
       209.000         143.000
 -11800011.55049  -9178790.52046  22027884.279    22027884.390    22027897.565
       222.000         175.000
 00  5 23 17 37 59.9950000  0  6G30G 5G24G10G 9G 6
 -26904995.94349 -20939245.43247  19944327.401    19944327.597    19944337.113
       241.000         202.000
 -23545615.60949 -18322756.30147  18752230.559    18752229.925    18752238.830
       233.000         199.000
 -13548406.60849 -10542221.91747  19248173.758    19248173.368    19248182.669
       239.000         200.000
 -23426077.67549 -17589113.65247  20394966.543    20394965.978    20394978.482
       230.000         189.000
   7351327.95949   5735789.26445  22883242.248    22883240.968    22883257.374
       209.000         139.000
 -11904935.59549  -9260549.44246  22007917.842    22007917.918    22007931.121
       223.000         176.000
 00  5 23 17 38 29.9950000  0  6G30G 5G24G10G 9G 6
 -27005771.96049 -21017772.16447  19925150.405    19925150.565    19925160.019
       241.000         202.000
 -23575418.17649 -18345979.10647  18746559.350    18746558.697    18746567.608
       234.000         199.000
 -13533661.34249 -10530732.14647  19250979.724    19250979.316    19250988.656
       239.000         199.000
 -23532700.00849 -17672195.87747  20374676.922    20374676.357    20374688.856
       230.000         189.000
   7410868.79149   5782184.37645  22894572.596    22894571.448    22894587.927
       210.000         142.000
 -12009815.62849  -9342274.06346  21987959.950    21987959.897    21987973.079
       226.000         179.000
 00  5 23 17 38 59.9950000  0  6G30G 5G24G10G 9G 6
 -27106145.40649 -21095985.19747  19906049.926    19906050.113    19906059.565
       242.000         203.000
 -23604682.97049 -18368782.86947  18740990.459    18740989.811    18740998.744
       233.000         199.000
 -13518577.60449 -10518978.63847  19253850.060    19253849.681    19253859.042
       238.000         200.000
 -23638901.74549 -17754950.38247  20354467.313    20354466.749    20354479.209
       232.000         190.000
   7470389.85049   5828564.07045  22905899.229    22905898.142    22905914.740
       215.000         148.000
 -12114656.99049  -9423968.55746  21968009.361    21968009.240    21968022.380
       226.000         181.000
 00  5 23 17 39 29.9950000  0  6G30G 5G24G10G 9G 6
 -27206123.42149 -21173890.10647  19887024.684    19887024.891    19887034.344
       242.000         202.000
 -23633419.60049 -18391175.07847  18735522.090    18735521.431    18735530.366
       235.000         199.000
 -13503167.27649 -10506970.64047  19256782.562    19256782.198    19256791.565
       240.000         199.000
 -23744689.43649 -17837382.24047  20334336.607    20334335.978    20334348.366
       234.000         191.000
   7529878.47749   5874918.50245  22917220.064    22917218.845    22917235.296
       217.000         149.000
 -12219469.15849  -9505640.29846  21948064.263    21948064.135    21948077.227
       229.000         182.000
 00  5 23 17 39 59.9950000  0  6G30G 5G24G10G 9G 6
 -27305693.87549 -21251477.43347  19868076.996    19868077.216    19868086.644
       242.000         202.000
 -23661617.64949 -18413147.61147  18730156.216    18730155.526    18730164.489
       233.000         199.000
 -13487422.71549 -10494702.20647  19259778.645    19259778.298    19259787.689
       239.000         200.000
 -23850050.60649 -17919481.75347  20314287.132    20314286.372    20314298.722
       234.000         192.000
   7589341.96749   5921253.33045  22928535.803    22928534.664    22928551.118
       214.000         150.000
 -12324242.32349  -9587281.65046  21928126.596    21928126.446    21928139.477
       229.000         182.000
 00  5 23 17 40 29.9950000  0  6G30G 5G24G10G 9G 6
 -27404876.05049 -21328762.20647  19849203.207    19849203.440    19849212.858
       241.000         203.000
 -23689298.15849 -18434716.86747  18724888.787    18724888.119    18724897.084
       233.000         199.000
 -13471367.68849 -10482191.85047  19262833.831    19262833.490    19262842.892
       240.000         200.000
 -23955003.94249 -18001263.46347  20294315.120    20294314.362    20294326.670
       234.000         191.000
   7648755.78549   5967549.45245  22939842.111    22939840.997    22939857.635
       215.000         153.000
 -12428997.89449  -9668909.30846  21908192.241    21908192.120    21908205.065
       228.000         180.000
 00  5 23 17 40 59.9940000  0  6G30G 5G24G10G 9G 6
 -27503659.84849 -21405736.55547  19830405.235    19830405.484    19830414.851
       242.000         203.000
 -23716455.50649 -18455878.47247  18719720.958    18719720.292    18719729.246
       235.000         199.000
 -13455000.32849 -10469438.12247  19265948.480    19265948.119    19265957.548
       239.000         200.000
 -24059538.74449 -18082719.06547  20274422.845    20274422.019    20274434.242
       234.000         192.000
   7708120.02549   6013806.94845  22951139.082    22951137.921    22951154.725
       216.000         153.000
 -12533727.73749  -9750516.89746  21888262.706    21888262.632    21888275.504
       226.000         174.000
 00  5 23 17 41 29.9940000  0  6G30G 5G24G10G 9G 6
 -27602026.07949 -21482385.52147  19811686.734    19811686.976    19811696.345
       241.000         203.000
 -23743067.71849 -18476615.28447  18714656.823    18714656.176    18714665.154
       233.000         198.000
 -13438298.39549 -10456423.68447  19269126.766    19269126.414    19269135.880
       238.000         200.000
 -24163635.77349 -18163833.52147  20254613.769    20254612.952    20254625.134
       234.000         192.000
   7767459.21249   6060044.88945  22962431.256    22962430.104    22962447.078
       212.000         154.000
 -12638415.11949  -9832091.39546  21868341.240    21868341.191    21868354.044
       227.000         175.000
 00  5 23 17 41 59.9940000  0  6G30G 5G24G10G 9G 6
 -27699967.25249 -21558703.27447  19793049.099    19793049.347    19793058.742
       241.000         204.000
 -23769131.80249 -18496924.99147  18709697.014    18709696.356    18709705.355
       232.000         198.000
 -13421262.86549 -10443149.30247  19272368.590    19272368.210    19272377.690
       239.000         200.000
 -24267287.43049 -18244600.94047  20234889.376    20234888.610    20234900.765
       233.000         192.000
   7826770.11049   6106260.78345  22973718.011    22973716.814    22973733.980
       214.000         153.000
 -12743054.64349  -9913628.60246  21848429.052    21848428.958    21848441.730
       227.000         176.000
 00  5 23 17 42 29.9940000  0  6G30G 5G24G10G 9G 6
 -27797490.96149 -21634695.73747  19774490.932    19774491.182    19774500.568
       244.000         203.000
 -23794656.92949 -18516814.73647  18704839.721    18704839.073    18704848.108
       234.000         197.000
 -13403905.57949 -10429624.21147  19275671.665    19275671.262    19275680.734
       241.000         199.000
 -24370500.34549 -18325026.49047  20215248.498    20215247.765    20215259.905
       234.000         189.000
   7886040.55049   6152445.15845  22984997.130    22984995.877    22985013.128
       212.000         146.000
 -12847656.04449  -9995136.10746  21828524.082    21828523.939    21828536.690
       228.000         172.000
 00  5 23 17 42 59.9940000  0  6G30G 5G24G10G 9G 6
 -27894604.64249 -21710368.69847  19756010.810    19756011.037    19756020.389
       242.000         203.000
 -23819652.86649 -18536292.11747  18700083.128    18700082.515    18700091.568
       233.000         198.000
 -13386238.62049 -10415857.80647  19279033.648    19279033.222    19279042.688
       239.000         200.000
 -24473281.48549 -18405115.58047  20195689.801    20195689.087    20195701.165
       233.000         191.000
   7945257.96649   6198588.21145  22996266.182    22996264.865    22996282.166
       206.000         145.000
 -12952229.01549 -10076621.44946  21808624.432    21808624.293    21808637.057
       225.000         173.000
 00  5 23 17 43 29.9940000  0  6G30G 5G24G10G 9G 6
 -27991251.75549 -21785678.10347  19737619.458    19737619.681    19737628.972
       243.000         203.000
 -23844065.22849 -18555314.76747  18695437.634    18695437.016    18695446.072
       234.000         198.000
 -13368209.74049 -10401809.39347  19282464.457    19282464.032    19282473.491
       240.000         200.000
 -24575573.89749 -18484823.85947  20176224.132    20176223.404    20176235.432
       235.000         192.000
   8004473.91549   6244730.08545  23007534.941    23007533.631    23007551.040
       207.000         145.000
 -13056719.00149 -10158042.15046  21788740.574    21788740.450    21788753.187
       226.000         172.000
 00  5 23 17 43 59.9940000  0  6G30G 5G24G10G 9G 6
 -28087479.99349 -21860661.12047  19719307.841    19719308.051    19719317.290
       244.000         203.000
 -23867943.60949 -18573921.33247  18690893.823    18690893.159    18690902.192
       235.000         197.000
 -13349871.00649 -10387519.53747  19285954.268    19285953.828    19285963.266
       241.000         199.000
 -24677424.70949 -18564188.03247  20156842.519    20156841.799    20156853.748
       236.000         192.000
   8063635.68049   6290829.78445  23018793.268    23018792.002    23018809.534
       211.000         146.000
 -13161175.64549 -10239436.84546  21768863.057    21768862.930    21768875.657
       227.000         171.000
 00  5 23 17 44 29.9940000  0  6G30G 5G24G10G 9G 6
 -28183285.35749 -21935314.60647  19701076.641    19701076.853    19701086.077
       242.000         204.000
 -23891286.20349 -18592110.39447  18686451.920    18686451.230    18686460.268
       233.000         198.000
 -13331223.17449 -10372988.82047  19289502.855    19289502.430    19289511.881
       240.000         200.000
 -24778829.96749 -18643205.00747  20137545.691    20137544.945    20137556.849
       235.000         193.000
   8122742.27549   6336886.49045  23030041.202    23030039.890    23030057.504
       210.000         145.000
 -13265597.24249 -10320804.22846  21748992.261    21748992.107    21749004.800
       225.000         174.000
 00  5 23 17 44 59.9940000  0  6G30G 5G24G10G 9G 6
 -28278677.41649 -22009646.05447  19682924.084    19682924.316    19682933.532
       244.000         204.000
 -23914104.53749 -18609890.95447  18682109.773    18682109.084    18682118.108
       235.000         198.000
 -13312280.04249 -10358228.01747  19293107.696    19293107.248    19293116.697
       242.000         200.000
 -24879799.02149 -18721882.10147  20118331.820    20118331.107    20118342.979
       235.000         194.000
   8181779.16349   6382888.85145  23041275.923    23041274.555    23041292.344
       212.000         145.000
 -13369995.40149 -10402153.36546  21729125.823    21729125.723    21729138.345
       226.000         173.000
 00  5 23 17 45 29.9940000  0  6G30G 5G24G10G 9G 6
 -28373620.17949 -22083627.38947  19664857.042    19664857.279    19664866.484
       244.000         203.000
 -23936364.58949 -18627236.47447  18677873.885    18677873.169    18677882.184
       235.000         197.000
 -13293009.91549 -10343212.39747  19296774.752    19296774.287    19296783.726
       240.000         200.000
 -24980294.86749 -18800190.44847  20099208.058    20099207.341    20099219.181
       236.000         194.000
   8240777.39649   6428861.12845  23052503.315    23052501.862    23052519.740
       212.000         143.000
 -13474336.05049 -10483457.65346  21709270.333    21709270.286    21709282.885
       229.000         177.000
 00  5 23 17 45 59.9940000  0  6G30G 5G24G10G 9G 6
 -28468148.30749 -22157285.63147  19646868.892    19646869.130    19646878.343
       242.000         204.000
 -23958103.35049 -18644175.78947  18673737.100    18673736.423    18673745.458
       233.000         198.000
 -13273452.13549 -10327972.62447  19300496.447    19300496.032    19300505.510
       239.000         200.000
 -25080351.99349 -18878156.93247  20080167.755    20080167.033    20080178.865
       234.000         194.000
   8299697.20449   6474772.29745  23063715.709    23063714.258    23063731.992
       207.000         136.000
 -13578656.01849 -10564745.82346  21689418.823    21689418.794    21689431.377
       230.000         181.000
 00  5 23 17 46 29.9940000  0  6G30G 5G24G10G 9G 6
 -28562228.08849 -22230594.50847  19628966.063    19628966.307    19628975.520
       241.000         204.000
 -23979289.00449 -18660684.11847  18669705.662    18669704.962    18669713.984
       233.000         198.000
 -13253577.19649 -10312485.72247  19304278.611    19304278.148    19304287.635
       239.000         200.000
 -25179936.28849 -18955754.98547  20061217.386    20061216.696    20061228.525
       233.000         195.000
   8358567.64849   6520644.94645  23074918.446    23074917.091    23074934.900
       205.000         138.000
 -13682923.29249 -10645992.94946  21669577.424    21669577.345    21669589.870
       231.000         183.000
 00  5 23 17 46 59.9940000  0  6G30G 5G24G10G 9G 6
 -28655878.85649 -22303569.09947  19611144.908    19611145.155    19611154.322
       242.000         204.000
 -23999943.21449 -18676778.33247  18665775.314    18665774.613    18665783.643
       234.000         198.000
 -13233408.91949 -10296770.24847  19308116.566    19308116.107    19308125.597
       240.000         200.000
 -25279066.66049 -19032999.33147  20042353.394    20042352.736    20042364.558
       235.000         195.000
   8417364.26149   6566460.06545  23086107.236    23086105.980    23086123.871
       205.000         139.000
 -13787159.44649 -10727215.83846  21649741.889    21649741.834    21649754.277
       231.000         182.000
 00  5 23 17 47 29.9940000  0  6G30G 5G24G10G 9G 6
 -28749071.06149 -22376186.36947  19593411.046    19593411.248    19593420.420
       242.000         205.000
 -24020038.56449 -18692437.08147  18661951.349    18661950.647    18661959.664
       233.000         199.000
 -13212922.23849 -10280806.66047  19312015.128    19312014.653    19312024.128
       240.000         200.000
 -25377713.09449 -19109866.59947  20023581.572    20023580.913    20023592.667
       234.000         194.000
   8476111.69049   6612236.88845  23097286.874    23097285.486    23097303.471
       206.000         141.000
 -13891337.06649 -10808393.11646  21629917.468    21629917.435    21629929.821
       230.000         180.000
 00  5 23 17 47 59.9940000  0  6G30G 5G24G10G 9G 6
 -28841854.11549 -22448484.81247  19575755.045    19575755.214    19575764.366
       242.000         205.000
 -24039626.32949 -18707700.30447  18658223.957    18658223.233    18658232.275
       233.000         198.000
 -13192170.85149 -10264636.79847  19315964.063    19315963.561    19315973.016
       240.000         200.000
 -25475924.45049 -19186394.81147  20004892.541    20004891.834    20004903.598
       234.000         194.000
   8534755.84249   6657933.23645  23108446.934    23108445.433    23108463.561
       212.000         147.000
 -13995507.50249 -10889564.77946  21610094.373    21610094.383    21610106.741
       227.000         179.000
 00  5 23 17 48 29.9940000  0  6G30G 5G24G10G 9G 6
 -28934181.62249 -22520428.29547  19558185.711    19558185.872    19558195.021
       244.000         206.000
 -24058662.67449 -18722533.85947  18654601.447    18654600.750    18654609.812
       234.000         198.000
 -13171112.84149 -10248228.02147  19319971.266    19319970.795    19319980.279
       242.000         200.000
 -25573654.70249 -19262548.15647  19986295.069    19986294.342    19986306.068
       237.000         194.000
   8593337.91649   6703581.20345  23119595.134    23119593.568    23119611.710
       218.000         150.000
 -14099626.61249 -10970696.44746  21590281.043    21590281.065    21590293.441
       229.000         178.000
 00  5 23 17 48 59.9940000  0  6G30G 5G24G10G 9G 6
 -29026052.93349 -22592016.29247  19540703.140    19540703.321    19540712.492
       242.000         206.000
 -24077148.82949 -18736938.68947  18651083.696    18651082.994    18651092.049
       234.000         198.000
 -13149751.79749 -10231583.10347  19324036.164    19324035.710    19324045.218
       240.000         201.000
 -25670902.31949 -19338325.41747  19967789.336    19967788.636    19967800.352
       235.000         195.000
   8651854.03449   6749177.76945  23130730.748    23130729.129    23130747.354
       216.000         151.000
 -14203695.14449 -11051788.70346  21570477.464    21570477.429    21570489.762
       226.000         178.000
 00  5 23 17 49 29.9940000  0  6G30G 5G24G10G 9G 6
 -29117463.04849 -22663244.92647  19523308.414    19523308.543    19523317.701
       244.000         206.000
 -24095082.07949 -18750912.69847  18647671.185    18647670.439    18647679.482
       236.000         198.000
 -13128087.08049 -10214701.57047  19328158.896    19328158.422    19328167.927
       242.000         200.000
 -25767661.81349 -19413722.34347  19949376.556    19949375.846    19949387.520
       237.000         195.000
   8710304.47649   6794723.19045  23141853.904    23141852.248    23141870.515
       218.000         152.000
 -14307710.11949 -11132839.23046  21550684.042    21550683.989    21550696.300
       227.000         176.000
 00  5 23 17 49 59.9940000  0  6G30G 5G24G10G 9G 6
 -29208433.94449 -22734131.30147  19505997.166    19505997.339    19506006.474
       241.000         205.000
 -24112486.72749 -18764474.78347  18644359.247    18644358.493    18644367.531
       233.000         198.000
 -13106145.17249 -10197604.02047  19332334.427    19332333.901    19332343.391
       240.000         201.000
 -25863955.16549 -19488756.00947  19931052.482    19931051.765    19931063.411
       235.000         196.000
   8768661.95849   6840196.17645  23152959.260    23152957.658    23152976.052
       215.000         151.000
 -14411695.72649 -11213866.83946  21530896.154    21530896.090    21530908.447
       225.000         175.000
 00  5 23 17 50 29.9940000  0  6G30G 5G24G10G 9G 6
 -29298950.14749 -22804663.37747  19488772.485    19488772.637    19488781.788
       243.000         206.000
 -24129349.39549 -18777614.56047  18641150.475    18641149.683    18641158.686
       235.000         199.000
 -13083914.95449 -10180281.83147  19336564.797    19336564.240    19336573.715
       242.000         201.000
 -25959766.60749 -19563414.18047  19912820.131    19912819.389    19912831.004
       237.000         196.000
   8826937.63849   6885605.41345  23164048.848    23164047.461    23164065.938
       212.000         147.000
 -14515638.49649 -11294861.11346  21511116.434    21511116.361    21511128.699
       229.000         174.000
 00  5 23 17 50 59.9940000  0  6G30G 5G24G10G 9G 6
 -29388900.88849 -22874754.82947  19471655.392    19471655.542    19471664.745
       242.000         206.000
 -24145561.60749 -18790247.49147  18638065.353    18638064.605    18638073.626
       234.000         198.000
 -13061289.90949 -10162651.97347  19340870.225    19340869.684    19340879.174
       240.000         201.000
 -26054984.80049 -19637610.07547  19894700.694    19894699.923    19894711.479
       235.000         195.000
   8885237.41549   6931033.40645  23175143.147    23175141.841    23175160.542
       211.000         146.000
 -14619429.46149 -11375737.11446  21491365.629    21491365.528    21491377.767
       227.000         170.000
 00  5 23 17 51 29.9940000  0  6G30G 5G24G10G 9G 6
 -29478295.23949 -22944412.73647  19454644.168    19454644.340    19454653.524
       243.000         206.000
 -24161134.39049 -18802382.16547  18635101.995    18635101.234    18635110.247
       234.000         198.000
 -13038283.25049 -10144724.75447  19345248.263    19345247.737    19345257.241
       241.000         200.000
 -26149618.56749 -19711350.57247  19876692.385    19876691.642    19876703.169
       236.000         196.000
   8943547.70549   6976469.54845  23186239.714    23186238.285    23186257.143
       210.000         145.000
 -14723079.18249 -11456503.06546  21471641.618    21471641.518    21471653.670
       230.000         172.000
 00  5 23 17 51 59.9940000  0  6G30G 5G24G10G 9G 6
 -29567194.48049 -23013684.83647  19437727.172    19437727.349    19437736.541
       243.000         206.000
 -24176131.70649 -18814068.42347  18632248.140    18632247.378    18632256.377
       234.000         200.000
 -13014960.83949 -10126551.49847  19349686.401    19349685.895    19349695.411
       240.000         201.000
 -26243729.07349 -19784683.32547  19858783.642    19858782.919    19858794.463
       235.000         196.000
   9001802.21549   7021862.28945  23197325.403    23197323.989    23197342.914
       203.000         139.000
 -14826651.05149 -11537208.34246  21451932.448    21451932.371    21451944.439
       230.000         174.000
 00  5 23 17 52 29.9940000  0  6G30G 5G24G10G 9G 6
 -29655636.38549 -23082600.57647  19420897.217    19420897.394    19420906.577
       243.000         206.000
 -24190593.38149 -18825337.29647  18629496.225    18629495.440    18629504.452
       234.000         199.000
 -12991364.79149 -10108165.01747  19354176.643    19354176.133    19354185.650
       241.000         201.000
 -26337353.84449 -19857637.60047  19840967.395    19840966.655    19840978.173
       236.000         197.000
   9059958.34549   7067178.41845  23208392.397    23208390.949    23208410.017
       207.000         139.000
 -14930184.85149 -11617883.96646  21432230.547    21432230.453    21432242.475
       230.000         177.000
 00  5 23 17 52 59.9940000  0  6G30G 5G24G10G 9G 6
 -29743587.45949 -23151133.85247  19404160.710    19404160.837    19404169.991
       242.000         205.000
 -24204488.10149 -18836164.38847  18626852.146    18626851.366    18626860.414
       234.000         199.000
 -12967465.40049 -10089542.16247  19358724.611    19358724.082    19358733.616
       240.000         200.000
 -26430458.56949 -19930186.63647  19823250.103    19823249.345    19823260.873
       236.000         197.000
   9118045.08449   7112440.41845  23219446.452    23219444.913    23219464.015
       205.000         144.000
 -15033648.48349 -11698504.89446  21412542.013    21412541.928    21412553.905
       228.000         176.000
 00  5 23 17 53 29.9940000  0  6G30G 5G24G10G 9G 6
 -29831043.59149 -23219281.46147  19387518.411    19387518.489    19387527.598
       244.000         206.000
 -24217814.62949 -18846548.74647  18624316.214    18624315.433    18624324.504
       236.000         200.000
 -12943263.48849 -10070683.58947  19363330.142    19363329.603    19363339.127
       240.000         200.000
 -26523039.25149 -20002327.34747  19805632.487    19805631.747    19805643.267
       236.000         197.000
   9176061.41549   7157647.52445  23230486.932    23230485.373    23230504.634
       206.000         141.000
 -15137040.27349 -11779069.85846  21392867.140    21392867.049    21392878.982
       227.000         176.000
 00  5 23 17 53 59.9940000  0  7G17G30G 5G24G10G 9G 6
   -390951.82059   -288438.60355  23341932.859    23341931.524    23341953.637
       208.000         142.000
 -29918056.79849 -23287083.93147  19370960.401    19370960.435    19370969.508
       243.000         206.000
 -24230626.55449 -18856532.11447  18621878.218    18621877.431    18621886.495
       236.000         200.000
 -12918815.04649 -10051632.91447  19367982.567    19367982.019    19367991.567
       240.000         200.000
 -26615147.57849 -20074099.99547  19788104.733    19788104.017    19788115.541
       236.000         196.000
   9233950.68449   7202755.63245  23241503.086    23241501.546    23241521.016
       207.000         144.000
 -15240413.83449 -11859620.59646  21373195.710    21373195.635    21373207.552
       227.000         175.000
 00  5 23 17 54 29.9940000  0  7G17G30G 5G24G10G 9G 6
   -520052.94549   -389036.71745  23317365.754    23317365.583    23317385.005
       212.000         146.000
 -30004573.48649 -23354499.50447  19354496.800    19354496.842    19354505.896
       244.000         206.000
 -24242872.59249 -18866074.52647  18619547.932    18619547.126    18619556.188
       237.000         199.000
 -12894070.54949 -10032351.54847  19372691.333    19372690.779    19372700.336
       242.000         199.000
 -26706729.61849 -20145462.54847  19770677.233    19770676.467    19770687.957
       238.000         197.000
   9291762.49449   7247803.40945  23252504.596    23252503.076    23252522.669
       213.000         147.000
 -15343716.89349 -11940116.41846  21353537.799    21353537.651    21353549.540
       228.000         173.000
 00  5 23 17 54 59.9940000  0  7G17G30G 5G24G10G 9G 6
   -649025.23159   -489534.41555  23292823.060    23292822.581    23292841.330
       211.000         146.000
 -30090615.46949 -23421545.17047  19338123.492    19338123.563    19338132.616
       242.000         206.000
 -24254576.96249 -18875194.85847  18617320.651    18617319.872    18617328.968
       234.000         200.000
 -12869056.21549 -10012859.91347  19377451.444    19377450.897    19377460.464
       240.000         199.000
 -26797806.83749 -20216431.73147  19753345.825    19753344.987    19753356.449
       237.000         198.000
   9349469.99349   7292769.87345  23263486.477    23263484.865    23263504.383
       212.000         149.000
 -15446973.30449 -12020575.87346  21333888.629    21333888.535    21333900.445
       226.000         176.000
 00  5 23 17 55 29.9940000  0  7G17G30G 5G24G10G 9G 6
   -777875.38649   -589936.91345  23268303.844    23268303.301    23268321.947
       213.000         148.000
 -30176188.11849 -23488225.11747  19321839.525    19321839.602    19321848.657
       242.000         206.000
 -24265747.61449 -18883899.29947  18615194.942    18615194.194    18615203.309
       235.000         201.000
 -12843781.69449  -9993165.53447  19382261.062    19382260.496    19382270.087
       240.000         199.000
 -26888384.53149 -20287011.68147  19736109.414    19736108.587    19736119.996
       236.000         198.000
   9407063.16849   7337647.27745  23274446.412    23274444.762    23274464.246
       213.000         149.000
 -15550190.22549 -12101004.55046  21314247.020    21314246.919    21314258.889
       227.000         178.000
 00  5 23 17 55 59.9940000  0  7G17G30G 5G24G10G 9G 6
   -906597.09549   -690239.31845  23243808.894    23243808.155    23243826.978
       212.000         148.000
 -30261284.39149 -23554533.86247  19305646.200    19305646.284    19305655.343
       242.000         206.000
 -24276379.78549 -18892184.14647  18613171.738    18613170.987    18613180.126
       235.000         200.000
 -12818243.96849  -9973266.06147  19387120.719    19387120.196    19387129.826
       240.000         200.000
 -26978455.34249 -20357196.65247  19718969.479    19718968.620    19718980.002
       236.000         197.000
   9464544.38449   7382437.44645  23285384.923    23285383.307    23285402.984
       214.000         152.000
 -15653362.32549 -12181398.30246  21294613.873    21294613.815    21294625.852
       229.000         180.000
 00  5 23 17 56 29.9940000  0  7G17G30G 5G24G10G 9G 6
  -1035170.67349   -790426.31845  23219342.034    23219341.238    23219360.308
       212.000         149.000
 -30345883.62749 -23620455.31047  19289547.425    19289547.564    19289556.595
       242.000         206.000
 -24286455.36349 -18900035.28647  18611254.482    18611253.715    18611262.857
       235.000         201.000
 -12792426.96849  -9953148.97547  19392033.575    19392033.061    19392042.698
       239.000         200.000
 -27067998.24449 -20426970.27447  19701929.978    19701929.119    19701940.473
       236.000         198.000
   9521929.64149   7427152.79745  23296305.389    23296303.759    23296323.523
       217.000         153.000
 -15756470.79349 -12261742.48146  21274992.964    21274992.876    21275004.841
       230.000         181.000
 00  5 23 17 56 59.9940000  0  7G17G30G 5G24G10G 9G 6
  -1163624.60749   -890520.07245  23194897.946    23194897.104    23194916.408
       212.000         150.000
 -30430013.71249 -23686011.18147  19273537.942    19273538.096    19273547.135
       241.000         206.000
 -24296004.10549 -18907475.90447  18609437.465    18609436.685    18609445.826
       236.000         201.000
 -12766362.45949  -9932839.02547  19396993.555    19396993.024    19397002.668
       240.000         199.000
 -27157040.83349 -20496354.03647  19684985.586    19684984.796    19684996.151
       235.000         198.000
   9579187.04649   7471768.50645  23307201.474    23307199.855    23307219.668
       216.000         153.000
 -15859544.94449 -12342059.90846  21255378.609    21255378.487    21255390.373
       229.000         181.000
 00  5 23 17 57 29.9940000  0  7G17G30G 5G24G10G 9G 6
  -1291940.25249   -990506.06545  23170480.137    23170479.315    23170498.728
       214.000         150.000
 -30513654.99949 -23751186.17447  19257621.454    19257621.636    19257630.696
       241.000         206.000
 -24305008.57349 -18914492.41847  18607723.975    18607723.217    18607732.380
       236.000         201.000
 -12740034.73049  -9912323.96347  19402003.638    19402003.094    19402012.722
       240.000         199.000
 -27245563.38649 -20565332.58047  19668140.194    19668139.427    19668150.793
       236.000         199.000
   9636331.49049   7516296.24945  23318075.913    23318074.350    23318094.190
       214.000         150.000
 -15962566.84549 -12422336.61746  21235774.199    21235774.030    21235785.914
       227.000         181.000
 00  5 23 17 57 59.9940000  0  7G17G30G 5G24G10G 9G 6
  -1420112.32749  -1090380.20745  23146089.710    23146088.976    23146108.352
       216.000         151.000
 -30596801.19249 -23815975.38547  19241799.253    19241799.414    19241808.462
       242.000         207.000
 -24313464.91549 -18921081.82147  18606114.878    18606114.078    18606123.237
       236.000         201.000
 -12713441.68449  -9891602.17147  19407064.209    19407063.634    19407073.270
       239.000         199.000
 -27333559.10749 -20633900.61147  19651395.061    19651394.321    19651405.688
       236.000         199.000
   9693364.79749   7560737.40045  23328929.249    23328927.730    23328947.603
       215.000         151.000
 -16065531.66649 -12502568.85046  21216180.524    21216180.411    21216192.300
       227.000         181.000
 00  5 23 17 58 29.9940000  0  7G17G30G 5G24G10G 9G 6
  -1548151.96849  -1190151.14045  23121724.474    23121723.732    23121743.203
       216.000         152.000
 -30679462.23949 -23880386.55347  19226069.320    19226069.502    19226078.550
       241.000         207.000
 -24321385.79149 -18927253.97147  18604607.666    18604606.835    18604615.988
       237.000         201.000
 -12686597.63149  -9870684.77847  19412172.451    19412171.918    19412181.590
       239.000         198.000
 -27421038.05149 -20702065.95347  19634748.287    19634747.548    19634758.907
       236.000         199.000
   9750272.49549   7605080.65145  23339758.813    23339757.291    23339777.186
       212.000         148.000
 -16168451.28249 -12582765.85146  21196595.479    21196595.373    21196607.308
       227.000         180.000
 00  5 23 17 58 59.9940000  0  7G17G30G 5G24G10G 9G 6
  -1676064.60949  -1289823.08545  23097383.420    23097382.691    23097402.136
       216.000         152.000
 -30761642.55849 -23944423.12647  19210430.895    19210431.069    19210440.134
       243.000         207.000
 -24328777.88149 -18933014.07347  18603201.033    18603200.199    18603209.357
       238.000         201.000
 -12659511.07049  -9849578.41847  19417326.849    19417326.338    19417336.032
       241.000         198.000
 -27508004.27749 -20769831.77847  19618199.075    19618198.350    19618209.701
       238.000         198.000
   9807045.57449   7649318.99445  23350562.671    23350561.131    23350581.106
       212.000         147.000
 -16271331.82549 -12662932.42246  21177017.810    21177017.780    21177029.689
       230.000         179.000
 00  5 23 17 59 29.9940000  0  7G17G30G 5G24G10G 9G 6
  -1803832.58249  -1389382.28345  23073069.897    23073069.130    23073088.565
       217.000         152.000
 -30843323.82849 -24008070.83447  19194887.400    19194887.582    19194896.690
       241.000         207.000
 -24335625.29049 -18938349.75447  18601898.044    18601897.210    18601906.379
       236.000         202.000
 -12632167.84349  -9828272.06247  19422530.167    19422529.623    19422539.325
       239.000         199.000
 -27594439.41249 -20837183.77147  19601750.995    19601750.242    19601761.560
       237.000         199.000
   9863697.79349   7693463.16245  23361343.435    23361341.947    23361362.155
       214.000         145.000
 -16374156.32849 -12743055.33646  21157450.910    21157450.865    21157462.736
       230.000         181.000
 00  5 23 17 59 59.9940000  0  7G17G30G 5G24G10G 9G 6
  -1931473.32849  -1488842.34145  23048780.611    23048779.857    23048799.159
       215.000         151.000
 -30924522.97149 -24071342.86047  19179435.676    19179435.847    19179445.003
       241.000         207.000
 -24341946.99649 -18943275.79747  18600695.105    18600694.270    18600703.442
       236.000         201.000
 -12604588.79749  -9806781.95147  19427778.328    19427777.796    19427787.498
       238.000         199.000
 -27680359.67749 -20904134.56647  19585400.925    19585400.120    19585411.404
       237.000         200.000
   9920208.17949   7737496.80845  23372097.296    23372095.782    23372116.114
       214.000         144.000
 -16476943.11049 -12823148.85346  21137891.219    21137891.159    21137903.005
       231.000         183.000
 00  5 23 18  0 29.9940000  0  7G17G30G 5G24G10G 9G 6
  -2058948.43349  -1588173.29545  23024522.660    23024522.065    23024541.257
       212.000         147.000
 -31005200.31949 -24134208.29547  19164083.271    19164083.439    19164092.592
       241.000         207.000
 -24347705.92649 -18947763.31747  18599599.214    18599598.401    18599607.595
       236.000         201.000
 -12576738.24549  -9785080.27747  19433078.157    19433077.611    19433087.328
       239.000         198.000
 -27765725.64049 -20970653.43847  19569156.393    19569155.514    19569166.722
       237.000         200.000
   9976611.58749   7781447.06745  23382830.846    23382829.396    23382849.749
       211.000         143.000
 -16579654.15749 -12903183.36646  21118345.944    21118345.839    21118357.679
       231.000         183.000
 00  5 23 18  0 59.9940000  0  7G17G30G 5G24G10G 9G 6
  -2186273.09649  -1687387.03045  23000293.104    23000292.794    23000312.037
       211.000         144.000
 -31085370.00649 -24196678.14947  19148827.423    19148827.616    19148836.782
       241.000         208.000
 -24352918.79449 -18951825.32747  18598607.296    18598606.467    18598615.671
       236.000         201.000
 -12548634.70749  -9763181.47147  19438426.173    19438425.599    19438435.308
       239.000         198.000
 -27850551.34749 -21036751.32247  19553014.559    19553013.667    19553024.861
       237.000         200.000
  10032889.60449   7825299.62545  23393540.627    23393539.057    23393559.533
       212.000         139.000
 -16682305.45049 -12983171.32046  21098812.097    21098811.928    21098823.688
       231.000         181.000
 00  5 23 18  1 29.9940000  0  7G17G30G 5G24G10G 9G 6
  -2313452.36549  -1786487.45945  22976091.629    22976091.324    22976110.354
       213.000         143.000
 -31165035.92149 -24258755.45847  19133667.558    19133667.698    19133676.838
       244.000         208.000
 -24357592.10949 -18955466.91747  18597718.030    18597717.194    18597726.423
       239.000         200.000
 -12520285.95649  -9741091.58947  19443820.784    19443820.238    19443829.934
       241.000         197.000
 -27934840.39049 -21102431.03847  19536974.821    19536973.954    19536985.098
       240.000         199.000
  10089033.93449   7869048.05844  23404224.790    23404223.179    23404243.761
       205.000         127.000
 -16784902.29049 -13063116.83746  21079288.489    21079288.319    21079300.061
       231.000         181.000
 00  5 23 18  1 59.9940000  0  7G17G30G 5G24G10G 9G 6
  -2440472.07649  -1885463.54945  22951920.458    22951920.113    22951939.022
       208.000         138.000
 -31244183.57349 -24320428.91847  19118606.274    19118606.383    19118615.497
       241.000         208.000
 -24361713.62349 -18958678.52147  18596933.755    18596932.934    18596942.183
       237.000         200.000
 -12491681.51149  -9718802.45947  19449264.070    19449263.530    19449273.219
       240.000         197.000
 -28018577.72549 -21167680.83947  19521040.084    19521039.229    19521050.334
       238.000         200.000
  10145054.97449   7912700.40044  23414885.347    23414883.811    23414904.511
       201.000         125.000
 -16887431.37349 -13143009.53446  21059777.735    21059777.605    21059789.387
       230.000         182.000
 00  5 23 18  2 29.9940000  0  7G17G30G 5G24G10G 9G 6
  -2567350.46049  -1984329.53745  22927775.952    22927775.692    22927794.696
       207.000         139.000
 -31322830.03649 -24381711.84947  19103640.317    19103640.441    19103649.550
       241.000         208.000
 -24365302.77549 -18961475.30547  18596250.833    18596249.991    18596259.232
       237.000         201.000
 -12462842.52249  -9696330.56747  19454752.013    19454751.466    19454761.128
       240.000         198.000
 -28101780.60549 -21232514.18147  19505207.093    19505206.227    19505217.281
       238.000         200.000
  10200931.15349   7956239.84744  23425518.635    23425517.051    23425537.947
       195.000         123.000
 -16989911.50349 -13222864.08246  21040276.275    21040276.204    21040288.031
       229.000         185.000
 00  5 23 18  2 59.9940000  0  7G17G30G 5G24G10G 9G 6
  -2694089.83049  -2083087.24145  22903658.089    22903657.875    22903676.683
       210.000         141.000
 -31400976.81549 -24442605.41047  19088769.450    19088769.581    19088778.693
       242.000         208.000
 -24368363.51349 -18963860.34247  18595668.438    18595667.606    18595676.820
       237.000         201.000
 -12433774.35549  -9673680.09747  19460283.536    19460282.993    19460292.640
       239.000         197.000
 -28184450.60849 -21296932.29347  19489475.481    19489474.618    19489485.629
       237.000         200.000
  10256656.61248   7999661.89744  23436123.125    23436121.652    23436142.479
       194.000         119.000
 -17092345.76749 -13302682.89746  21020783.603    21020783.526    21020795.371
       231.000         185.000
 00  5 23 18  3 29.9940000  0  7G17G30G 5G24G10G 9G 6
  -2820694.43649  -2181739.93345  22879565.835    22879565.586    22879584.436
       212.000         147.000
 -31478627.33649 -24503112.27847  19073993.010    19073993.156    19074002.245
       241.000         207.000
 -24370901.84649 -18965838.30847  18595185.476    18595184.629    18595193.810
       237.000         201.000
 -12404484.47349  -9650856.86347  19465857.284    19465856.720    19465866.346
       239.000         197.000
 -28266590.51549 -21360937.33647  19473844.767    19473843.866    19473854.851
       239.000         200.000
  10312223.65948   8042960.43044  23446697.363    23446698.489    23446720.722
       192.000         113.000
 -17194738.67049 -13382469.48846  21001298.833    21001298.746    21001310.545
       231.000         185.000
 00  5 23 18  3 59.9940000  0  7G17G30G 5G24G10G 9G 6
  -2947150.73349  -2280277.01045  22855501.875    22855501.651    22855520.414
       211.000         149.000
 -31555767.25449 -24563221.27547  19059313.687    19059313.880    19059322.946
       242.000         208.000
 -24372905.57349 -18967399.70247  18594804.204    18594803.372    18594812.529
       237.000         201.000
 -12374962.37449  -9627852.68547  19471475.196    19471474.635    19471484.262
       239.000         198.000
 -28348185.88049 -21424518.06347  19458317.644    19458316.743    19458327.716
       238.000         200.000
  10367642.61748   8086143.56244  23457243.448    23457246.250    23457266.868
       194.000         113.000
 -17297077.25249 -13462213.75746  20981824.463    20981824.345    20981836.044
       233.000         185.000
 00  5 23 18  4 29.9930000  0  7G17G30G 5G24G10G 9G 6
  -3073476.10049  -2378712.04245  22831462.732    22831462.543    22831481.328
       209.000         147.000
 -31632414.83549 -24622946.62447  19044728.153    19044728.316    19044737.368
       242.000         209.000
 -24374397.99949 -18968562.67547  18594520.276    18594519.415    18594528.550
       237.000         201.000
 -12345233.79649  -9604687.61247  19477132.406    19477131.844    19477141.478
       239.000         198.000
 -28429254.73049 -21487688.51247  19442890.673    19442889.796    19442900.772
       238.000         201.000
                   8129190.30644  23467756.474                    23467780.125
       192.000         106.000
 -17399380.35149 -13541930.37446  20962356.781    20962356.678    20962368.312
       231.000         185.000
 00  5 23 18  4 59.9930000  0  7G17G30G 5G24G10G 9G 6
  -3199674.06249  -2477047.83145  22807447.592    22807447.563    22807466.410
       205.000         144.000
 -31708569.21149 -24682287.66147  19030236.398    19030236.600    19030245.638
       242.000         208.000
 -24375376.10549 -18969324.88047  18594334.160    18594333.331    18594342.460
       237.000         200.000
 -12315294.94149  -9581358.68247  19482829.605    19482829.065    19482838.717
       240.000         198.000
 -28509796.95649 -21550448.60047  19427563.921    19427563.058    19427574.038
       238.000         200.000
                   8172104.77554  23478237.191
       188.000         105.000
 -17501650.42649 -13621621.24346  20942895.244    20942895.220    20942906.898
       230.000         184.000
 00  5 23 18  5 29.9930000  0  7G17G30G 5G24G10G 9G 6
  -3325716.08649  -2575262.09745  22783462.114    22783462.184    22783481.207
       207.000         146.000
 -31784202.68749 -24741222.80247  19015843.792    19015844.007    19015853.016
       244.000         209.000
 -24375817.03649 -18969668.50947  18594250.283    18594249.467    18594258.608
       239.000         201.000
 -12285125.49849  -9557850.07947  19488570.686    19488570.150    19488579.845
       240.000         197.000
 -28589784.14949 -21612776.19347  19412342.747    19412341.924    19412352.876
       240.000         200.000
                   8214901.78754  23488689.004
       182.000          99.000
 -17603860.10549 -13701265.05246  20923445.290    20923445.281    20923456.999
       233.000         185.000
 00  5 23 18  5 59.9930000  0  7G17G30G 5G24G10G 9G 6
  -3451585.17349  -2673341.61345  22759509.600    22759509.743    22759528.903
       206.000         149.000
 -31859297.95649 -24799738.56247  19001553.580    19001553.828    19001562.845
       243.000         210.000
 -24375705.76949 -18969581.84847  18594271.378    18594270.642    18594279.816
       237.000         201.000
 -12254711.72249  -9534151.08747  19494358.168    19494357.706    19494367.460
       238.000         198.000
 -28669198.37349 -21674657.32347  19397230.586    19397229.834    19397240.779
       238.000         201.000
                   8257591.83554  23499114.830
       185.000         105.000
 -17705992.98949 -13780849.02346  20904009.939    20904009.965    20904021.685
       231.000         185.000
 00  5 23 18  6 29.9930000  0  7G17G30G 5G24G10G 9G 6
  -3577319.51749  -2771316.12945  22735582.739    22735583.051    22735602.226
       211.000         153.000
 -31933892.03249 -24857863.78347  18987358.750    18987359.022    18987368.045
       243.000         209.000
 -24375081.68649 -18969095.60047  18594390.040    18594389.385    18594398.609
       236.000         201.000
 -12224094.41549  -9510293.49847  19500184.414    19500184.014    19500193.796
       238.000         198.000
 -28748076.89449 -21736121.02047  19382220.400    19382219.669    19382230.631
       238.000         201.000
                   8300142.90954  23509506.630
       181.000          97.000
 -17808087.67149 -13860403.23146  20884581.918    20884581.924    20884593.636
       232.000         185.000
 00  5 23 18  6 59.9930000  0  7G17G30G 5G24G10G 9G 6
  -3702907.37049  -2869176.50945  22711684.153    22711684.367    22711703.416
       212.000         155.000
 -32007972.33849 -24915588.66947  18973261.709    18973261.990    18973270.999
       243.000         210.000
 -24373934.79649 -18968201.96747  18594608.266    18594607.646    18594616.896
       237.000         201.000
 -12193265.04349  -9486270.67047  19506051.057    19506050.679    19506060.471
       238.000         198.000
 -28826406.92149 -21797157.31747  19367314.563    19367313.877    19367324.853
       237.000         201.000
                     30849.68953  23519865.919
       174.000          74.000
 -17910133.07249 -13939919.04146  20865163.212    20865163.264    20865174.940
       231.000         184.000
 00  5 23 18  7 29.9930000  0  6G17G30G 5G24G10G 6
  -3828363.89449  -2966934.59645  22687810.419    22687810.595    22687829.617
       212.000         155.000
 -32081553.29649 -24972924.44447  18959259.705    18959259.979    18959268.990
       245.000         210.000
 -24372282.14549 -18966914.23947  18594922.815    18594922.176    18594931.431
       239.000         201.000
 -12162241.94049  -9462096.87447  19511954.565    19511954.213    19511964.029
       240.000         198.000
 -28904203.13849 -21857777.65647  19352510.314    19352509.664    19352520.674
       240.000         201.000
 -18012144.75849 -14019408.57446  20845750.906    20845750.992    20845762.669
       234.000         185.000
 00  5 23 18  7 59.9930000  0  6G17G30G 5G24G10G 6
  -3953644.75349  -3064555.80945  22663969.989    22663970.181    22663989.162
       210.000         155.000
 -32154590.02249 -25029836.15047  18945361.322    18945361.567    18945370.549
       244.000         211.000
 -24370081.12549 -18965199.20347  18595341.663    18595341.044    18595350.326
       237.000         201.000
 -12130983.84549  -9437739.97247  19517902.856    19517902.492    19517912.316
       239.000         199.000
 -28981420.59449 -21917947.01947  19337816.256    19337815.593    19337826.608
       239.000         201.000
 -18114078.89749 -14098837.67546  20826353.391    20826353.495    20826365.167
       232.000         187.000
 00  5 23 18  8 29.9930000  0  6G17G30G 5G24G10G 6
  -4078759.55749  -3162047.60345  22640161.303    22640161.467    22640180.368
       215.000         157.000
 -32227090.92649 -25086330.33447  18931564.895    18931565.112    18931574.061
       246.000         211.000
 -24367343.03549 -18963065.67047  18595862.688    18595862.091    18595871.399
       239.000         201.000
 -12099503.14849  -9413209.61647  19523893.493    19523893.118    19523902.957
       240.000         198.000
 -29058067.46849 -21977671.78247  19323230.810    19323230.131    19323241.087
       241.000         201.000
 -18215945.35349 -14178214.04246  20806968.792    20806968.893    20806980.541
       234.000         187.000
 00  5 23 18  8 59.9930000  0  6G17G30G 5G24G10G 6
  -4203705.31549  -3259407.70245  22616384.706    22616384.930    22616403.733
       214.000         156.000
 -32299052.86449 -25142404.53947  18917871.007    18917871.214    18917880.115
       244.000         210.000
 -24364066.58849 -18960512.63547  18596486.147    18596485.584    18596494.933
       237.000         201.000
 -12067800.05249  -9388505.96747  19529926.429    19529926.054    19529935.931
       238.000         198.000
 -29134140.32649 -22036949.24947  19308754.566    19308753.889    19308764.841
       239.000         202.000
 -18317741.80249 -14257535.86446  20787597.523    20787597.604    20787609.227
       233.000         186.000
 00  5 23 18  9 29.9930000  0  6G17G30G 5G24G10G 6
  -4328495.20449  -3356646.32445  22592637.816    22592638.027    22592656.759
       217.000         158.000
 -32370487.67149 -25198068.00147  18904277.422    18904277.628    18904286.471
       247.000         210.000
 -24360266.87949 -18957551.86947  18597209.305    18597208.682    18597218.027
       239.000         201.000
 -12035890.58249  -9363641.50047  19535998.694    19535998.283    19536008.152
       240.000         198.000
 -29209651.46049 -22095789.01747  19294385.166    19294384.530    19294395.450
       241.000         202.000
 -18419481.87249 -14336813.74446  20768237.009    20768237.046    20768248.640
       234.000         186.000
 00  5 23 18  9 59.9930000  0  6G17G30G 5G24G10G 6
  -4453106.23249  -3453745.60245  22568925.072    22568925.186    22568943.823
       217.000         159.000
 -32441371.71549 -25253302.28947  18890788.711    18890788.859    18890797.659
       245.000         211.000
 -24355922.85549 -18954166.95147  18598035.999    18598035.337    18598044.719
       237.000         200.000
 -12003754.76949  -9338600.66347  19542114.011    19542113.565    19542123.459
       238.000         197.000
 -29284576.83049 -22154172.34447  19280127.318    19280126.652    19280137.550
       238.000         202.000
 -18521142.95649 -14416030.08746  20748891.556    20748891.531    20748903.078
       232.000         184.000
 00  5 23 18 10 29.9930000  0  6G17G30G 5G24G10G 6
  -4577561.64049  -3550723.62345  22545241.822    22545241.878    22545260.533
       217.000         162.000
 -32511727.92649 -25308125.28647  18877400.399    18877400.524    18877409.291
       245.000         211.000
 -24351059.34049 -18950377.25347  18598961.562    18598960.867    18598970.267
       238.000         201.000
 -11971418.97249  -9313404.00147  19548267.323    19548266.887    19548276.813
       238.000         198.000
 -29358939.10549 -22212116.90647  19265976.627    19265975.932    19265986.814
       240.000         203.000
 -18622748.52449 -14495203.17146  20729556.656    20729556.595    20729568.092
       233.000         187.000
 00  5 23 18 10 59.9930000  0  6G17G30G 5G24G10G 6
  -4701849.98349  -3647571.45845  22521590.427    22521590.428    22521609.095
       220.000         162.000
 -32581543.99849 -25362527.39547  18864114.913    18864114.993    18864123.709
       245.000         211.000
 -24345666.61849 -18946175.18547  18599987.858    18599987.120    18599996.520
       237.000         201.000
 -11938874.45949  -9288044.69547  19554460.401    19554459.935    19554469.904
       238.000         198.000
 -29432726.10749 -22269613.19747  19251935.449    19251934.700    19251945.542
       239.000         203.000
 -18724287.54249 -14574324.39346  20710234.432    20710234.332    20710245.802
       233.000         187.000
 00  5 23 18 11 29.9930000  0  6G17G30G 5G24G10G 6
  -4825977.00849  -3744293.60745  22497969.805    22497969.731    22497988.272
       222.000         160.000
 -32650824.92849 -25416512.51847  18850931.232    18850931.281    18850939.949
       246.000         211.000
 -24339752.32249 -18941566.70347  18601113.404    18601112.620    18601122.029
       239.000         202.000
 -11906130.02149  -9262529.61247  19560691.538    19560691.041    19560701.033
       239.000         198.000
 -29505942.70549 -22326665.02547  19238002.818    19238002.003    19238012.804
       240.000         203.000
 -18825766.01049 -14653398.44846  20690923.687    20690923.556    20690935.009
       235.000         187.000
 00  5 23 18 11 59.9930000  0  7G17G30G 5G24G10G 6G25
  -4949940.86449  -3840888.60145  22474380.303    22474380.067    22474398.441
       222.000         154.000
 -32719568.44049 -25470078.86347  18837849.786    18837849.818    18837858.479
       245.000         211.000
 -24333316.60049 -18936551.90647  18602338.175    18602337.348    18602346.748
       237.000         201.000
 -11873186.79549  -9236859.61547  19566960.518    19566959.988    19566969.970
       238.000         197.000
 -29578586.51249 -22383270.51147  19224179.150    19224178.289    19224189.060
       239.000         202.000
 -18927182.42249 -14732424.13547  20671624.756    20671624.603    20671636.049
       233.000         189.000
  -2016184.64659  -1380634.92355  23449073.542    23449072.957    23449085.832
       206.000         135.000
 00  5 23 18 12 29.9930000  0  7G17G30G 5G24G10G 6G25
  -5073752.41749  -3937364.91945  22450819.674    22450819.385    22450837.541
       220.000         151.000
 -32787784.09049 -25523233.89347  18824868.820    18824868.836    18824877.442
       246.000         211.000
 -24326371.95849 -18931140.54547  18603659.727    18603658.884    18603668.331
       237.000         201.000
 -11840058.32149  -9211045.28147  19573264.696    19573264.169    19573274.190
       238.000         196.000
 -29650667.42649 -22439437.38347  19210462.581    19210461.715    19210472.417
       240.000         202.000
 -19028547.87949 -14811410.11446  20652335.548    20652335.344    20652346.802
       232.000         186.000
  -2077640.55949  -1428522.68145  23437378.867    23437378.401    23437391.228
       206.000         137.000
 00  5 23 18 12 59.9930000  0  7G17G30G 5G24G10G 6G25
  -5197405.36949  -4033717.65345  22427289.226    22427288.883    22427306.960
       219.000         154.000
 -32855465.21349 -25575972.41347  18811989.578    18811989.564    18811998.126
       247.000         211.000
 -24318914.05349 -18925329.25547  18605078.899    18605078.102    18605087.570
       238.000         201.000
 -11806741.36349  -9185084.08247  19579604.752    19579604.207    19579614.262
       237.000         197.000
 -29722178.23049 -22495160.02347  19196854.538    19196853.640    19196864.273
       241.000         202.000
 -19129856.48849 -14890351.82146  20633057.118    20633056.902    20633068.336
       233.000         186.000
  -2138642.91749  -1476056.99845  23425770.437    23425770.061    23425782.893
       206.000         138.000
 00  5 23 18 13 29.9930000  0  7G17G30G 5G24G10G 6G25
  -5320909.20349  -4129954.19945  22403787.007    22403786.701    22403804.678
       214.000         151.000
 -32922620.93449 -25628301.52447  18799210.260    18799210.249    18799218.775
       245.000         211.000
 -24310954.32149 -18919126.91847  18606593.612    18606592.824    18606602.320
       238.000         202.000
 -11773248.21449  -9158985.58847  19585978.321    19585977.783    19585987.853
       237.000         197.000
 -29793127.94649 -22550445.44847  19183353.204    19183352.313    19183362.892
       239.000         203.000
 -19231117.77849 -14969256.64246  20613787.646    20613787.469    20613798.797
       231.000         185.000
  -2199201.78449  -1523245.79345  23414246.494    23414246.086    23414259.070
       201.000         137.000
 00  5 23 18 13 59.9930000  0  7G17G30G 5G24G10G 6G25
  -5444262.82449  -4226073.68645  22380313.207    22380313.054    22380331.001
       213.000         147.000
 -32989249.05749 -25680219.52247  18786531.323    18786531.342    18786539.836
       248.000         211.000
 -24302493.50549 -18912534.13947  18608203.632    18608202.880    18608212.441
       239.000         201.000
 -11739580.61049  -9132751.15647  19592385.104    19592384.576    19592394.674
       239.000         197.000
 -29863514.68349 -22605292.19347  19169958.941    19169958.098    19169968.662
       240.000         202.000
 -19332331.00949 -15048124.03946  20594527.260    20594527.164    20594538.405
       234.000         185.000
  -2259317.05549  -1570088.93645  23402806.834    23402806.564    23402819.580
       205.000         135.000
 00  5 23 18 14 29.9930000  0  7G17G30G 5G24G10G 6G25
  -5567472.46249  -4322081.01145  22356867.006    22356866.872    22356884.823
       210.000         150.000
 -33055355.49449 -25731731.00647  18773951.609    18773951.679    18773960.165
       245.000         211.000
 -24293539.79149 -18905557.26947  18609907.473    18609906.732    18609916.344
       237.000         201.000
 -11705747.70749  -9106387.91247  19598823.265    19598822.779    19598832.948
       236.000         196.000
 -29933344.53149 -22659704.98847  19156670.646    19156669.856    19156680.404
       238.000         203.000
 -19433502.79849 -15126959.11846  20575274.837    20575274.764    20575285.962
       232.000         187.000
  -2318995.16749  -1616591.40245  23391450.507    23391450.201    23391463.268
       203.000         138.000
 00  5 23 18 14 59.9930000  0  7G17G30G 5G24G10G 6G25
  -5690507.56749  -4417952.27845  22333453.689    22333453.763    22333471.902
       201.000         146.000
 -33120909.07549 -25782811.70247  18761477.095    18761477.220    18761485.712
       246.000         211.000
 -24284064.51249 -18898174.00047  18611710.521    18611709.836    18611719.498
       236.000         202.000
 -11671721.98849  -9079874.42847  19605298.097    19605297.690    19605307.892
       236.000         197.000
 -30002586.31549 -22713659.56647  19143494.242    19143493.518    19143504.058
       238.000         203.000
 -19534603.09249 -15205738.48947  20556035.988    20556035.932    20556047.181
       232.000         188.000
  -2378206.44849  -1662730.11245  23380183.036    23380182.667    23380195.774
       205.000         139.000
 00  5 23 18 15 29.9930000  0  7G17G30G 5G24G10G 6G25
  -5813366.43149  -4513686.15245  22310073.945    22310074.220    22310092.404
       205.000         145.000
 -33185907.56649 -25833459.86047  18749108.249    18749108.413    18749116.901
       247.000         212.000
 -24274067.76249 -18890384.39447  18613612.839    18613612.175    18613621.884
       240.000         201.000
 -11637504.28549  -9053211.35147  19611809.481    19611809.101    19611819.357
       237.000         195.000
 -30071237.45649 -22767153.90147  19130430.285    19130429.570    19130440.096
       240.000         202.000
 -19635630.31449 -15284460.92346  20536811.107    20536811.035    20536822.280
       235.000         186.000
  -2436949.66249  -1708504.10345  23369004.630    23369004.281    23369017.346
       206.000         139.000
 00  5 23 18 15 59.9930000  0  7G17G30G 5G24G10G 6G25
  -5936067.49649  -4609297.10245  22286724.531    22286724.741    22286742.969
       212.000         155.000
 -33250368.76849 -25883689.35047  18736841.687    18736841.845    18736850.312
       246.000         211.000
 -24263570.35549 -18882204.65147  18615610.494    18615609.804    18615619.540
       237.000         202.000
 -11603116.42849  -9026415.67447  19618353.299    19618352.922    19618363.217
       236.000         196.000
 -30139315.88949 -22820201.96447  19117475.401    19117474.638    19117485.132
       239.000         203.000
 -19736603.22149 -15363141.03046  20517596.454    20517596.454    20517607.695
       232.000         186.000
  -2495243.63949  -1753928.04445  23357911.560    23357911.314    23357924.409
       204.000         139.000
 00  5 23 18 16 29.9930000  0  7G17G30G 5G24G10G 6G25
  -6058600.97149  -4704777.47546  22263407.205    22263407.210    22263425.438
       220.000         165.000
 -33314282.33349 -25933492.11647  18724679.296    18724679.470    18724687.930
       246.000         211.000
 -24252564.40549 -18873628.65147  18617704.954    18617704.218    18617713.966
       238.000         202.000
 -11568551.14049  -8999481.74747  19624930.947    19624930.549    19624940.846
       237.000         196.000
 -30206811.41949 -22872795.83247  19104631.468    19104630.628    19104641.067
       239.000         204.000
 -19837512.28549 -15441771.40046  20498394.016    20498393.995    20498405.256
       232.000         187.000
  -2553079.41249  -1798994.93745  23346905.806    23346905.566    23346918.758
       204.000         139.000
 00  5 23 18 16 59.9930000  0  7G17G30G 5G24G10G 6G25
  -6180967.01949  -4800127.37546  22240121.741    22240121.649    22240139.793
       225.000         172.000
 -33377647.89549 -25982867.86347  18712621.205    18712621.388    18712629.822
       246.000         211.000
 -24241051.76449 -18864657.82447  18619895.744    18619895.030    18619904.815
       237.000         201.000
 -11533811.13449  -8972411.67347  19631541.892    19631541.424    19631551.713
       237.000         196.000
 -30273723.29649 -22924934.90847  19091898.516    19091897.683    19091908.091
       239.000         204.000
 -19938357.59349 -15520352.08346  20479203.696    20479203.679    20479214.940
       232.000         187.000
  -2610457.87349  -1843705.48545  23335987.101    23335986.951    23336000.049
       205.000         135.000
 00  5 23 18 17 29.9930000  0  7G17G30G 5G24G10G 6G25
  -6303155.88049  -4895339.22346  22216869.920    22216869.754    22216887.883
       224.000         174.000
 -33440454.64849 -26031808.17247  18700669.499    18700669.649    18700678.076
       246.000         211.000
 -24229024.75949 -18855286.18547  18622184.520    18622183.744    18622193.549
       238.000         202.000
 -11498889.65349  -8945200.18547  19638187.358    19638186.835    19638197.142
       236.000         196.000
 -30340041.13449 -22976611.09647  19079278.676    19079277.801    19079288.170
       239.000         204.000
 -20039129.53349 -15598875.59947  20460027.468    20460027.395    20460038.594
       233.000         188.000
  -2667369.45749  -1888052.22445  23325157.325    23325157.080    23325170.160
       207.000         137.000
 00  5 23 18 17 59.9930000  0  7G17G30G 5G24G10G 6G25
  -6425169.07249  -4990414.17746  22193651.551    22193651.309    22193669.322
       224.000         170.000
 -33502704.00349 -26080314.15347  18688823.836    18688823.978    18688832.400
       246.000         211.000
 -24216486.96849 -18845516.54447  18624570.505    18624569.660    18624579.491
       238.000         202.000
 -11463790.65249  -8917850.37647  19644866.515    19644865.991    19644876.321
       236.000         196.000
 -30405766.24349 -23027825.42547  19066771.624    19066770.692    19066781.036
       239.000         204.000
 -20139829.82049 -15677343.27147  20440864.860    20440864.726    20440875.887
       233.000         188.000
  -2723816.39949  -1932036.89345  23314415.890    23314415.660    23314428.725
       207.000         139.000
 00  5 23 18 18 29.9930000  0  7G17G30G 5G24G10G 6G25
  -6547020.52049  -5085363.10446  22170463.944    22170463.654    22170481.462
       221.000         166.000
 -33564409.41249 -26128396.27947  18677081.721    18677081.825    18677090.211
       246.000         210.000
 -24203454.22949 -18835361.22747  18627050.635    18627049.778    18627059.585
       238.000         202.000
 -11428531.17549  -8890375.51747  19651576.220    19651575.703    19651586.041
       236.000         195.000
 -30470911.93149 -23078588.25547  19054374.785    19054373.841    19054384.183
       239.000         204.000
 -20240472.57649 -15755766.11647  20421713.120    20421712.979    20421724.117
       232.000         188.000
  -2779813.43149  -1975671.01045  23303760.131    23303759.811    23303772.892
       208.000         139.000
 00  5 23 18 18 59.9930000  0  7G17G30G 5G24G10G 6G25
  -6668696.58049  -5180175.35045  22147309.590    22147309.303    22147327.013
       219.000         160.000
 -33625556.67349 -26176043.49147  18665445.803    18665445.895    18665454.246
       247.000         210.000
 -24189914.94949 -18824811.19947  18629627.197    18629626.290    18629636.089
       239.000         202.000
 -11393100.37549  -8862767.16747  19658318.597    19658318.020    19658328.385
       237.000         195.000
 -30535464.51949 -23128888.93347  19042090.792    19042089.843    19042100.187
       240.000         204.000
 -20341044.44149 -15834133.71847  20402574.860    20402574.732    20402585.826
       233.000         189.000
  -2835348.03349  -2018944.78845  23293192.365    23293191.910    23293205.129
       206.000         137.000
 00  5 23 18 19 29.9930000  0  7G17G30G 5G24G10G 6G25
  -6790189.30149  -5274844.73145  22124190.098    22124189.803    22124207.452
       214.000         154.000
 -33686137.29049 -26223249.16647  18653917.715    18653917.785    18653926.081
       246.000         210.000
 -24175863.48849 -18813862.07347  18632301.162    18632300.251    18632310.042
       238.000         202.000
 -11357493.16749  -8835021.35547  19665094.414    19665093.875    19665104.279
       235.000         194.000
 -30599415.23749 -23178720.62347  19029921.287    19029920.370    19029930.733
       238.000         203.000
 -20441537.61649 -15912440.00547  20383451.594    20383451.454    20383462.511
       233.000         188.000
  -2890412.51649  -2061852.24945  23282713.970    23282713.532    23282726.833
       205.000         137.000
 00  5 23 18 19 59.9930000  0  7G17G30G 5G24G10G 6G25
  -6911538.61849  -5369402.38045  22101097.720    22101097.578    22101115.170
       212.000         151.000
 -33746190.40749 -26270043.80147  18642489.993    18642490.076    18642498.298
       246.000         210.000
 -24161341.47149 -18802546.28047  18635064.589    18635063.731    18635073.537
       237.000         201.000
 -11321751.85549  -8807171.04747  19671895.741    19671895.242    19671905.668
       236.000         194.000
 -30662803.48549 -23228114.02447  19017858.827    19017857.934    19017868.311
       239.000         204.000
 -20541991.68549 -15990715.81347  20364335.730    20364335.600    20364346.656
       233.000         188.000
  -2945047.01249  -2104424.64945  23272317.354    23272317.068    23272330.319
       204.000         136.000
 00  5 23 18 20 29.9930000  0  7G17G30G 5G24G10G 6G25
  -7032714.73249  -5463825.07345  22078038.119    22078038.128    22078055.821
       210.000         145.000
 -33805686.27849 -26316404.21647  18631168.300    18631168.385    18631176.551
       246.000         210.000
 -24146321.39849 -18790842.39047  18637922.782    18637921.976    18637931.802
       237.000         201.000
 -11285849.51549  -8779195.26147  19678727.747    19678727.274    19678737.692
       235.000         194.000
 -30725598.95949 -23277045.52747  19005909.234    19005908.344    19005918.675
       239.000         204.000
 -20642377.40849 -16068938.36247  20345232.926    20345232.790    20345243.815
       233.000         188.000
  -2999222.98549  -2146639.77645  23262007.821    23262007.660    23262021.060
       203.000         137.000
 00  5 23 18 20 59.9930000  0  7G17G30G 5G24G10G 6G25
  -7153679.86749  -5558083.35945  22055018.813    22055019.011    22055036.674
       212.000         149.000
 -33864586.55449 -26362300.53747  18619959.881    18619960.022    18619968.157
       245.000         210.000
 -24130767.60149 -18778722.62047  18640882.548    18640881.790    18640891.642
       237.000         201.000
 -11249750.88649  -8751066.52647  19685597.077    19685596.653    19685607.065
       235.000         194.000
 -30787763.88949 -23325485.69647  18994079.575    18994078.709    18994089.007
       238.000         204.000
 -20742656.99649 -16147078.20947  20326150.170    20326150.111    20326161.164
       233.000         189.000
  -3052903.56849  -2188468.87745  23251792.670    23251792.577    23251806.044
       204.000         141.000
 00  5 23 18 21 29.9930000  0  7G17G30G 5G24G10G 6G25
  -7274466.16349  -5652202.30045  22032033.830    22032033.969    22032051.567
       218.000         154.000
 -33922922.88349 -26407757.41347  18608858.780    18608858.966    18608867.112
       245.000         210.000
 -24114714.46249 -18766213.74747  18643937.347    18643936.643    18643946.492
       237.000         201.000
 -11213490.99049  -8722812.13047  19692497.091    19692496.701    19692507.117
       235.000         193.000
 -30849329.95949 -23373459.22147  18982363.782    18982363.005    18982373.307
       238.000         204.000
 -20842862.57149 -16225160.38747  20307081.549    20307081.523    20307092.583
       232.000         189.000
  -3106121.43249  -2229937.38145  23241665.673    23241665.499    23241679.125
       206.000         142.000
 00  5 23 18 21 59.9930000  0  7G17G30G 5G24G10G 6G25
  -7395073.69859  -5746181.73055  22009082.846    22009082.955    22009100.427
       222.000         159.000
 -33980695.89349 -26452775.34647  18597864.880    18597865.113    18597873.281
       247.000         210.000
 -24098163.78359 -18753316.96057  18647086.815    18647086.147    18647096.054
       239.000         201.000
 -11177072.52559  -8694433.95057  19699427.220    19699426.929    19699437.380
       236.000         193.000
 -30910297.68659 -23420966.50857  18970761.926    18970761.185    18970771.469
       240.000         205.000
 -20942993.35559 -16303183.83657  20288027.081    20288027.159    20288038.317
       234.000         189.000
  -3158877.30359  -2271045.67655  23231626.589    23231626.466    23231639.979
       208.000         142.000
 00  5 23 18 22 29.9930000  0  7G17G30G 5G24G10G 6G25
  -7515524.27449  -5840039.10646  21986161.673    21986161.815    21986179.137
       224.000         164.000
 -34037924.76049 -26497369.26047  18586974.514    18586974.782    18586983.001
       245.000         210.000
 -24081139.56549 -18740051.39847  18650326.358    18650325.750    18650335.667
       237.000         201.000
 -11140519.84449  -8665951.41047  19706382.917    19706382.674    19706393.155
       236.000         194.000
 -30970686.49149 -23468022.67747  18959270.177    18959269.490    18959279.808
       238.000         204.000
 -21043072.99249 -16381167.86647  20268982.327    20268982.497    20268993.668
       233.000         190.000
  -3211193.76849  -2311811.82045  23221671.061    23221671.003    23221684.657
       207.000         142.000
 00  5 23 18 22 59.9930000  0  7G17G30G 5G24G10G 6G25
  -7635762.12049  -5933730.72646  21963280.990    21963281.129    21963298.358
       226.000         170.000
 -34094554.28249 -26541496.15147  18576198.175    18576198.506    18576206.749
       245.000         209.000
 -24063587.80949 -18726374.76747  18653666.343    18653665.767    18653675.674
       237.000         201.000
 -11103779.67949  -8637322.77247  19713374.310    19713374.099    19713384.620
       235.000         194.000
 -31030441.30449 -23514584.82947  18947899.088    18947898.453    18947908.792
       238.000         205.000
 -21143044.61249 -16459067.74747  20249958.173    20249958.395    20249969.547
       232.000         188.000
  -3263015.73249  -2352192.63545  23211809.555    23211809.537    23211823.314
       204.000         141.000
 00  5 23 18 23 29.9930000  0  7G17G30G 5G24G10G 6G25
  -7755817.49049  -6027280.14246  21940435.113    21940435.227    21940452.373
       225.000         173.000
 -34150614.65249 -26585179.55447  18565530.149    18565530.523    18565538.783
       244.000         208.000
 -24045541.26849 -18712312.59447  18657100.480    18657099.932    18657109.871
       237.000         201.000
 -11066885.16749  -8608573.87747  19720395.123    19720394.907    19720405.433
       235.000         193.000
 -31089591.97449 -23560676.22447  18936642.982    18936642.405    18936652.769
       237.000         204.000
 -21242938.64549 -16536907.16547  20230948.737    20230949.035    20230960.187
       232.000         188.000
  -3314374.47149  -2392212.46945  23202036.383    23202036.347    23202050.169
       203.000         140.000
 00  5 23 18 23 59.9930000  0  7G17G30G 5G24G10G 6G25
  -7875684.10649  -6120682.47246  21917625.073    21917625.203    21917642.315
       223.000         172.000
 -34206098.69749 -26628413.86947  18554971.826    18554972.228    18554980.499
       244.000         209.000
 -24026995.92949 -18697861.73947  18660629.492    18660628.992    18660638.987
       237.000         200.000
 -11029832.44349  -8579701.69447  19727446.008    19727445.818    19727456.363
       235.000         192.000
 -31148132.06249 -23606291.84047  18925503.091    18925502.543    18925512.923
       238.000         204.000
 -21342748.85649 -16614681.26447  20211955.361    20211955.693    20211966.812
       232.000         188.000
  -3365264.10549  -2431866.79945  23192352.376    23192352.340    23192366.197
       203.000         134.000
 00  5 23 18 24 29.9930000  0  7G17G30G 5G24G10G 6G25
  -7995343.26949  -6213923.15446  21894854.501    21894854.655    21894871.714
       223.000         173.000
 -34260987.85949 -26671184.63847  18544526.751    18544527.137    18544535.417
       247.000         208.000
 -24007935.12149 -18683009.22647  18664256.617    18664256.149    18664266.182
       239.000         201.000
 -10992605.52949  -8550693.78647  19734530.059    19734529.868    19734540.433
       237.000         193.000
 -31206042.88849 -23651417.11747  18914482.990    18914482.439    18914492.800
       240.000         205.000
 -21442456.48949 -16692375.43247  20192981.492    20192981.831    20192992.970
       234.000         189.000
  -3415667.07149  -2471141.86745  23182760.948    23182760.916    23182774.794
       207.000         139.000
 00  5 23 18 24 59.9930000  0  7G17G30G 5G24G10G 6G25
  -8114820.26349  -6307021.88046  21872118.556    21872118.740    21872135.806
       222.000         170.000
 -34315306.95749 -26713511.20847  18534190.187    18534190.549    18534198.837
       246.000         208.000
 -23988386.39849 -18667776.52747  18667976.711    18667976.193    18667986.248
       240.000         201.000
 -10955232.46749  -8521572.00047  19741642.053    19741641.795    19741652.311
       237.000         193.000
 -31263349.40449 -23696071.50647  18903577.972    18903577.363    18903587.676
       241.000         205.000
 -21542087.15849 -16770009.63447  20174022.401    20174022.660    20174033.779
       235.000         189.000
  -3465609.60249  -2510058.15045  23173257.266    23173257.263    23173271.109
       211.000         143.000
 00  5 23 18 25 29.9930000  0  7G17G30G 5G24G10G 6G25
  -8234133.18849  -6399992.78546  21849413.917    21849414.061    21849431.075
       223.000         167.000
 -34369073.97449 -26755407.57747  18523958.748    18523959.034    18523967.286
       246.000         208.000
 -23968370.11649 -18652179.48247  18671785.819    18671785.221    18671795.289
       239.000         201.000
 -10917733.93949  -8492352.43847  19748777.924    19748777.580    19748788.065
       237.000         192.000
 -31320069.63349 -23740269.03747  18892784.549    18892783.858    18892794.143
       241.000         205.000
 -21641658.76249 -16847597.80847  20155074.557    20155074.736    20155085.792
       235.000         190.000
  -3515110.67349  -2548630.44645  23163837.640    23163837.582    23163851.488
       208.000         144.000
 00  5 23 18 25 59.9930000  0  7G17G30G 5G24G10G 6G25
  -8353267.20849  -6492824.31446  21826743.337    21826743.419    21826760.317
       221.000         167.000
 -34422273.44749 -26796861.71147  18513835.227    18513835.503    18513843.744
       244.000         208.000
 -23947873.69649 -18636208.30847  18675686.208    18675685.609    18675695.696
       237.000         201.000
 -10880097.56049  -8463025.46247  19755939.917    19755939.596    19755950.094
       235.000         193.000
 -31376188.15249 -23783997.71147  18882105.580    18882104.843    18882115.092
       240.000         205.000
 -21741156.20949 -16925128.20847  20136140.749    20136140.924    20136151.941
       234.000         190.000
  -3564156.33649  -2586847.91245  23154504.602    23154504.496    23154518.461
       208.000         142.000
 00  5 23 18 26 29.9930000  0  7G17G30G 5G24G10G 6G25
  -8472201.84349  -6585500.49646  21804110.718    21804110.771    21804127.523
       224.000         168.000
 -34474884.66449 -26837857.45947  18503823.651    18503823.918    18503832.154
       245.000         208.000
 -23926878.73249 -18619848.65647  18679681.455    18679680.858    18679690.959
       238.000         201.000
 -10842305.45249  -8433577.15247  19763131.623    19763131.255    19763141.772
       236.000         193.000
 -31431684.43249 -23827241.51947  18871544.923    18871544.210    18871554.465
       239.000         206.000
 -21840558.91649 -17002584.79147  20117225.014    20117225.148    20117236.122
       235.000         191.000
  -3612726.47749  -2624694.81845  23145262.000    23145261.943    23145275.946
       207.000         142.000
